<?xml version="1.0" encoding="UTF-8" standalone="no" ?>
<gpx xmlns="http://www.topografix.com/GPX/1/1" xmlns:xsi="http://www.w3.org/2001/XMLSchema-instance" xsi:schemaLocation="http://www.topografix.com/GPX/1/1 http://www.topografix.com/GPX/1/1/gpx.xsd" version="1.1" creator="VisuGPX - https://www.visugpx.com">
  <metadata>
    <name>rando aussois</name>
    <desc><![CDATA[rando tranquille à aussois. joli vue sur les lacs ! et superbe chalet Mario.]]></desc>
  </metadata>
  <trk>
    <name><![CDATA[rando aussois]]></name>
    <trkseg>
      <trkpt lat="45.231" lon="6.7409">
        <ele>1563.24</ele>
        <time>2018-06-23T09:50:58Z</time>
      </trkpt>
      <trkpt lat="45.23253" lon="6.73991">
        <ele>1584.39</ele>
        <time>2018-06-23T09:51:04Z</time>
      </trkpt>
      <trkpt lat="45.23396" lon="6.73869">
        <ele>1587.27</ele>
        <time>2018-06-23T09:51:05Z</time>
      </trkpt>
      <trkpt lat="45.23442" lon="6.73812">
        <ele>1593.04</ele>
        <time>2018-06-23T09:51:07Z</time>
      </trkpt>
      <trkpt lat="45.23476" lon="6.73796">
        <ele>1598.33</ele>
        <time>2018-06-23T09:51:09Z</time>
      </trkpt>
      <trkpt lat="45.23498" lon="6.73744">
        <ele>1603.62</ele>
        <time>2018-06-23T09:51:11Z</time>
      </trkpt>
      <trkpt lat="45.23514" lon="6.73677">
        <ele>1608.42</ele>
        <time>2018-06-23T09:51:13Z</time>
      </trkpt>
      <trkpt lat="45.23495" lon="6.73671">
        <ele>1612.75</ele>
        <time>2018-06-23T09:51:15Z</time>
      </trkpt>
      <trkpt lat="45.23493" lon="6.73654">
        <ele>1617.07</ele>
        <time>2018-06-23T09:51:17Z</time>
      </trkpt>
      <trkpt lat="45.23458" lon="6.73593">
        <ele>1620.92</ele>
        <time>2018-06-23T09:51:19Z</time>
      </trkpt>
      <trkpt lat="45.23398" lon="6.7356">
        <ele>1624.28</ele>
        <time>2018-06-23T09:51:21Z</time>
      </trkpt>
      <trkpt lat="45.23425" lon="6.73512">
        <ele>1629.09</ele>
        <time>2018-06-23T09:51:23Z</time>
      </trkpt>
      <trkpt lat="45.23443" lon="6.7352">
        <ele>1629.09</ele>
        <time>2018-06-23T09:51:24Z</time>
      </trkpt>
      <trkpt lat="45.2348" lon="6.73503">
        <ele>1632.46</ele>
        <time>2018-06-23T09:51:26Z</time>
      </trkpt>
      <trkpt lat="45.23506" lon="6.73481">
        <ele>1636.3</ele>
        <time>2018-06-23T09:51:29Z</time>
      </trkpt>
      <trkpt lat="45.23549" lon="6.73513">
        <ele>1640.15</ele>
        <time>2018-06-23T09:51:32Z</time>
      </trkpt>
      <trkpt lat="45.23546" lon="6.73514">
        <ele>1644.47</ele>
        <time>2018-06-23T09:51:36Z</time>
      </trkpt>
      <trkpt lat="45.23544" lon="6.73514">
        <ele>1648.32</ele>
        <time>2018-06-23T09:51:40Z</time>
      </trkpt>
      <trkpt lat="45.23542" lon="6.73515">
        <ele>1651.2</ele>
        <time>2018-06-23T09:51:44Z</time>
      </trkpt>
      <trkpt lat="45.2354" lon="6.73516">
        <ele>1652.16</ele>
        <time>2018-06-23T09:51:48Z</time>
      </trkpt>
      <trkpt lat="45.2354" lon="6.73511">
        <ele>1655.53</ele>
        <time>2018-06-23T09:51:56Z</time>
      </trkpt>
      <trkpt lat="45.2354" lon="6.73509">
        <ele>1657.45</ele>
        <time>2018-06-23T09:52:15Z</time>
      </trkpt>
      <trkpt lat="45.2354" lon="6.73512">
        <ele>1657.45</ele>
        <time>2018-06-23T09:52:24Z</time>
      </trkpt>
      <trkpt lat="45.23542" lon="6.73512">
        <ele>1657.45</ele>
        <time>2018-06-23T09:52:26Z</time>
      </trkpt>
      <trkpt lat="45.23547" lon="6.73505">
        <ele>1659.37</ele>
        <time>2018-06-23T09:52:31Z</time>
      </trkpt>
      <trkpt lat="45.2356" lon="6.73502">
        <ele>1660.81</ele>
        <time>2018-06-23T09:52:46Z</time>
      </trkpt>
      <trkpt lat="45.23561" lon="6.73501">
        <ele>1660.81</ele>
        <time>2018-06-23T09:52:47Z</time>
      </trkpt>
      <trkpt lat="45.2357" lon="6.73497">
        <ele>1662.26</ele>
        <time>2018-06-23T09:52:55Z</time>
      </trkpt>
      <trkpt lat="45.23576" lon="6.73495">
        <ele>1663.7</ele>
        <time>2018-06-23T09:53:01Z</time>
      </trkpt>
      <trkpt lat="45.23581" lon="6.73497">
        <ele>1664.66</ele>
        <time>2018-06-23T09:53:05Z</time>
      </trkpt>
      <trkpt lat="45.23585" lon="6.73504">
        <ele>1667.06</ele>
        <time>2018-06-23T09:53:13Z</time>
      </trkpt>
      <trkpt lat="45.23591" lon="6.73506">
        <ele>1668.99</ele>
        <time>2018-06-23T09:53:22Z</time>
      </trkpt>
      <trkpt lat="45.23594" lon="6.73509">
        <ele>1670.91</ele>
        <time>2018-06-23T09:53:28Z</time>
      </trkpt>
      <trkpt lat="45.23598" lon="6.73508">
        <ele>1671.87</ele>
        <time>2018-06-23T09:53:32Z</time>
      </trkpt>
      <trkpt lat="45.23605" lon="6.73506">
        <ele>1673.79</ele>
        <time>2018-06-23T09:53:45Z</time>
      </trkpt>
      <trkpt lat="45.23607" lon="6.73507">
        <ele>1676.2</ele>
        <time>2018-06-23T09:53:57Z</time>
      </trkpt>
      <trkpt lat="45.23609" lon="6.73506">
        <ele>1677.64</ele>
        <time>2018-06-23T09:54:08Z</time>
      </trkpt>
      <trkpt lat="45.2361" lon="6.73507">
        <ele>1677.64</ele>
        <time>2018-06-23T09:54:18Z</time>
      </trkpt>
      <trkpt lat="45.23612" lon="6.73504">
        <ele>1678.12</ele>
        <time>2018-06-23T09:54:32Z</time>
      </trkpt>
      <trkpt lat="45.23609" lon="6.73505">
        <ele>1678.6</ele>
        <time>2018-06-23T09:54:53Z</time>
      </trkpt>
      <trkpt lat="45.23614" lon="6.73505">
        <ele>1680.04</ele>
        <time>2018-06-23T09:55:02Z</time>
      </trkpt>
      <trkpt lat="45.23619" lon="6.73511">
        <ele>1679.56</ele>
        <time>2018-06-23T09:55:12Z</time>
      </trkpt>
      <trkpt lat="45.23621" lon="6.73516">
        <ele>1680.52</ele>
        <time>2018-06-23T09:55:18Z</time>
      </trkpt>
      <trkpt lat="45.2362" lon="6.7352">
        <ele>1681.48</ele>
        <time>2018-06-23T09:55:21Z</time>
      </trkpt>
      <trkpt lat="45.23621" lon="6.73523">
        <ele>1681.48</ele>
        <time>2018-06-23T09:55:24Z</time>
      </trkpt>
      <trkpt lat="45.23624" lon="6.73528">
        <ele>1682.44</ele>
        <time>2018-06-23T09:55:29Z</time>
      </trkpt>
      <trkpt lat="45.23627" lon="6.73533">
        <ele>1683.41</ele>
        <time>2018-06-23T09:55:34Z</time>
      </trkpt>
      <trkpt lat="45.2363" lon="6.73538">
        <ele>1684.37</ele>
        <time>2018-06-23T09:55:39Z</time>
      </trkpt>
      <trkpt lat="45.23635" lon="6.73548">
        <ele>1686.77</ele>
        <time>2018-06-23T09:55:50Z</time>
      </trkpt>
      <trkpt lat="45.23639" lon="6.73552">
        <ele>1686.77</ele>
        <time>2018-06-23T09:55:59Z</time>
      </trkpt>
      <trkpt lat="45.23643" lon="6.73552">
        <ele>1687.73</ele>
        <time>2018-06-23T09:56:04Z</time>
      </trkpt>
      <trkpt lat="45.23652" lon="6.7355">
        <ele>1689.17</ele>
        <time>2018-06-23T09:56:12Z</time>
      </trkpt>
      <trkpt lat="45.23658" lon="6.73548">
        <ele>1690.62</ele>
        <time>2018-06-23T09:56:17Z</time>
      </trkpt>
      <trkpt lat="45.23666" lon="6.73547">
        <ele>1692.54</ele>
        <time>2018-06-23T09:56:27Z</time>
      </trkpt>
      <trkpt lat="45.23675" lon="6.73544">
        <ele>1694.94</ele>
        <time>2018-06-23T09:56:38Z</time>
      </trkpt>
      <trkpt lat="45.23679" lon="6.73539">
        <ele>1696.38</ele>
        <time>2018-06-23T09:56:49Z</time>
      </trkpt>
      <trkpt lat="45.23688" lon="6.73536">
        <ele>1698.79</ele>
        <time>2018-06-23T09:57:05Z</time>
      </trkpt>
      <trkpt lat="45.23692" lon="6.73534">
        <ele>1700.71</ele>
        <time>2018-06-23T09:57:12Z</time>
      </trkpt>
      <trkpt lat="45.237" lon="6.73531">
        <ele>1703.59</ele>
        <time>2018-06-23T09:57:24Z</time>
      </trkpt>
      <trkpt lat="45.23707" lon="6.73529">
        <ele>1706.48</ele>
        <time>2018-06-23T09:57:35Z</time>
      </trkpt>
      <trkpt lat="45.23713" lon="6.73524">
        <ele>1707.92</ele>
        <time>2018-06-23T09:57:47Z</time>
      </trkpt>
      <trkpt lat="45.23714" lon="6.7352">
        <ele>1707.92</ele>
        <time>2018-06-23T09:57:53Z</time>
      </trkpt>
      <trkpt lat="45.23717" lon="6.73512">
        <ele>1708.4</ele>
        <time>2018-06-23T09:58:05Z</time>
      </trkpt>
      <trkpt lat="45.23718" lon="6.73511">
        <ele>1708.4</ele>
        <time>2018-06-23T09:58:25Z</time>
      </trkpt>
      <trkpt lat="45.23716" lon="6.73511">
        <ele>1708.4</ele>
        <time>2018-06-23T09:58:42Z</time>
      </trkpt>
      <trkpt lat="45.23716" lon="6.73511">
        <ele>1709.36</ele>
        <time>2018-06-23T09:58:44Z</time>
      </trkpt>
      <trkpt lat="45.23721" lon="6.73509">
        <ele>1709.36</ele>
        <time>2018-06-23T09:59:00Z</time>
      </trkpt>
      <trkpt lat="45.23725" lon="6.73527">
        <ele>1707.92</ele>
        <time>2018-06-23T09:59:15Z</time>
      </trkpt>
      <trkpt lat="45.23728" lon="6.73533">
        <ele>1709.36</ele>
        <time>2018-06-23T09:59:32Z</time>
      </trkpt>
      <trkpt lat="45.23731" lon="6.73533">
        <ele>1709.36</ele>
        <time>2018-06-23T09:59:34Z</time>
      </trkpt>
      <trkpt lat="45.23739" lon="6.73525">
        <ele>1712.25</ele>
        <time>2018-06-23T09:59:43Z</time>
      </trkpt>
      <trkpt lat="45.2374" lon="6.7352">
        <ele>1713.69</ele>
        <time>2018-06-23T09:59:49Z</time>
      </trkpt>
      <trkpt lat="45.23743" lon="6.73513">
        <ele>1716.09</ele>
        <time>2018-06-23T09:59:58Z</time>
      </trkpt>
      <trkpt lat="45.2374" lon="6.73505">
        <ele>1718.49</ele>
        <time>2018-06-23T10:00:08Z</time>
      </trkpt>
      <trkpt lat="45.23738" lon="6.73502">
        <ele>1719.46</ele>
        <time>2018-06-23T10:00:12Z</time>
      </trkpt>
      <trkpt lat="45.23737" lon="6.73489">
        <ele>1719.94</ele>
        <time>2018-06-23T10:00:23Z</time>
      </trkpt>
      <trkpt lat="45.23737" lon="6.73487">
        <ele>1719.94</ele>
        <time>2018-06-23T10:00:24Z</time>
      </trkpt>
      <trkpt lat="45.23739" lon="6.73486">
        <ele>1720.42</ele>
        <time>2018-06-23T10:00:26Z</time>
      </trkpt>
      <trkpt lat="45.23739" lon="6.73485">
        <ele>1719.94</ele>
        <time>2018-06-23T10:00:27Z</time>
      </trkpt>
      <trkpt lat="45.2374" lon="6.73484">
        <ele>1719.94</ele>
        <time>2018-06-23T10:00:28Z</time>
      </trkpt>
      <trkpt lat="45.23742" lon="6.73482">
        <ele>1720.42</ele>
        <time>2018-06-23T10:00:32Z</time>
      </trkpt>
      <trkpt lat="45.23744" lon="6.7348">
        <ele>1720.42</ele>
        <time>2018-06-23T10:00:36Z</time>
      </trkpt>
      <trkpt lat="45.23745" lon="6.73479">
        <ele>1720.9</ele>
        <time>2018-06-23T10:00:37Z</time>
      </trkpt>
      <trkpt lat="45.23753" lon="6.73469">
        <ele>1721.38</ele>
        <time>2018-06-23T10:00:48Z</time>
      </trkpt>
      <trkpt lat="45.23753" lon="6.73468">
        <ele>1721.86</ele>
        <time>2018-06-23T10:00:50Z</time>
      </trkpt>
      <trkpt lat="45.23753" lon="6.73468">
        <ele>1721.86</ele>
        <time>2018-06-23T10:00:51Z</time>
      </trkpt>
      <trkpt lat="45.23757" lon="6.73462">
        <ele>1723.3</ele>
        <time>2018-06-23T10:01:03Z</time>
      </trkpt>
      <trkpt lat="45.23759" lon="6.73454">
        <ele>1724.26</ele>
        <time>2018-06-23T10:01:10Z</time>
      </trkpt>
      <trkpt lat="45.23758" lon="6.73451">
        <ele>1725.7</ele>
        <time>2018-06-23T10:01:12Z</time>
      </trkpt>
      <trkpt lat="45.23758" lon="6.73449">
        <ele>1726.67</ele>
        <time>2018-06-23T10:01:13Z</time>
      </trkpt>
      <trkpt lat="45.23758" lon="6.73447">
        <ele>1727.15</ele>
        <time>2018-06-23T10:01:14Z</time>
      </trkpt>
      <trkpt lat="45.23758" lon="6.73445">
        <ele>1727.15</ele>
        <time>2018-06-23T10:01:15Z</time>
      </trkpt>
      <trkpt lat="45.2376" lon="6.73439">
        <ele>1729.55</ele>
        <time>2018-06-23T10:01:18Z</time>
      </trkpt>
      <trkpt lat="45.23766" lon="6.73431">
        <ele>1730.03</ele>
        <time>2018-06-23T10:01:27Z</time>
      </trkpt>
      <trkpt lat="45.2377" lon="6.73426">
        <ele>1730.51</ele>
        <time>2018-06-23T10:01:39Z</time>
      </trkpt>
      <trkpt lat="45.2377" lon="6.73427">
        <ele>1730.99</ele>
        <time>2018-06-23T10:01:53Z</time>
      </trkpt>
      <trkpt lat="45.23771" lon="6.73426">
        <ele>1730.99</ele>
        <time>2018-06-23T10:01:59Z</time>
      </trkpt>
      <trkpt lat="45.23772" lon="6.73427">
        <ele>1730.99</ele>
        <time>2018-06-23T10:02:10Z</time>
      </trkpt>
      <trkpt lat="45.23769" lon="6.73427">
        <ele>1730.99</ele>
        <time>2018-06-23T10:02:22Z</time>
      </trkpt>
      <trkpt lat="45.2377" lon="6.73427">
        <ele>1731.47</ele>
        <time>2018-06-23T10:02:33Z</time>
      </trkpt>
      <trkpt lat="45.23771" lon="6.73427">
        <ele>1731.47</ele>
        <time>2018-06-23T10:02:52Z</time>
      </trkpt>
      <trkpt lat="45.2377" lon="6.73428">
        <ele>1731.47</ele>
        <time>2018-06-23T10:03:02Z</time>
      </trkpt>
      <trkpt lat="45.2377" lon="6.73429">
        <ele>1731.47</ele>
        <time>2018-06-23T10:03:20Z</time>
      </trkpt>
      <trkpt lat="45.23768" lon="6.73426">
        <ele>1731.95</ele>
        <time>2018-06-23T10:03:30Z</time>
      </trkpt>
      <trkpt lat="45.23767" lon="6.73425">
        <ele>1731.95</ele>
        <time>2018-06-23T10:03:31Z</time>
      </trkpt>
      <trkpt lat="45.23767" lon="6.73422">
        <ele>1731.95</ele>
        <time>2018-06-23T10:03:33Z</time>
      </trkpt>
      <trkpt lat="45.23766" lon="6.73421">
        <ele>1731.95</ele>
        <time>2018-06-23T10:03:34Z</time>
      </trkpt>
      <trkpt lat="45.23762" lon="6.73412">
        <ele>1732.43</ele>
        <time>2018-06-23T10:03:42Z</time>
      </trkpt>
      <trkpt lat="45.23761" lon="6.7341">
        <ele>1732.43</ele>
        <time>2018-06-23T10:03:46Z</time>
      </trkpt>
      <trkpt lat="45.2376" lon="6.73408">
        <ele>1732.91</ele>
        <time>2018-06-23T10:03:47Z</time>
      </trkpt>
      <trkpt lat="45.23757" lon="6.73403">
        <ele>1732.91</ele>
        <time>2018-06-23T10:03:52Z</time>
      </trkpt>
      <trkpt lat="45.23756" lon="6.73401">
        <ele>1733.39</ele>
        <time>2018-06-23T10:03:53Z</time>
      </trkpt>
      <trkpt lat="45.23755" lon="6.734">
        <ele>1733.39</ele>
        <time>2018-06-23T10:03:54Z</time>
      </trkpt>
      <trkpt lat="45.2375" lon="6.73389">
        <ele>1733.88</ele>
        <time>2018-06-23T10:04:04Z</time>
      </trkpt>
      <trkpt lat="45.2375" lon="6.73387">
        <ele>1733.88</ele>
        <time>2018-06-23T10:04:05Z</time>
      </trkpt>
      <trkpt lat="45.2375" lon="6.73386">
        <ele>1734.36</ele>
        <time>2018-06-23T10:04:06Z</time>
      </trkpt>
      <trkpt lat="45.2375" lon="6.73384">
        <ele>1734.36</ele>
        <time>2018-06-23T10:04:07Z</time>
      </trkpt>
      <trkpt lat="45.23749" lon="6.73379">
        <ele>1734.84</ele>
        <time>2018-06-23T10:04:12Z</time>
      </trkpt>
      <trkpt lat="45.23748" lon="6.73377">
        <ele>1734.84</ele>
        <time>2018-06-23T10:04:13Z</time>
      </trkpt>
      <trkpt lat="45.23747" lon="6.73375">
        <ele>1735.32</ele>
        <time>2018-06-23T10:04:14Z</time>
      </trkpt>
      <trkpt lat="45.23747" lon="6.73374">
        <ele>1735.32</ele>
        <time>2018-06-23T10:04:15Z</time>
      </trkpt>
      <trkpt lat="45.23748" lon="6.73366">
        <ele>1735.8</ele>
        <time>2018-06-23T10:04:21Z</time>
      </trkpt>
      <trkpt lat="45.23749" lon="6.7336">
        <ele>1736.28</ele>
        <time>2018-06-23T10:04:26Z</time>
      </trkpt>
      <trkpt lat="45.23749" lon="6.73358">
        <ele>1736.28</ele>
        <time>2018-06-23T10:04:27Z</time>
      </trkpt>
      <trkpt lat="45.23749" lon="6.73357">
        <ele>1736.28</ele>
        <time>2018-06-23T10:04:28Z</time>
      </trkpt>
      <trkpt lat="45.23755" lon="6.73339">
        <ele>1737.72</ele>
        <time>2018-06-23T10:04:41Z</time>
      </trkpt>
      <trkpt lat="45.2376" lon="6.73323">
        <ele>1740.12</ele>
        <time>2018-06-23T10:04:53Z</time>
      </trkpt>
      <trkpt lat="45.23761" lon="6.73322">
        <ele>1740.6</ele>
        <time>2018-06-23T10:04:54Z</time>
      </trkpt>
      <trkpt lat="45.23764" lon="6.73316">
        <ele>1741.08</ele>
        <time>2018-06-23T10:05:01Z</time>
      </trkpt>
      <trkpt lat="45.23764" lon="6.73315">
        <ele>1741.08</ele>
        <time>2018-06-23T10:05:02Z</time>
      </trkpt>
      <trkpt lat="45.23768" lon="6.73306">
        <ele>1741.57</ele>
        <time>2018-06-23T10:05:14Z</time>
      </trkpt>
      <trkpt lat="45.23773" lon="6.73292">
        <ele>1742.53</ele>
        <time>2018-06-23T10:05:24Z</time>
      </trkpt>
      <trkpt lat="45.23775" lon="6.7329">
        <ele>1742.53</ele>
        <time>2018-06-23T10:05:27Z</time>
      </trkpt>
      <trkpt lat="45.23776" lon="6.73289">
        <ele>1742.53</ele>
        <time>2018-06-23T10:05:28Z</time>
      </trkpt>
      <trkpt lat="45.23778" lon="6.73282">
        <ele>1743.49</ele>
        <time>2018-06-23T10:05:34Z</time>
      </trkpt>
      <trkpt lat="45.23779" lon="6.7328">
        <ele>1743.49</ele>
        <time>2018-06-23T10:05:35Z</time>
      </trkpt>
      <trkpt lat="45.23788" lon="6.73264">
        <ele>1744.93</ele>
        <time>2018-06-23T10:05:45Z</time>
      </trkpt>
      <trkpt lat="45.23788" lon="6.73253">
        <ele>1746.37</ele>
        <time>2018-06-23T10:05:56Z</time>
      </trkpt>
      <trkpt lat="45.23789" lon="6.7325">
        <ele>1746.37</ele>
        <time>2018-06-23T10:06:00Z</time>
      </trkpt>
      <trkpt lat="45.2379" lon="6.73248">
        <ele>1746.37</ele>
        <time>2018-06-23T10:06:01Z</time>
      </trkpt>
      <trkpt lat="45.2379" lon="6.73245">
        <ele>1746.37</ele>
        <time>2018-06-23T10:06:02Z</time>
      </trkpt>
      <trkpt lat="45.2379" lon="6.73243">
        <ele>1746.85</ele>
        <time>2018-06-23T10:06:03Z</time>
      </trkpt>
      <trkpt lat="45.2379" lon="6.73241">
        <ele>1746.85</ele>
        <time>2018-06-23T10:06:04Z</time>
      </trkpt>
      <trkpt lat="45.23795" lon="6.7324">
        <ele>1747.33</ele>
        <time>2018-06-23T10:06:10Z</time>
      </trkpt>
      <trkpt lat="45.23797" lon="6.73241">
        <ele>1747.81</ele>
        <time>2018-06-23T10:06:11Z</time>
      </trkpt>
      <trkpt lat="45.23799" lon="6.73242">
        <ele>1747.81</ele>
        <time>2018-06-23T10:06:22Z</time>
      </trkpt>
      <trkpt lat="45.23801" lon="6.73249">
        <ele>1747.81</ele>
        <time>2018-06-23T10:06:28Z</time>
      </trkpt>
      <trkpt lat="45.23801" lon="6.73252">
        <ele>1748.29</ele>
        <time>2018-06-23T10:06:29Z</time>
      </trkpt>
      <trkpt lat="45.23802" lon="6.73254">
        <ele>1748.78</ele>
        <time>2018-06-23T10:06:30Z</time>
      </trkpt>
      <trkpt lat="45.23802" lon="6.73256">
        <ele>1748.78</ele>
        <time>2018-06-23T10:06:31Z</time>
      </trkpt>
      <trkpt lat="45.23802" lon="6.73272">
        <ele>1750.7</ele>
        <time>2018-06-23T10:06:42Z</time>
      </trkpt>
      <trkpt lat="45.23802" lon="6.73273">
        <ele>1750.7</ele>
        <time>2018-06-23T10:06:43Z</time>
      </trkpt>
      <trkpt lat="45.23802" lon="6.73275">
        <ele>1750.7</ele>
        <time>2018-06-23T10:06:44Z</time>
      </trkpt>
      <trkpt lat="45.23805" lon="6.73294">
        <ele>1752.14</ele>
        <time>2018-06-23T10:06:55Z</time>
      </trkpt>
      <trkpt lat="45.23807" lon="6.733">
        <ele>1753.1</ele>
        <time>2018-06-23T10:07:00Z</time>
      </trkpt>
      <trkpt lat="45.2381" lon="6.733">
        <ele>1753.1</ele>
        <time>2018-06-23T10:07:10Z</time>
      </trkpt>
      <trkpt lat="45.23812" lon="6.733">
        <ele>1753.58</ele>
        <time>2018-06-23T10:07:12Z</time>
      </trkpt>
      <trkpt lat="45.23816" lon="6.73294">
        <ele>1754.54</ele>
        <time>2018-06-23T10:07:23Z</time>
      </trkpt>
      <trkpt lat="45.23817" lon="6.73293">
        <ele>1754.54</ele>
        <time>2018-06-23T10:07:35Z</time>
      </trkpt>
      <trkpt lat="45.23817" lon="6.73294">
        <ele>1755.02</ele>
        <time>2018-06-23T10:07:45Z</time>
      </trkpt>
      <trkpt lat="45.23818" lon="6.73289">
        <ele>1755.99</ele>
        <time>2018-06-23T10:08:02Z</time>
      </trkpt>
      <trkpt lat="45.23821" lon="6.73275">
        <ele>1756.47</ele>
        <time>2018-06-23T10:08:13Z</time>
      </trkpt>
      <trkpt lat="45.23826" lon="6.73261">
        <ele>1758.39</ele>
        <time>2018-06-23T10:08:26Z</time>
      </trkpt>
      <trkpt lat="45.23827" lon="6.73252">
        <ele>1759.35</ele>
        <time>2018-06-23T10:08:34Z</time>
      </trkpt>
      <trkpt lat="45.23827" lon="6.7325">
        <ele>1759.35</ele>
        <time>2018-06-23T10:08:35Z</time>
      </trkpt>
      <trkpt lat="45.23826" lon="6.73245">
        <ele>1760.31</ele>
        <time>2018-06-23T10:08:40Z</time>
      </trkpt>
      <trkpt lat="45.23824" lon="6.73243">
        <ele>1760.31</ele>
        <time>2018-06-23T10:08:50Z</time>
      </trkpt>
      <trkpt lat="45.23824" lon="6.73241">
        <ele>1760.31</ele>
        <time>2018-06-23T10:08:51Z</time>
      </trkpt>
      <trkpt lat="45.23824" lon="6.73236">
        <ele>1761.27</ele>
        <time>2018-06-23T10:08:55Z</time>
      </trkpt>
      <trkpt lat="45.23825" lon="6.73234">
        <ele>1761.27</ele>
        <time>2018-06-23T10:08:56Z</time>
      </trkpt>
      <trkpt lat="45.23826" lon="6.73219">
        <ele>1763.2</ele>
        <time>2018-06-23T10:09:06Z</time>
      </trkpt>
      <trkpt lat="45.23828" lon="6.73211">
        <ele>1764.64</ele>
        <time>2018-06-23T10:09:16Z</time>
      </trkpt>
      <trkpt lat="45.2383" lon="6.7321">
        <ele>1764.64</ele>
        <time>2018-06-23T10:09:17Z</time>
      </trkpt>
      <trkpt lat="45.23831" lon="6.73209">
        <ele>1764.64</ele>
        <time>2018-06-23T10:09:18Z</time>
      </trkpt>
      <trkpt lat="45.23834" lon="6.73211">
        <ele>1765.12</ele>
        <time>2018-06-23T10:09:22Z</time>
      </trkpt>
      <trkpt lat="45.23835" lon="6.73213">
        <ele>1765.12</ele>
        <time>2018-06-23T10:09:23Z</time>
      </trkpt>
      <trkpt lat="45.23836" lon="6.73215">
        <ele>1765.6</ele>
        <time>2018-06-23T10:09:24Z</time>
      </trkpt>
      <trkpt lat="45.23836" lon="6.73217">
        <ele>1765.6</ele>
        <time>2018-06-23T10:09:25Z</time>
      </trkpt>
      <trkpt lat="45.23839" lon="6.73224">
        <ele>1767.52</ele>
        <time>2018-06-23T10:09:34Z</time>
      </trkpt>
      <trkpt lat="45.23839" lon="6.73226">
        <ele>1767.52</ele>
        <time>2018-06-23T10:09:35Z</time>
      </trkpt>
      <trkpt lat="45.2384" lon="6.73227">
        <ele>1767.52</ele>
        <time>2018-06-23T10:09:36Z</time>
      </trkpt>
      <trkpt lat="45.23841" lon="6.73229">
        <ele>1768</ele>
        <time>2018-06-23T10:09:37Z</time>
      </trkpt>
      <trkpt lat="45.23842" lon="6.7323">
        <ele>1768</ele>
        <time>2018-06-23T10:09:38Z</time>
      </trkpt>
      <trkpt lat="45.23843" lon="6.73232">
        <ele>1768.48</ele>
        <time>2018-06-23T10:09:42Z</time>
      </trkpt>
      <trkpt lat="45.23844" lon="6.73234">
        <ele>1768.96</ele>
        <time>2018-06-23T10:09:43Z</time>
      </trkpt>
      <trkpt lat="45.2385" lon="6.73243">
        <ele>1770.89</ele>
        <time>2018-06-23T10:09:53Z</time>
      </trkpt>
      <trkpt lat="45.23854" lon="6.73248">
        <ele>1771.85</ele>
        <time>2018-06-23T10:09:58Z</time>
      </trkpt>
      <trkpt lat="45.23855" lon="6.73249">
        <ele>1771.85</ele>
        <time>2018-06-23T10:09:59Z</time>
      </trkpt>
      <trkpt lat="45.23859" lon="6.73254">
        <ele>1772.33</ele>
        <time>2018-06-23T10:10:08Z</time>
      </trkpt>
      <trkpt lat="45.2386" lon="6.73259">
        <ele>1773.77</ele>
        <time>2018-06-23T10:10:13Z</time>
      </trkpt>
      <trkpt lat="45.23864" lon="6.73271">
        <ele>1775.69</ele>
        <time>2018-06-23T10:10:25Z</time>
      </trkpt>
      <trkpt lat="45.23873" lon="6.73277">
        <ele>1778.58</ele>
        <time>2018-06-23T10:10:40Z</time>
      </trkpt>
      <trkpt lat="45.23877" lon="6.73278">
        <ele>1780.02</ele>
        <time>2018-06-23T10:10:45Z</time>
      </trkpt>
      <trkpt lat="45.23878" lon="6.73278">
        <ele>1780.02</ele>
        <time>2018-06-23T10:10:46Z</time>
      </trkpt>
      <trkpt lat="45.23889" lon="6.7328">
        <ele>1782.9</ele>
        <time>2018-06-23T10:10:55Z</time>
      </trkpt>
      <trkpt lat="45.2389" lon="6.73282">
        <ele>1783.38</ele>
        <time>2018-06-23T10:10:58Z</time>
      </trkpt>
      <trkpt lat="45.23891" lon="6.73283">
        <ele>1783.86</ele>
        <time>2018-06-23T10:10:59Z</time>
      </trkpt>
      <trkpt lat="45.23898" lon="6.73288">
        <ele>1785.31</ele>
        <time>2018-06-23T10:11:09Z</time>
      </trkpt>
      <trkpt lat="45.23908" lon="6.7329">
        <ele>1787.71</ele>
        <time>2018-06-23T10:11:21Z</time>
      </trkpt>
      <trkpt lat="45.2391" lon="6.7329">
        <ele>1788.19</ele>
        <time>2018-06-23T10:11:29Z</time>
      </trkpt>
      <trkpt lat="45.2391" lon="6.73289">
        <ele>1788.67</ele>
        <time>2018-06-23T10:11:30Z</time>
      </trkpt>
      <trkpt lat="45.23911" lon="6.73288">
        <ele>1789.15</ele>
        <time>2018-06-23T10:11:31Z</time>
      </trkpt>
      <trkpt lat="45.23914" lon="6.73285">
        <ele>1790.11</ele>
        <time>2018-06-23T10:11:43Z</time>
      </trkpt>
      <trkpt lat="45.23919" lon="6.73282">
        <ele>1791.55</ele>
        <time>2018-06-23T10:11:56Z</time>
      </trkpt>
      <trkpt lat="45.23923" lon="6.73281">
        <ele>1793</ele>
        <time>2018-06-23T10:12:03Z</time>
      </trkpt>
      <trkpt lat="45.23925" lon="6.7328">
        <ele>1793</ele>
        <time>2018-06-23T10:12:04Z</time>
      </trkpt>
      <trkpt lat="45.2393" lon="6.73278">
        <ele>1794.44</ele>
        <time>2018-06-23T10:12:11Z</time>
      </trkpt>
      <trkpt lat="45.23934" lon="6.73273">
        <ele>1795.88</ele>
        <time>2018-06-23T10:12:21Z</time>
      </trkpt>
      <trkpt lat="45.23939" lon="6.73269">
        <ele>1797.32</ele>
        <time>2018-06-23T10:12:33Z</time>
      </trkpt>
      <trkpt lat="45.23945" lon="6.73261">
        <ele>1798.76</ele>
        <time>2018-06-23T10:12:42Z</time>
      </trkpt>
      <trkpt lat="45.23947" lon="6.73257">
        <ele>1799.73</ele>
        <time>2018-06-23T10:12:47Z</time>
      </trkpt>
      <trkpt lat="45.2395" lon="6.73253">
        <ele>1800.69</ele>
        <time>2018-06-23T10:12:52Z</time>
      </trkpt>
      <trkpt lat="45.23953" lon="6.73249">
        <ele>1801.65</ele>
        <time>2018-06-23T10:12:56Z</time>
      </trkpt>
      <trkpt lat="45.23954" lon="6.73248">
        <ele>1801.65</ele>
        <time>2018-06-23T10:12:57Z</time>
      </trkpt>
      <trkpt lat="45.23956" lon="6.73246">
        <ele>1802.13</ele>
        <time>2018-06-23T10:13:01Z</time>
      </trkpt>
      <trkpt lat="45.23957" lon="6.73245">
        <ele>1802.13</ele>
        <time>2018-06-23T10:13:02Z</time>
      </trkpt>
      <trkpt lat="45.23963" lon="6.7324">
        <ele>1803.57</ele>
        <time>2018-06-23T10:13:11Z</time>
      </trkpt>
      <trkpt lat="45.23964" lon="6.73239">
        <ele>1804.05</ele>
        <time>2018-06-23T10:13:12Z</time>
      </trkpt>
      <trkpt lat="45.23966" lon="6.73238">
        <ele>1805.01</ele>
        <time>2018-06-23T10:13:17Z</time>
      </trkpt>
      <trkpt lat="45.23968" lon="6.73237">
        <ele>1805.49</ele>
        <time>2018-06-23T10:13:18Z</time>
      </trkpt>
      <trkpt lat="45.23969" lon="6.73236">
        <ele>1805.49</ele>
        <time>2018-06-23T10:13:19Z</time>
      </trkpt>
      <trkpt lat="45.23974" lon="6.73232">
        <ele>1806.94</ele>
        <time>2018-06-23T10:13:26Z</time>
      </trkpt>
      <trkpt lat="45.23975" lon="6.73231">
        <ele>1807.42</ele>
        <time>2018-06-23T10:13:27Z</time>
      </trkpt>
      <trkpt lat="45.23986" lon="6.73225">
        <ele>1809.82</ele>
        <time>2018-06-23T10:13:39Z</time>
      </trkpt>
      <trkpt lat="45.23987" lon="6.73225">
        <ele>1809.82</ele>
        <time>2018-06-23T10:13:40Z</time>
      </trkpt>
      <trkpt lat="45.23995" lon="6.73222">
        <ele>1813.18</ele>
        <time>2018-06-23T10:13:51Z</time>
      </trkpt>
      <trkpt lat="45.24002" lon="6.73223">
        <ele>1813.66</ele>
        <time>2018-06-23T10:14:01Z</time>
      </trkpt>
      <trkpt lat="45.24005" lon="6.73224">
        <ele>1814.15</ele>
        <time>2018-06-23T10:14:05Z</time>
      </trkpt>
      <trkpt lat="45.24006" lon="6.73224">
        <ele>1815.11</ele>
        <time>2018-06-23T10:14:06Z</time>
      </trkpt>
      <trkpt lat="45.24008" lon="6.73225">
        <ele>1815.11</ele>
        <time>2018-06-23T10:14:07Z</time>
      </trkpt>
      <trkpt lat="45.24009" lon="6.73228">
        <ele>1816.07</ele>
        <time>2018-06-23T10:14:17Z</time>
      </trkpt>
      <trkpt lat="45.24014" lon="6.73227">
        <ele>1817.03</ele>
        <time>2018-06-23T10:14:23Z</time>
      </trkpt>
      <trkpt lat="45.24027" lon="6.7322">
        <ele>1819.91</ele>
        <time>2018-06-23T10:14:36Z</time>
      </trkpt>
      <trkpt lat="45.24039" lon="6.73211">
        <ele>1822.8</ele>
        <time>2018-06-23T10:14:50Z</time>
      </trkpt>
      <trkpt lat="45.24041" lon="6.73211">
        <ele>1823.28</ele>
        <time>2018-06-23T10:14:52Z</time>
      </trkpt>
      <trkpt lat="45.24042" lon="6.73211">
        <ele>1823.28</ele>
        <time>2018-06-23T10:14:53Z</time>
      </trkpt>
      <trkpt lat="45.24047" lon="6.73209">
        <ele>1824.72</ele>
        <time>2018-06-23T10:14:59Z</time>
      </trkpt>
      <trkpt lat="45.24048" lon="6.73208">
        <ele>1824.72</ele>
        <time>2018-06-23T10:15:00Z</time>
      </trkpt>
      <trkpt lat="45.24062" lon="6.73202">
        <ele>1828.08</ele>
        <time>2018-06-23T10:15:14Z</time>
      </trkpt>
      <trkpt lat="45.24064" lon="6.73201">
        <ele>1829.53</ele>
        <time>2018-06-23T10:15:22Z</time>
      </trkpt>
      <trkpt lat="45.24066" lon="6.732">
        <ele>1829.53</ele>
        <time>2018-06-23T10:15:23Z</time>
      </trkpt>
      <trkpt lat="45.24067" lon="6.732">
        <ele>1830.01</ele>
        <time>2018-06-23T10:15:24Z</time>
      </trkpt>
      <trkpt lat="45.24076" lon="6.73195">
        <ele>1833.37</ele>
        <time>2018-06-23T10:15:34Z</time>
      </trkpt>
      <trkpt lat="45.24084" lon="6.73194">
        <ele>1836.26</ele>
        <time>2018-06-23T10:15:46Z</time>
      </trkpt>
      <trkpt lat="45.24088" lon="6.73189">
        <ele>1837.7</ele>
        <time>2018-06-23T10:16:02Z</time>
      </trkpt>
      <trkpt lat="45.24089" lon="6.7319">
        <ele>1837.7</ele>
        <time>2018-06-23T10:16:09Z</time>
      </trkpt>
      <trkpt lat="45.24088" lon="6.73188">
        <ele>1837.7</ele>
        <time>2018-06-23T10:16:13Z</time>
      </trkpt>
      <trkpt lat="45.24091" lon="6.73187">
        <ele>1837.7</ele>
        <time>2018-06-23T10:16:19Z</time>
      </trkpt>
      <trkpt lat="45.24093" lon="6.73187">
        <ele>1839.62</ele>
        <time>2018-06-23T10:16:30Z</time>
      </trkpt>
      <trkpt lat="45.24103" lon="6.73186">
        <ele>1842.5</ele>
        <time>2018-06-23T10:16:46Z</time>
      </trkpt>
      <trkpt lat="45.2411" lon="6.73181">
        <ele>1844.91</ele>
        <time>2018-06-23T10:17:00Z</time>
      </trkpt>
      <trkpt lat="45.24113" lon="6.7318">
        <ele>1845.87</ele>
        <time>2018-06-23T10:17:05Z</time>
      </trkpt>
      <trkpt lat="45.24126" lon="6.73173">
        <ele>1847.79</ele>
        <time>2018-06-23T10:17:22Z</time>
      </trkpt>
      <trkpt lat="45.24125" lon="6.73171">
        <ele>1848.27</ele>
        <time>2018-06-23T10:17:39Z</time>
      </trkpt>
      <trkpt lat="45.24117" lon="6.73173">
        <ele>1848.27</ele>
        <time>2018-06-23T10:18:01Z</time>
      </trkpt>
      <trkpt lat="45.2412" lon="6.73172">
        <ele>1847.31</ele>
        <time>2018-06-23T10:18:11Z</time>
      </trkpt>
      <trkpt lat="45.24117" lon="6.73171">
        <ele>1845.87</ele>
        <time>2018-06-23T10:18:32Z</time>
      </trkpt>
      <trkpt lat="45.24117" lon="6.73172">
        <ele>1846.83</ele>
        <time>2018-06-23T10:18:56Z</time>
      </trkpt>
      <trkpt lat="45.24119" lon="6.73173">
        <ele>1847.79</ele>
        <time>2018-06-23T10:19:19Z</time>
      </trkpt>
      <trkpt lat="45.24122" lon="6.73174">
        <ele>1847.79</ele>
        <time>2018-06-23T10:19:37Z</time>
      </trkpt>
      <trkpt lat="45.24122" lon="6.73178">
        <ele>1846.83</ele>
        <time>2018-06-23T10:19:51Z</time>
      </trkpt>
      <trkpt lat="45.24126" lon="6.73176">
        <ele>1848.27</ele>
        <time>2018-06-23T10:20:03Z</time>
      </trkpt>
      <trkpt lat="45.24123" lon="6.73176">
        <ele>1848.27</ele>
        <time>2018-06-23T10:20:24Z</time>
      </trkpt>
      <trkpt lat="45.24121" lon="6.73174">
        <ele>1848.75</ele>
        <time>2018-06-23T10:20:46Z</time>
      </trkpt>
      <trkpt lat="45.24119" lon="6.7317">
        <ele>1848.75</ele>
        <time>2018-06-23T10:21:00Z</time>
      </trkpt>
      <trkpt lat="45.2412" lon="6.73168">
        <ele>1847.31</ele>
        <time>2018-06-23T10:21:21Z</time>
      </trkpt>
      <trkpt lat="45.24123" lon="6.73173">
        <ele>1848.75</ele>
        <time>2018-06-23T10:21:38Z</time>
      </trkpt>
      <trkpt lat="45.24119" lon="6.73172">
        <ele>1847.31</ele>
        <time>2018-06-23T10:21:55Z</time>
      </trkpt>
      <trkpt lat="45.24121" lon="6.73173">
        <ele>1847.79</ele>
        <time>2018-06-23T10:22:23Z</time>
      </trkpt>
      <trkpt lat="45.24119" lon="6.73175">
        <ele>1848.75</ele>
        <time>2018-06-23T10:22:40Z</time>
      </trkpt>
      <trkpt lat="45.24124" lon="6.73172">
        <ele>1849.23</ele>
        <time>2018-06-23T10:22:55Z</time>
      </trkpt>
      <trkpt lat="45.24129" lon="6.7317">
        <ele>1851.16</ele>
        <time>2018-06-23T10:23:05Z</time>
      </trkpt>
      <trkpt lat="45.24136" lon="6.73172">
        <ele>1853.08</ele>
        <time>2018-06-23T10:23:22Z</time>
      </trkpt>
      <trkpt lat="45.24145" lon="6.7317">
        <ele>1855.48</ele>
        <time>2018-06-23T10:23:35Z</time>
      </trkpt>
      <trkpt lat="45.24152" lon="6.73167">
        <ele>1856.44</ele>
        <time>2018-06-23T10:23:40Z</time>
      </trkpt>
      <trkpt lat="45.24158" lon="6.73163">
        <ele>1857.89</ele>
        <time>2018-06-23T10:23:47Z</time>
      </trkpt>
      <trkpt lat="45.24168" lon="6.73157">
        <ele>1860.29</ele>
        <time>2018-06-23T10:23:57Z</time>
      </trkpt>
      <trkpt lat="45.24171" lon="6.73153">
        <ele>1861.25</ele>
        <time>2018-06-23T10:24:04Z</time>
      </trkpt>
      <trkpt lat="45.24179" lon="6.73151">
        <ele>1863.17</ele>
        <time>2018-06-23T10:24:14Z</time>
      </trkpt>
      <trkpt lat="45.2418" lon="6.73151">
        <ele>1863.65</ele>
        <time>2018-06-23T10:24:15Z</time>
      </trkpt>
      <trkpt lat="45.24184" lon="6.7315">
        <ele>1864.61</ele>
        <time>2018-06-23T10:24:21Z</time>
      </trkpt>
      <trkpt lat="45.24187" lon="6.73148">
        <ele>1866.54</ele>
        <time>2018-06-23T10:24:28Z</time>
      </trkpt>
      <trkpt lat="45.24199" lon="6.73151">
        <ele>1868.46</ele>
        <time>2018-06-23T10:24:39Z</time>
      </trkpt>
      <trkpt lat="45.24199" lon="6.73151">
        <ele>1867.98</ele>
        <time>2018-06-23T10:24:40Z</time>
      </trkpt>
      <trkpt lat="45.24202" lon="6.73146">
        <ele>1868.94</ele>
        <time>2018-06-23T10:24:43Z</time>
      </trkpt>
      <trkpt lat="45.24204" lon="6.73138">
        <ele>1868.94</ele>
        <time>2018-06-23T10:24:48Z</time>
      </trkpt>
      <trkpt lat="45.24215" lon="6.73135">
        <ele>1870.86</ele>
        <time>2018-06-23T10:25:00Z</time>
      </trkpt>
      <trkpt lat="45.24218" lon="6.73134">
        <ele>1870.86</ele>
        <time>2018-06-23T10:25:04Z</time>
      </trkpt>
      <trkpt lat="45.24226" lon="6.73129">
        <ele>1874.23</ele>
        <time>2018-06-23T10:25:17Z</time>
      </trkpt>
      <trkpt lat="45.24229" lon="6.73128">
        <ele>1874.71</ele>
        <time>2018-06-23T10:25:20Z</time>
      </trkpt>
      <trkpt lat="45.24233" lon="6.73124">
        <ele>1875.67</ele>
        <time>2018-06-23T10:25:23Z</time>
      </trkpt>
      <trkpt lat="45.24247" lon="6.73113">
        <ele>1878.55</ele>
        <time>2018-06-23T10:25:36Z</time>
      </trkpt>
      <trkpt lat="45.2425" lon="6.73112">
        <ele>1878.55</ele>
        <time>2018-06-23T10:25:38Z</time>
      </trkpt>
      <trkpt lat="45.24253" lon="6.7311">
        <ele>1880</ele>
        <time>2018-06-23T10:25:41Z</time>
      </trkpt>
      <trkpt lat="45.24261" lon="6.73108">
        <ele>1881.44</ele>
        <time>2018-06-23T10:25:49Z</time>
      </trkpt>
      <trkpt lat="45.24277" lon="6.73107">
        <ele>1884.8</ele>
        <time>2018-06-23T10:26:01Z</time>
      </trkpt>
      <trkpt lat="45.24282" lon="6.73101">
        <ele>1887.21</ele>
        <time>2018-06-23T10:26:08Z</time>
      </trkpt>
      <trkpt lat="45.24285" lon="6.73097">
        <ele>1888.17</ele>
        <time>2018-06-23T10:26:12Z</time>
      </trkpt>
      <trkpt lat="45.24299" lon="6.73087">
        <ele>1891.05</ele>
        <time>2018-06-23T10:26:26Z</time>
      </trkpt>
      <trkpt lat="45.24307" lon="6.73081">
        <ele>1892.49</ele>
        <time>2018-06-23T10:26:35Z</time>
      </trkpt>
      <trkpt lat="45.24312" lon="6.73067">
        <ele>1892.49</ele>
        <time>2018-06-23T10:26:45Z</time>
      </trkpt>
      <trkpt lat="45.24321" lon="6.73047">
        <ele>1895.38</ele>
        <time>2018-06-23T10:26:59Z</time>
      </trkpt>
      <trkpt lat="45.24325" lon="6.73043">
        <ele>1896.34</ele>
        <time>2018-06-23T10:27:03Z</time>
      </trkpt>
      <trkpt lat="45.24327" lon="6.73034">
        <ele>1898.74</ele>
        <time>2018-06-23T10:27:17Z</time>
      </trkpt>
      <trkpt lat="45.24333" lon="6.73031">
        <ele>1900.18</ele>
        <time>2018-06-23T10:27:31Z</time>
      </trkpt>
      <trkpt lat="45.24334" lon="6.73028">
        <ele>1900.18</ele>
        <time>2018-06-23T10:27:34Z</time>
      </trkpt>
      <trkpt lat="45.24337" lon="6.73018">
        <ele>1903.07</ele>
        <time>2018-06-23T10:27:47Z</time>
      </trkpt>
      <trkpt lat="45.24337" lon="6.73008">
        <ele>1905.95</ele>
        <time>2018-06-23T10:27:59Z</time>
      </trkpt>
      <trkpt lat="45.24344" lon="6.73">
        <ele>1909.32</ele>
        <time>2018-06-23T10:28:10Z</time>
      </trkpt>
      <trkpt lat="45.24349" lon="6.72993">
        <ele>1911.72</ele>
        <time>2018-06-23T10:28:23Z</time>
      </trkpt>
      <trkpt lat="45.24352" lon="6.72985">
        <ele>1914.12</ele>
        <time>2018-06-23T10:28:34Z</time>
      </trkpt>
      <trkpt lat="45.24359" lon="6.72976">
        <ele>1917.49</ele>
        <time>2018-06-23T10:28:47Z</time>
      </trkpt>
      <trkpt lat="45.24366" lon="6.72969">
        <ele>1919.89</ele>
        <time>2018-06-23T10:29:00Z</time>
      </trkpt>
      <trkpt lat="45.24367" lon="6.72964">
        <ele>1920.85</ele>
        <time>2018-06-23T10:29:12Z</time>
      </trkpt>
      <trkpt lat="45.24374" lon="6.72951">
        <ele>1924.22</ele>
        <time>2018-06-23T10:29:23Z</time>
      </trkpt>
      <trkpt lat="45.24383" lon="6.7294">
        <ele>1927.58</ele>
        <time>2018-06-23T10:29:38Z</time>
      </trkpt>
      <trkpt lat="45.24386" lon="6.72937">
        <ele>1928.06</ele>
        <time>2018-06-23T10:29:41Z</time>
      </trkpt>
      <trkpt lat="45.24386" lon="6.7294">
        <ele>1928.54</ele>
        <time>2018-06-23T10:29:52Z</time>
      </trkpt>
      <trkpt lat="45.24384" lon="6.7294">
        <ele>1929.02</ele>
        <time>2018-06-23T10:30:16Z</time>
      </trkpt>
      <trkpt lat="45.24392" lon="6.72941">
        <ele>1929.98</ele>
        <time>2018-06-23T10:30:43Z</time>
      </trkpt>
      <trkpt lat="45.24387" lon="6.72944">
        <ele>1929.98</ele>
        <time>2018-06-23T10:31:07Z</time>
      </trkpt>
      <trkpt lat="45.24377" lon="6.72948">
        <ele>1930.46</ele>
        <time>2018-06-23T10:31:31Z</time>
      </trkpt>
      <trkpt lat="45.2438" lon="6.72945">
        <ele>1930.95</ele>
        <time>2018-06-23T10:31:56Z</time>
      </trkpt>
      <trkpt lat="45.24381" lon="6.72946">
        <ele>1931.43</ele>
        <time>2018-06-23T10:32:25Z</time>
      </trkpt>
      <trkpt lat="45.24386" lon="6.72935">
        <ele>1930.46</ele>
        <time>2018-06-23T10:32:50Z</time>
      </trkpt>
      <trkpt lat="45.24395" lon="6.72938">
        <ele>1930.95</ele>
        <time>2018-06-23T10:33:20Z</time>
      </trkpt>
      <trkpt lat="45.24396" lon="6.72938">
        <ele>1930.95</ele>
        <time>2018-06-23T10:33:22Z</time>
      </trkpt>
      <trkpt lat="45.24393" lon="6.7294">
        <ele>1930.95</ele>
        <time>2018-06-23T10:33:31Z</time>
      </trkpt>
      <trkpt lat="45.24376" lon="6.72942">
        <ele>1931.43</ele>
        <time>2018-06-23T10:33:55Z</time>
      </trkpt>
      <trkpt lat="45.24381" lon="6.72939">
        <ele>1932.87</ele>
        <time>2018-06-23T10:34:03Z</time>
      </trkpt>
      <trkpt lat="45.24389" lon="6.72929">
        <ele>1936.23</ele>
        <time>2018-06-23T10:34:16Z</time>
      </trkpt>
      <trkpt lat="45.24396" lon="6.72924">
        <ele>1939.12</ele>
        <time>2018-06-23T10:34:38Z</time>
      </trkpt>
      <trkpt lat="45.24399" lon="6.72922">
        <ele>1939.12</ele>
        <time>2018-06-23T10:34:45Z</time>
      </trkpt>
      <trkpt lat="45.24401" lon="6.72912">
        <ele>1941.04</ele>
        <time>2018-06-23T10:35:00Z</time>
      </trkpt>
      <trkpt lat="45.24402" lon="6.72904">
        <ele>1942</ele>
        <time>2018-06-23T10:35:30Z</time>
      </trkpt>
      <trkpt lat="45.24407" lon="6.72903">
        <ele>1942.96</ele>
        <time>2018-06-23T10:35:50Z</time>
      </trkpt>
      <trkpt lat="45.24414" lon="6.72894">
        <ele>1946.33</ele>
        <time>2018-06-23T10:36:07Z</time>
      </trkpt>
      <trkpt lat="45.24427" lon="6.72884">
        <ele>1949.69</ele>
        <time>2018-06-23T10:36:26Z</time>
      </trkpt>
      <trkpt lat="45.24432" lon="6.72874">
        <ele>1951.61</ele>
        <time>2018-06-23T10:36:47Z</time>
      </trkpt>
      <trkpt lat="45.24431" lon="6.72872">
        <ele>1952.09</ele>
        <time>2018-06-23T10:37:07Z</time>
      </trkpt>
      <trkpt lat="45.24433" lon="6.7287">
        <ele>1954.02</ele>
        <time>2018-06-23T10:37:22Z</time>
      </trkpt>
      <trkpt lat="45.24434" lon="6.72864">
        <ele>1954.98</ele>
        <time>2018-06-23T10:37:24Z</time>
      </trkpt>
      <trkpt lat="45.2444" lon="6.72847">
        <ele>1958.82</ele>
        <time>2018-06-23T10:37:29Z</time>
      </trkpt>
      <trkpt lat="45.24441" lon="6.72845">
        <ele>1958.82</ele>
        <time>2018-06-23T10:37:30Z</time>
      </trkpt>
      <trkpt lat="45.24442" lon="6.72831">
        <ele>1960.27</ele>
        <time>2018-06-23T10:37:46Z</time>
      </trkpt>
      <trkpt lat="45.24443" lon="6.72825">
        <ele>1962.67</ele>
        <time>2018-06-23T10:37:55Z</time>
      </trkpt>
      <trkpt lat="45.24443" lon="6.72817">
        <ele>1964.59</ele>
        <time>2018-06-23T10:38:05Z</time>
      </trkpt>
      <trkpt lat="45.24444" lon="6.72814">
        <ele>1965.55</ele>
        <time>2018-06-23T10:38:08Z</time>
      </trkpt>
      <trkpt lat="45.24444" lon="6.72812">
        <ele>1965.55</ele>
        <time>2018-06-23T10:38:09Z</time>
      </trkpt>
      <trkpt lat="45.24445" lon="6.7281">
        <ele>1966.03</ele>
        <time>2018-06-23T10:38:13Z</time>
      </trkpt>
      <trkpt lat="45.24446" lon="6.72809">
        <ele>1966.99</ele>
        <time>2018-06-23T10:38:14Z</time>
      </trkpt>
      <trkpt lat="45.2445" lon="6.72804">
        <ele>1967.96</ele>
        <time>2018-06-23T10:38:25Z</time>
      </trkpt>
      <trkpt lat="45.2445" lon="6.72803">
        <ele>1968.92</ele>
        <time>2018-06-23T10:38:28Z</time>
      </trkpt>
      <trkpt lat="45.24452" lon="6.72797">
        <ele>1969.88</ele>
        <time>2018-06-23T10:38:38Z</time>
      </trkpt>
      <trkpt lat="45.24449" lon="6.72797">
        <ele>1969.88</ele>
        <time>2018-06-23T10:38:41Z</time>
      </trkpt>
      <trkpt lat="45.24451" lon="6.72797">
        <ele>1970.36</ele>
        <time>2018-06-23T10:38:50Z</time>
      </trkpt>
      <trkpt lat="45.24455" lon="6.72794">
        <ele>1970.84</ele>
        <time>2018-06-23T10:38:55Z</time>
      </trkpt>
      <trkpt lat="45.24455" lon="6.72792">
        <ele>1971.8</ele>
        <time>2018-06-23T10:39:05Z</time>
      </trkpt>
      <trkpt lat="45.24458" lon="6.72791">
        <ele>1973.24</ele>
        <time>2018-06-23T10:39:12Z</time>
      </trkpt>
      <trkpt lat="45.24459" lon="6.7279">
        <ele>1973.24</ele>
        <time>2018-06-23T10:39:13Z</time>
      </trkpt>
      <trkpt lat="45.24461" lon="6.7279">
        <ele>1973.24</ele>
        <time>2018-06-23T10:39:14Z</time>
      </trkpt>
      <trkpt lat="45.24467" lon="6.7279">
        <ele>1975.17</ele>
        <time>2018-06-23T10:39:23Z</time>
      </trkpt>
      <trkpt lat="45.24468" lon="6.7279">
        <ele>1976.13</ele>
        <time>2018-06-23T10:39:24Z</time>
      </trkpt>
      <trkpt lat="45.24469" lon="6.7279">
        <ele>1976.13</ele>
        <time>2018-06-23T10:39:25Z</time>
      </trkpt>
      <trkpt lat="45.24474" lon="6.7279">
        <ele>1978.05</ele>
        <time>2018-06-23T10:39:30Z</time>
      </trkpt>
      <trkpt lat="45.24476" lon="6.72789">
        <ele>1978.05</ele>
        <time>2018-06-23T10:39:31Z</time>
      </trkpt>
      <trkpt lat="45.2448" lon="6.72789">
        <ele>1979.49</ele>
        <time>2018-06-23T10:39:36Z</time>
      </trkpt>
      <trkpt lat="45.24482" lon="6.72789">
        <ele>1979.97</ele>
        <time>2018-06-23T10:39:37Z</time>
      </trkpt>
      <trkpt lat="45.24484" lon="6.72788">
        <ele>1980.45</ele>
        <time>2018-06-23T10:39:38Z</time>
      </trkpt>
      <trkpt lat="45.24486" lon="6.72788">
        <ele>1980.93</ele>
        <time>2018-06-23T10:39:39Z</time>
      </trkpt>
      <trkpt lat="45.24487" lon="6.72789">
        <ele>1981.9</ele>
        <time>2018-06-23T10:39:44Z</time>
      </trkpt>
      <trkpt lat="45.24488" lon="6.72788">
        <ele>1982.38</ele>
        <time>2018-06-23T10:39:52Z</time>
      </trkpt>
      <trkpt lat="45.24489" lon="6.72788">
        <ele>1982.86</ele>
        <time>2018-06-23T10:39:53Z</time>
      </trkpt>
      <trkpt lat="45.2449" lon="6.72788">
        <ele>1983.34</ele>
        <time>2018-06-23T10:39:54Z</time>
      </trkpt>
      <trkpt lat="45.24492" lon="6.72787">
        <ele>1983.82</ele>
        <time>2018-06-23T10:39:56Z</time>
      </trkpt>
      <trkpt lat="45.24493" lon="6.72786">
        <ele>1983.82</ele>
        <time>2018-06-23T10:39:57Z</time>
      </trkpt>
      <trkpt lat="45.24495" lon="6.72787">
        <ele>1985.74</ele>
        <time>2018-06-23T10:40:03Z</time>
      </trkpt>
      <trkpt lat="45.24496" lon="6.72787">
        <ele>1985.74</ele>
        <time>2018-06-23T10:40:04Z</time>
      </trkpt>
      <trkpt lat="45.24505" lon="6.72788">
        <ele>1988.62</ele>
        <time>2018-06-23T10:40:15Z</time>
      </trkpt>
      <trkpt lat="45.24514" lon="6.72788">
        <ele>1990.07</ele>
        <time>2018-06-23T10:40:21Z</time>
      </trkpt>
      <trkpt lat="45.24515" lon="6.72785">
        <ele>1991.03</ele>
        <time>2018-06-23T10:40:31Z</time>
      </trkpt>
      <trkpt lat="45.24514" lon="6.72785">
        <ele>1991.51</ele>
        <time>2018-06-23T10:40:35Z</time>
      </trkpt>
      <trkpt lat="45.24515" lon="6.72781">
        <ele>1991.51</ele>
        <time>2018-06-23T10:40:47Z</time>
      </trkpt>
      <trkpt lat="45.24521" lon="6.72775">
        <ele>1993.91</ele>
        <time>2018-06-23T10:41:03Z</time>
      </trkpt>
      <trkpt lat="45.24523" lon="6.72771">
        <ele>1995.35</ele>
        <time>2018-06-23T10:41:08Z</time>
      </trkpt>
      <trkpt lat="45.24527" lon="6.72765">
        <ele>1997.28</ele>
        <time>2018-06-23T10:41:13Z</time>
      </trkpt>
      <trkpt lat="45.24531" lon="6.7276">
        <ele>1998.72</ele>
        <time>2018-06-23T10:41:17Z</time>
      </trkpt>
      <trkpt lat="45.24537" lon="6.72748">
        <ele>2002.08</ele>
        <time>2018-06-23T10:41:26Z</time>
      </trkpt>
      <trkpt lat="45.2454" lon="6.72736">
        <ele>2003.04</ele>
        <time>2018-06-23T10:41:39Z</time>
      </trkpt>
      <trkpt lat="45.2454" lon="6.72737">
        <ele>2003.52</ele>
        <time>2018-06-23T10:41:51Z</time>
      </trkpt>
      <trkpt lat="45.24541" lon="6.72734">
        <ele>2004.01</ele>
        <time>2018-06-23T10:42:05Z</time>
      </trkpt>
      <trkpt lat="45.24543" lon="6.72735">
        <ele>2004.01</ele>
        <time>2018-06-23T10:42:18Z</time>
      </trkpt>
      <trkpt lat="45.2454" lon="6.72737">
        <ele>2003.04</ele>
        <time>2018-06-23T10:42:34Z</time>
      </trkpt>
      <trkpt lat="45.24541" lon="6.72737">
        <ele>2003.04</ele>
        <time>2018-06-23T10:42:43Z</time>
      </trkpt>
      <trkpt lat="45.24541" lon="6.72736">
        <ele>2003.04</ele>
        <time>2018-06-23T10:42:51Z</time>
      </trkpt>
      <trkpt lat="45.24541" lon="6.72727">
        <ele>2003.04</ele>
        <time>2018-06-23T10:42:55Z</time>
      </trkpt>
      <trkpt lat="45.24539" lon="6.72719">
        <ele>2003.04</ele>
        <time>2018-06-23T10:43:05Z</time>
      </trkpt>
      <trkpt lat="45.24537" lon="6.72714">
        <ele>2003.04</ele>
        <time>2018-06-23T10:43:10Z</time>
      </trkpt>
      <trkpt lat="45.24534" lon="6.72698">
        <ele>2003.04</ele>
        <time>2018-06-23T10:43:24Z</time>
      </trkpt>
      <trkpt lat="45.24528" lon="6.72681">
        <ele>2004.01</ele>
        <time>2018-06-23T10:43:37Z</time>
      </trkpt>
      <trkpt lat="45.24522" lon="6.72663">
        <ele>2004.01</ele>
        <time>2018-06-23T10:43:50Z</time>
      </trkpt>
      <trkpt lat="45.24521" lon="6.72646">
        <ele>2004.01</ele>
        <time>2018-06-23T10:44:02Z</time>
      </trkpt>
      <trkpt lat="45.24517" lon="6.72627">
        <ele>2004.97</ele>
        <time>2018-06-23T10:44:16Z</time>
      </trkpt>
      <trkpt lat="45.24518" lon="6.72619">
        <ele>2004.97</ele>
        <time>2018-06-23T10:44:22Z</time>
      </trkpt>
      <trkpt lat="45.24518" lon="6.72609">
        <ele>2004.97</ele>
        <time>2018-06-23T10:44:41Z</time>
      </trkpt>
      <trkpt lat="45.24524" lon="6.72607">
        <ele>2003.52</ele>
        <time>2018-06-23T10:45:20Z</time>
      </trkpt>
      <trkpt lat="45.24523" lon="6.72611">
        <ele>2003.52</ele>
        <time>2018-06-23T10:45:36Z</time>
      </trkpt>
      <trkpt lat="45.24523" lon="6.72609">
        <ele>2003.52</ele>
        <time>2018-06-23T10:45:55Z</time>
      </trkpt>
      <trkpt lat="45.2452" lon="6.72608">
        <ele>2003.52</ele>
        <time>2018-06-23T10:46:13Z</time>
      </trkpt>
      <trkpt lat="45.24518" lon="6.72608">
        <ele>2003.52</ele>
        <time>2018-06-23T10:46:31Z</time>
      </trkpt>
      <trkpt lat="45.24517" lon="6.72607">
        <ele>2003.52</ele>
        <time>2018-06-23T10:46:48Z</time>
      </trkpt>
      <trkpt lat="45.24514" lon="6.72607">
        <ele>2003.52</ele>
        <time>2018-06-23T10:47:17Z</time>
      </trkpt>
      <trkpt lat="45.24512" lon="6.72608">
        <ele>2004.49</ele>
        <time>2018-06-23T10:47:52Z</time>
      </trkpt>
      <trkpt lat="45.24512" lon="6.72607">
        <ele>2004.97</ele>
        <time>2018-06-23T10:48:19Z</time>
      </trkpt>
      <trkpt lat="45.24516" lon="6.72609">
        <ele>2004.97</ele>
        <time>2018-06-23T10:48:40Z</time>
      </trkpt>
      <trkpt lat="45.24516" lon="6.72607">
        <ele>2004.97</ele>
        <time>2018-06-23T10:49:07Z</time>
      </trkpt>
      <trkpt lat="45.24512" lon="6.72607">
        <ele>2004.97</ele>
        <time>2018-06-23T10:49:40Z</time>
      </trkpt>
      <trkpt lat="45.24512" lon="6.72607">
        <ele>2004.97</ele>
        <time>2018-06-23T10:50:03Z</time>
      </trkpt>
      <trkpt lat="45.24512" lon="6.72606">
        <ele>2004.97</ele>
        <time>2018-06-23T10:50:29Z</time>
      </trkpt>
      <trkpt lat="45.24511" lon="6.72607">
        <ele>2004.01</ele>
        <time>2018-06-23T10:50:54Z</time>
      </trkpt>
      <trkpt lat="45.24511" lon="6.72606">
        <ele>2004.01</ele>
        <time>2018-06-23T10:51:13Z</time>
      </trkpt>
      <trkpt lat="45.24512" lon="6.72606">
        <ele>2004.01</ele>
        <time>2018-06-23T10:51:31Z</time>
      </trkpt>
      <trkpt lat="45.24513" lon="6.72608">
        <ele>2004.01</ele>
        <time>2018-06-23T10:51:48Z</time>
      </trkpt>
      <trkpt lat="45.24513" lon="6.72605">
        <ele>2003.52</ele>
        <time>2018-06-23T10:52:12Z</time>
      </trkpt>
      <trkpt lat="45.24512" lon="6.72608">
        <ele>2003.52</ele>
        <time>2018-06-23T10:52:37Z</time>
      </trkpt>
      <trkpt lat="45.24513" lon="6.72607">
        <ele>2004.01</ele>
        <time>2018-06-23T10:53:07Z</time>
      </trkpt>
      <trkpt lat="45.24517" lon="6.72611">
        <ele>2004.01</ele>
        <time>2018-06-23T10:53:32Z</time>
      </trkpt>
      <trkpt lat="45.2452" lon="6.72609">
        <ele>2004.49</ele>
        <time>2018-06-23T10:53:43Z</time>
      </trkpt>
      <trkpt lat="45.24513" lon="6.72608">
        <ele>2004.49</ele>
        <time>2018-06-23T10:54:14Z</time>
      </trkpt>
      <trkpt lat="45.24512" lon="6.72608">
        <ele>2004.97</ele>
        <time>2018-06-23T10:54:49Z</time>
      </trkpt>
      <trkpt lat="45.24511" lon="6.72608">
        <ele>2004.49</ele>
        <time>2018-06-23T10:55:15Z</time>
      </trkpt>
      <trkpt lat="45.24512" lon="6.72608">
        <ele>2004.49</ele>
        <time>2018-06-23T10:55:39Z</time>
      </trkpt>
      <trkpt lat="45.24513" lon="6.72608">
        <ele>2004.49</ele>
        <time>2018-06-23T10:55:58Z</time>
      </trkpt>
      <trkpt lat="45.2452" lon="6.72615">
        <ele>2004.49</ele>
        <time>2018-06-23T10:56:09Z</time>
      </trkpt>
      <trkpt lat="45.24527" lon="6.72623">
        <ele>2004.49</ele>
        <time>2018-06-23T10:56:20Z</time>
      </trkpt>
      <trkpt lat="45.24534" lon="6.72628">
        <ele>2004.49</ele>
        <time>2018-06-23T10:56:25Z</time>
      </trkpt>
      <trkpt lat="45.24538" lon="6.72631">
        <ele>2005.93</ele>
        <time>2018-06-23T10:56:29Z</time>
      </trkpt>
      <trkpt lat="45.2454" lon="6.72632">
        <ele>2005.93</ele>
        <time>2018-06-23T10:56:31Z</time>
      </trkpt>
      <trkpt lat="45.24548" lon="6.72633">
        <ele>2006.89</ele>
        <time>2018-06-23T10:56:40Z</time>
      </trkpt>
      <trkpt lat="45.24559" lon="6.7264">
        <ele>2006.89</ele>
        <time>2018-06-23T10:56:50Z</time>
      </trkpt>
      <trkpt lat="45.24576" lon="6.72644">
        <ele>2007.37</ele>
        <time>2018-06-23T10:57:05Z</time>
      </trkpt>
      <trkpt lat="45.24591" lon="6.7265">
        <ele>2007.85</ele>
        <time>2018-06-23T10:57:18Z</time>
      </trkpt>
      <trkpt lat="45.2461" lon="6.72651">
        <ele>2008.33</ele>
        <time>2018-06-23T10:57:35Z</time>
      </trkpt>
      <trkpt lat="45.24626" lon="6.72648">
        <ele>2008.81</ele>
        <time>2018-06-23T10:57:50Z</time>
      </trkpt>
      <trkpt lat="45.24636" lon="6.72649">
        <ele>2008.81</ele>
        <time>2018-06-23T10:57:57Z</time>
      </trkpt>
      <trkpt lat="45.24655" lon="6.72642">
        <ele>2008.81</ele>
        <time>2018-06-23T10:58:15Z</time>
      </trkpt>
      <trkpt lat="45.24656" lon="6.72642">
        <ele>2008.81</ele>
        <time>2018-06-23T10:58:16Z</time>
      </trkpt>
      <trkpt lat="45.24684" lon="6.72646">
        <ele>2009.29</ele>
        <time>2018-06-23T10:58:35Z</time>
      </trkpt>
      <trkpt lat="45.24702" lon="6.72644">
        <ele>2009.77</ele>
        <time>2018-06-23T10:58:52Z</time>
      </trkpt>
      <trkpt lat="45.24717" lon="6.72643">
        <ele>2009.77</ele>
        <time>2018-06-23T10:59:08Z</time>
      </trkpt>
      <trkpt lat="45.24732" lon="6.72637">
        <ele>2010.25</ele>
        <time>2018-06-23T10:59:25Z</time>
      </trkpt>
      <trkpt lat="45.24742" lon="6.7263">
        <ele>2010.73</ele>
        <time>2018-06-23T10:59:40Z</time>
      </trkpt>
      <trkpt lat="45.24756" lon="6.72632">
        <ele>2010.73</ele>
        <time>2018-06-23T10:59:53Z</time>
      </trkpt>
      <trkpt lat="45.24783" lon="6.72631">
        <ele>2011.22</ele>
        <time>2018-06-23T11:00:11Z</time>
      </trkpt>
      <trkpt lat="45.24796" lon="6.7263">
        <ele>2011.7</ele>
        <time>2018-06-23T11:00:24Z</time>
      </trkpt>
      <trkpt lat="45.24801" lon="6.7263">
        <ele>2011.7</ele>
        <time>2018-06-23T11:00:28Z</time>
      </trkpt>
      <trkpt lat="45.24807" lon="6.72632">
        <ele>2011.7</ele>
        <time>2018-06-23T11:00:33Z</time>
      </trkpt>
      <trkpt lat="45.24821" lon="6.72634">
        <ele>2011.22</ele>
        <time>2018-06-23T11:00:46Z</time>
      </trkpt>
      <trkpt lat="45.24835" lon="6.72638">
        <ele>2011.22</ele>
        <time>2018-06-23T11:00:58Z</time>
      </trkpt>
      <trkpt lat="45.2484" lon="6.72638">
        <ele>2011.22</ele>
        <time>2018-06-23T11:01:03Z</time>
      </trkpt>
      <trkpt lat="45.24843" lon="6.72639">
        <ele>2011.22</ele>
        <time>2018-06-23T11:01:06Z</time>
      </trkpt>
      <trkpt lat="45.24849" lon="6.72638">
        <ele>2012.18</ele>
        <time>2018-06-23T11:01:11Z</time>
      </trkpt>
      <trkpt lat="45.24861" lon="6.72642">
        <ele>2012.18</ele>
        <time>2018-06-23T11:01:22Z</time>
      </trkpt>
      <trkpt lat="45.24874" lon="6.72647">
        <ele>2012.18</ele>
        <time>2018-06-23T11:01:35Z</time>
      </trkpt>
      <trkpt lat="45.24889" lon="6.72654">
        <ele>2012.18</ele>
        <time>2018-06-23T11:01:47Z</time>
      </trkpt>
      <trkpt lat="45.24896" lon="6.72656">
        <ele>2012.18</ele>
        <time>2018-06-23T11:01:54Z</time>
      </trkpt>
      <trkpt lat="45.24906" lon="6.72655">
        <ele>2012.66</ele>
        <time>2018-06-23T11:02:05Z</time>
      </trkpt>
      <trkpt lat="45.24916" lon="6.72651">
        <ele>2012.66</ele>
        <time>2018-06-23T11:02:20Z</time>
      </trkpt>
      <trkpt lat="45.24928" lon="6.72649">
        <ele>2013.14</ele>
        <time>2018-06-23T11:02:33Z</time>
      </trkpt>
      <trkpt lat="45.24929" lon="6.72649">
        <ele>2012.66</ele>
        <time>2018-06-23T11:02:34Z</time>
      </trkpt>
      <trkpt lat="45.24934" lon="6.72651">
        <ele>2012.66</ele>
        <time>2018-06-23T11:02:39Z</time>
      </trkpt>
      <trkpt lat="45.24937" lon="6.72651">
        <ele>2013.14</ele>
        <time>2018-06-23T11:02:42Z</time>
      </trkpt>
      <trkpt lat="45.24951" lon="6.72654">
        <ele>2012.66</ele>
        <time>2018-06-23T11:02:57Z</time>
      </trkpt>
      <trkpt lat="45.24955" lon="6.72653">
        <ele>2012.66</ele>
        <time>2018-06-23T11:03:01Z</time>
      </trkpt>
      <trkpt lat="45.24962" lon="6.72654">
        <ele>2013.14</ele>
        <time>2018-06-23T11:03:07Z</time>
      </trkpt>
      <trkpt lat="45.24972" lon="6.72651">
        <ele>2013.14</ele>
        <time>2018-06-23T11:03:15Z</time>
      </trkpt>
      <trkpt lat="45.24974" lon="6.72651">
        <ele>2012.66</ele>
        <time>2018-06-23T11:03:17Z</time>
      </trkpt>
      <trkpt lat="45.24985" lon="6.72647">
        <ele>2013.62</ele>
        <time>2018-06-23T11:03:27Z</time>
      </trkpt>
      <trkpt lat="45.25" lon="6.7264">
        <ele>2013.62</ele>
        <time>2018-06-23T11:03:40Z</time>
      </trkpt>
      <trkpt lat="45.25003" lon="6.72639">
        <ele>2013.62</ele>
        <time>2018-06-23T11:03:42Z</time>
      </trkpt>
      <trkpt lat="45.25019" lon="6.7264">
        <ele>2013.62</ele>
        <time>2018-06-23T11:03:56Z</time>
      </trkpt>
      <trkpt lat="45.25023" lon="6.72641">
        <ele>2013.62</ele>
        <time>2018-06-23T11:04:00Z</time>
      </trkpt>
      <trkpt lat="45.25037" lon="6.72643">
        <ele>2013.62</ele>
        <time>2018-06-23T11:04:14Z</time>
      </trkpt>
      <trkpt lat="45.2505" lon="6.72643">
        <ele>2012.18</ele>
        <time>2018-06-23T11:04:25Z</time>
      </trkpt>
      <trkpt lat="45.25065" lon="6.72645">
        <ele>2012.18</ele>
        <time>2018-06-23T11:04:37Z</time>
      </trkpt>
      <trkpt lat="45.25075" lon="6.72642">
        <ele>2012.18</ele>
        <time>2018-06-23T11:04:48Z</time>
      </trkpt>
      <trkpt lat="45.25075" lon="6.72644">
        <ele>2012.18</ele>
        <time>2018-06-23T11:05:06Z</time>
      </trkpt>
      <trkpt lat="45.25072" lon="6.72646">
        <ele>2012.18</ele>
        <time>2018-06-23T11:05:24Z</time>
      </trkpt>
      <trkpt lat="45.25074" lon="6.72645">
        <ele>2012.18</ele>
        <time>2018-06-23T11:05:47Z</time>
      </trkpt>
      <trkpt lat="45.25077" lon="6.72641">
        <ele>2012.18</ele>
        <time>2018-06-23T11:06:02Z</time>
      </trkpt>
      <trkpt lat="45.25077" lon="6.72636">
        <ele>2013.62</ele>
        <time>2018-06-23T11:06:19Z</time>
      </trkpt>
      <trkpt lat="45.25087" lon="6.72635">
        <ele>2013.62</ele>
        <time>2018-06-23T11:06:34Z</time>
      </trkpt>
      <trkpt lat="45.25092" lon="6.72635">
        <ele>2013.62</ele>
        <time>2018-06-23T11:06:45Z</time>
      </trkpt>
      <trkpt lat="45.25105" lon="6.72634">
        <ele>2013.62</ele>
        <time>2018-06-23T11:06:59Z</time>
      </trkpt>
      <trkpt lat="45.2512" lon="6.72632">
        <ele>2013.62</ele>
        <time>2018-06-23T11:07:17Z</time>
      </trkpt>
      <trkpt lat="45.25126" lon="6.72631">
        <ele>2013.62</ele>
        <time>2018-06-23T11:07:24Z</time>
      </trkpt>
      <trkpt lat="45.25134" lon="6.72627">
        <ele>2013.62</ele>
        <time>2018-06-23T11:07:34Z</time>
      </trkpt>
      <trkpt lat="45.25144" lon="6.72623">
        <ele>2014.58</ele>
        <time>2018-06-23T11:07:46Z</time>
      </trkpt>
      <trkpt lat="45.25156" lon="6.72616">
        <ele>2015.54</ele>
        <time>2018-06-23T11:07:59Z</time>
      </trkpt>
      <trkpt lat="45.25168" lon="6.72607">
        <ele>2016.98</ele>
        <time>2018-06-23T11:08:13Z</time>
      </trkpt>
      <trkpt lat="45.2518" lon="6.72603">
        <ele>2016.98</ele>
        <time>2018-06-23T11:08:24Z</time>
      </trkpt>
      <trkpt lat="45.25182" lon="6.72602">
        <ele>2016.98</ele>
        <time>2018-06-23T11:08:26Z</time>
      </trkpt>
      <trkpt lat="45.25197" lon="6.72594">
        <ele>2018.43</ele>
        <time>2018-06-23T11:08:41Z</time>
      </trkpt>
      <trkpt lat="45.25202" lon="6.72592">
        <ele>2018.43</ele>
        <time>2018-06-23T11:08:46Z</time>
      </trkpt>
      <trkpt lat="45.25217" lon="6.72585">
        <ele>2018.91</ele>
        <time>2018-06-23T11:09:01Z</time>
      </trkpt>
      <trkpt lat="45.25232" lon="6.72576">
        <ele>2019.87</ele>
        <time>2018-06-23T11:09:15Z</time>
      </trkpt>
      <trkpt lat="45.25244" lon="6.72567">
        <ele>2020.83</ele>
        <time>2018-06-23T11:09:28Z</time>
      </trkpt>
      <trkpt lat="45.25258" lon="6.7256">
        <ele>2021.79</ele>
        <time>2018-06-23T11:09:41Z</time>
      </trkpt>
      <trkpt lat="45.25269" lon="6.72554">
        <ele>2023.23</ele>
        <time>2018-06-23T11:09:52Z</time>
      </trkpt>
      <trkpt lat="45.25287" lon="6.72549">
        <ele>2023.71</ele>
        <time>2018-06-23T11:10:09Z</time>
      </trkpt>
      <trkpt lat="45.25302" lon="6.72542">
        <ele>2024.19</ele>
        <time>2018-06-23T11:10:24Z</time>
      </trkpt>
      <trkpt lat="45.25314" lon="6.72534">
        <ele>2025.15</ele>
        <time>2018-06-23T11:10:37Z</time>
      </trkpt>
      <trkpt lat="45.25329" lon="6.72523">
        <ele>2026.6</ele>
        <time>2018-06-23T11:10:52Z</time>
      </trkpt>
      <trkpt lat="45.2533" lon="6.72522">
        <ele>2026.6</ele>
        <time>2018-06-23T11:10:53Z</time>
      </trkpt>
      <trkpt lat="45.2534" lon="6.72506">
        <ele>2027.56</ele>
        <time>2018-06-23T11:11:07Z</time>
      </trkpt>
      <trkpt lat="45.25348" lon="6.72491">
        <ele>2029</ele>
        <time>2018-06-23T11:11:19Z</time>
      </trkpt>
      <trkpt lat="45.2535" lon="6.72489">
        <ele>2029</ele>
        <time>2018-06-23T11:11:22Z</time>
      </trkpt>
      <trkpt lat="45.25364" lon="6.72481">
        <ele>2030.44</ele>
        <time>2018-06-23T11:11:37Z</time>
      </trkpt>
      <trkpt lat="45.25372" lon="6.72478">
        <ele>2030.92</ele>
        <time>2018-06-23T11:11:44Z</time>
      </trkpt>
      <trkpt lat="45.25384" lon="6.72471">
        <ele>2031.4</ele>
        <time>2018-06-23T11:11:57Z</time>
      </trkpt>
      <trkpt lat="45.25391" lon="6.7247">
        <ele>2031.88</ele>
        <time>2018-06-23T11:12:04Z</time>
      </trkpt>
      <trkpt lat="45.25403" lon="6.72468">
        <ele>2032.84</ele>
        <time>2018-06-23T11:12:15Z</time>
      </trkpt>
      <trkpt lat="45.25418" lon="6.72463">
        <ele>2033.33</ele>
        <time>2018-06-23T11:12:30Z</time>
      </trkpt>
      <trkpt lat="45.2543" lon="6.72459">
        <ele>2034.77</ele>
        <time>2018-06-23T11:12:43Z</time>
      </trkpt>
      <trkpt lat="45.25445" lon="6.72455">
        <ele>2036.69</ele>
        <time>2018-06-23T11:12:57Z</time>
      </trkpt>
      <trkpt lat="45.25456" lon="6.72454">
        <ele>2038.13</ele>
        <time>2018-06-23T11:13:10Z</time>
      </trkpt>
      <trkpt lat="45.2547" lon="6.72453">
        <ele>2038.61</ele>
        <time>2018-06-23T11:13:24Z</time>
      </trkpt>
      <trkpt lat="45.25479" lon="6.72446">
        <ele>2040.05</ele>
        <time>2018-06-23T11:13:35Z</time>
      </trkpt>
      <trkpt lat="45.25486" lon="6.72443">
        <ele>2040.54</ele>
        <time>2018-06-23T11:13:41Z</time>
      </trkpt>
      <trkpt lat="45.25489" lon="6.72441">
        <ele>2040.54</ele>
        <time>2018-06-23T11:13:44Z</time>
      </trkpt>
      <trkpt lat="45.25496" lon="6.72431">
        <ele>2042.94</ele>
        <time>2018-06-23T11:13:53Z</time>
      </trkpt>
      <trkpt lat="45.25498" lon="6.72428">
        <ele>2041.5</ele>
        <time>2018-06-23T11:13:56Z</time>
      </trkpt>
      <trkpt lat="45.25501" lon="6.72422">
        <ele>2041.5</ele>
        <time>2018-06-23T11:14:01Z</time>
      </trkpt>
      <trkpt lat="45.25502" lon="6.72421">
        <ele>2041.5</ele>
        <time>2018-06-23T11:14:03Z</time>
      </trkpt>
      <trkpt lat="45.25502" lon="6.72417">
        <ele>2041.5</ele>
        <time>2018-06-23T11:14:06Z</time>
      </trkpt>
      <trkpt lat="45.25503" lon="6.72405">
        <ele>2041.5</ele>
        <time>2018-06-23T11:14:19Z</time>
      </trkpt>
      <trkpt lat="45.25504" lon="6.72402">
        <ele>2041.5</ele>
        <time>2018-06-23T11:14:26Z</time>
      </trkpt>
      <trkpt lat="45.25495" lon="6.72381">
        <ele>2041.5</ele>
        <time>2018-06-23T11:14:42Z</time>
      </trkpt>
      <trkpt lat="45.25491" lon="6.72372">
        <ele>2041.5</ele>
        <time>2018-06-23T11:14:49Z</time>
      </trkpt>
      <trkpt lat="45.25489" lon="6.72368">
        <ele>2041.5</ele>
        <time>2018-06-23T11:15:01Z</time>
      </trkpt>
      <trkpt lat="45.2549" lon="6.72367">
        <ele>2041.5</ele>
        <time>2018-06-23T11:15:11Z</time>
      </trkpt>
      <trkpt lat="45.2549" lon="6.72364">
        <ele>2041.5</ele>
        <time>2018-06-23T11:15:12Z</time>
      </trkpt>
      <trkpt lat="45.2549" lon="6.72361">
        <ele>2041.5</ele>
        <time>2018-06-23T11:15:14Z</time>
      </trkpt>
      <trkpt lat="45.25489" lon="6.72359">
        <ele>2041.5</ele>
        <time>2018-06-23T11:15:16Z</time>
      </trkpt>
      <trkpt lat="45.25487" lon="6.7236">
        <ele>2042.94</ele>
        <time>2018-06-23T11:15:18Z</time>
      </trkpt>
      <trkpt lat="45.25478" lon="6.7236">
        <ele>2047.26</ele>
        <time>2018-06-23T11:15:24Z</time>
      </trkpt>
      <trkpt lat="45.25472" lon="6.72353">
        <ele>2050.15</ele>
        <time>2018-06-23T11:15:29Z</time>
      </trkpt>
      <trkpt lat="45.2547" lon="6.72349">
        <ele>2050.15</ele>
        <time>2018-06-23T11:15:32Z</time>
      </trkpt>
      <trkpt lat="45.25467" lon="6.72347">
        <ele>2051.59</ele>
        <time>2018-06-23T11:15:35Z</time>
      </trkpt>
      <trkpt lat="45.25466" lon="6.72342">
        <ele>2052.55</ele>
        <time>2018-06-23T11:15:39Z</time>
      </trkpt>
      <trkpt lat="45.25466" lon="6.72338">
        <ele>2052.55</ele>
        <time>2018-06-23T11:15:43Z</time>
      </trkpt>
      <trkpt lat="45.25461" lon="6.72318">
        <ele>2052.07</ele>
        <time>2018-06-23T11:15:58Z</time>
      </trkpt>
      <trkpt lat="45.25461" lon="6.72316">
        <ele>2052.07</ele>
        <time>2018-06-23T11:15:59Z</time>
      </trkpt>
      <trkpt lat="45.25461" lon="6.72301">
        <ele>2052.07</ele>
        <time>2018-06-23T11:16:08Z</time>
      </trkpt>
      <trkpt lat="45.25466" lon="6.72289">
        <ele>2052.07</ele>
        <time>2018-06-23T11:16:21Z</time>
      </trkpt>
      <trkpt lat="45.25464" lon="6.72288">
        <ele>2053.51</ele>
        <time>2018-06-23T11:16:38Z</time>
      </trkpt>
      <trkpt lat="45.25463" lon="6.72287">
        <ele>2053.51</ele>
        <time>2018-06-23T11:16:39Z</time>
      </trkpt>
      <trkpt lat="45.25461" lon="6.72288">
        <ele>2053.51</ele>
        <time>2018-06-23T11:16:52Z</time>
      </trkpt>
      <trkpt lat="45.25459" lon="6.7228">
        <ele>2053.51</ele>
        <time>2018-06-23T11:17:08Z</time>
      </trkpt>
      <trkpt lat="45.25457" lon="6.72276">
        <ele>2053.99</ele>
        <time>2018-06-23T11:17:24Z</time>
      </trkpt>
      <trkpt lat="45.25447" lon="6.72261">
        <ele>2054.96</ele>
        <time>2018-06-23T11:17:36Z</time>
      </trkpt>
      <trkpt lat="45.25445" lon="6.72261">
        <ele>2055.92</ele>
        <time>2018-06-23T11:17:37Z</time>
      </trkpt>
      <trkpt lat="45.25434" lon="6.72249">
        <ele>2056.88</ele>
        <time>2018-06-23T11:17:49Z</time>
      </trkpt>
      <trkpt lat="45.25431" lon="6.72242">
        <ele>2057.36</ele>
        <time>2018-06-23T11:17:55Z</time>
      </trkpt>
      <trkpt lat="45.25431" lon="6.7224">
        <ele>2057.84</ele>
        <time>2018-06-23T11:17:56Z</time>
      </trkpt>
      <trkpt lat="45.25431" lon="6.72239">
        <ele>2057.84</ele>
        <time>2018-06-23T11:17:57Z</time>
      </trkpt>
      <trkpt lat="45.2543" lon="6.72237">
        <ele>2058.32</ele>
        <time>2018-06-23T11:17:58Z</time>
      </trkpt>
      <trkpt lat="45.2543" lon="6.72235">
        <ele>2058.32</ele>
        <time>2018-06-23T11:17:59Z</time>
      </trkpt>
      <trkpt lat="45.25429" lon="6.72217">
        <ele>2059.76</ele>
        <time>2018-06-23T11:18:13Z</time>
      </trkpt>
      <trkpt lat="45.25426" lon="6.72199">
        <ele>2061.68</ele>
        <time>2018-06-23T11:18:27Z</time>
      </trkpt>
      <trkpt lat="45.25423" lon="6.72183">
        <ele>2062.17</ele>
        <time>2018-06-23T11:18:42Z</time>
      </trkpt>
      <trkpt lat="45.25422" lon="6.72184">
        <ele>2062.17</ele>
        <time>2018-06-23T11:18:50Z</time>
      </trkpt>
      <trkpt lat="45.25423" lon="6.7218">
        <ele>2062.65</ele>
        <time>2018-06-23T11:18:59Z</time>
      </trkpt>
      <trkpt lat="45.2543" lon="6.72176">
        <ele>2066.01</ele>
        <time>2018-06-23T11:19:09Z</time>
      </trkpt>
      <trkpt lat="45.25438" lon="6.72164">
        <ele>2069.38</ele>
        <time>2018-06-23T11:19:24Z</time>
      </trkpt>
      <trkpt lat="45.25447" lon="6.72147">
        <ele>2071.78</ele>
        <time>2018-06-23T11:19:41Z</time>
      </trkpt>
      <trkpt lat="45.25451" lon="6.72149">
        <ele>2072.74</ele>
        <time>2018-06-23T11:19:47Z</time>
      </trkpt>
      <trkpt lat="45.25455" lon="6.72148">
        <ele>2074.66</ele>
        <time>2018-06-23T11:19:56Z</time>
      </trkpt>
      <trkpt lat="45.25454" lon="6.7214">
        <ele>2076.59</ele>
        <time>2018-06-23T11:20:07Z</time>
      </trkpt>
      <trkpt lat="45.25454" lon="6.72138">
        <ele>2077.07</ele>
        <time>2018-06-23T11:20:08Z</time>
      </trkpt>
      <trkpt lat="45.25453" lon="6.72129">
        <ele>2078.51</ele>
        <time>2018-06-23T11:20:17Z</time>
      </trkpt>
      <trkpt lat="45.25453" lon="6.72126">
        <ele>2080.43</ele>
        <time>2018-06-23T11:20:23Z</time>
      </trkpt>
      <trkpt lat="45.25453" lon="6.72125">
        <ele>2082.83</ele>
        <time>2018-06-23T11:20:28Z</time>
      </trkpt>
      <trkpt lat="45.25452" lon="6.72123">
        <ele>2082.83</ele>
        <time>2018-06-23T11:20:33Z</time>
      </trkpt>
      <trkpt lat="45.25451" lon="6.72124">
        <ele>2082.83</ele>
        <time>2018-06-23T11:20:34Z</time>
      </trkpt>
      <trkpt lat="45.25449" lon="6.72123">
        <ele>2084.28</ele>
        <time>2018-06-23T11:20:38Z</time>
      </trkpt>
      <trkpt lat="45.25448" lon="6.7212">
        <ele>2083.31</ele>
        <time>2018-06-23T11:20:49Z</time>
      </trkpt>
      <trkpt lat="45.25453" lon="6.7212">
        <ele>2082.35</ele>
        <time>2018-06-23T11:21:02Z</time>
      </trkpt>
      <trkpt lat="45.25453" lon="6.72122">
        <ele>2082.35</ele>
        <time>2018-06-23T11:21:23Z</time>
      </trkpt>
      <trkpt lat="45.25451" lon="6.72123">
        <ele>2081.39</ele>
        <time>2018-06-23T11:21:34Z</time>
      </trkpt>
      <trkpt lat="45.25448" lon="6.72123">
        <ele>2081.39</ele>
        <time>2018-06-23T11:21:38Z</time>
      </trkpt>
      <trkpt lat="45.25446" lon="6.72124">
        <ele>2082.35</ele>
        <time>2018-06-23T11:21:42Z</time>
      </trkpt>
      <trkpt lat="45.25444" lon="6.72123">
        <ele>2084.28</ele>
        <time>2018-06-23T11:21:44Z</time>
      </trkpt>
      <trkpt lat="45.25441" lon="6.72121">
        <ele>2082.35</ele>
        <time>2018-06-23T11:21:57Z</time>
      </trkpt>
      <trkpt lat="45.25438" lon="6.7212">
        <ele>2083.79</ele>
        <time>2018-06-23T11:22:07Z</time>
      </trkpt>
      <trkpt lat="45.25444" lon="6.72113">
        <ele>2084.28</ele>
        <time>2018-06-23T11:22:20Z</time>
      </trkpt>
      <trkpt lat="45.2545" lon="6.72109">
        <ele>2084.76</ele>
        <time>2018-06-23T11:22:36Z</time>
      </trkpt>
      <trkpt lat="45.25459" lon="6.72102">
        <ele>2086.68</ele>
        <time>2018-06-23T11:23:01Z</time>
      </trkpt>
      <trkpt lat="45.25467" lon="6.72096">
        <ele>2088.12</ele>
        <time>2018-06-23T11:23:15Z</time>
      </trkpt>
      <trkpt lat="45.25471" lon="6.72092">
        <ele>2088.6</ele>
        <time>2018-06-23T11:23:21Z</time>
      </trkpt>
      <trkpt lat="45.25477" lon="6.7208">
        <ele>2088.6</ele>
        <time>2018-06-23T11:23:34Z</time>
      </trkpt>
      <trkpt lat="45.25479" lon="6.72069">
        <ele>2088.6</ele>
        <time>2018-06-23T11:23:43Z</time>
      </trkpt>
      <trkpt lat="45.2548" lon="6.72068">
        <ele>2088.6</ele>
        <time>2018-06-23T11:23:44Z</time>
      </trkpt>
      <trkpt lat="45.25481" lon="6.72067">
        <ele>2088.6</ele>
        <time>2018-06-23T11:23:45Z</time>
      </trkpt>
      <trkpt lat="45.25482" lon="6.72066">
        <ele>2088.6</ele>
        <time>2018-06-23T11:23:46Z</time>
      </trkpt>
      <trkpt lat="45.25485" lon="6.72055">
        <ele>2088.6</ele>
        <time>2018-06-23T11:23:54Z</time>
      </trkpt>
      <trkpt lat="45.25488" lon="6.7204">
        <ele>2087.64</ele>
        <time>2018-06-23T11:24:05Z</time>
      </trkpt>
      <trkpt lat="45.25492" lon="6.72022">
        <ele>2089.08</ele>
        <time>2018-06-23T11:24:18Z</time>
      </trkpt>
      <trkpt lat="45.255" lon="6.72008">
        <ele>2089.56</ele>
        <time>2018-06-23T11:24:31Z</time>
      </trkpt>
      <trkpt lat="45.25508" lon="6.71986">
        <ele>2091</ele>
        <time>2018-06-23T11:24:45Z</time>
      </trkpt>
      <trkpt lat="45.25512" lon="6.71966">
        <ele>2092.45</ele>
        <time>2018-06-23T11:24:59Z</time>
      </trkpt>
      <trkpt lat="45.25518" lon="6.7195">
        <ele>2093.41</ele>
        <time>2018-06-23T11:25:11Z</time>
      </trkpt>
      <trkpt lat="45.25519" lon="6.71949">
        <ele>2093.89</ele>
        <time>2018-06-23T11:25:13Z</time>
      </trkpt>
      <trkpt lat="45.25525" lon="6.71936">
        <ele>2095.33</ele>
        <time>2018-06-23T11:25:27Z</time>
      </trkpt>
      <trkpt lat="45.2553" lon="6.71915">
        <ele>2096.77</ele>
        <time>2018-06-23T11:25:41Z</time>
      </trkpt>
      <trkpt lat="45.25531" lon="6.71914">
        <ele>2096.77</ele>
        <time>2018-06-23T11:25:42Z</time>
      </trkpt>
      <trkpt lat="45.25533" lon="6.71912">
        <ele>2097.25</ele>
        <time>2018-06-23T11:25:44Z</time>
      </trkpt>
      <trkpt lat="45.25535" lon="6.71907">
        <ele>2097.25</ele>
        <time>2018-06-23T11:25:48Z</time>
      </trkpt>
      <trkpt lat="45.25545" lon="6.71887">
        <ele>2098.21</ele>
        <time>2018-06-23T11:26:03Z</time>
      </trkpt>
      <trkpt lat="45.25547" lon="6.71885">
        <ele>2098.21</ele>
        <time>2018-06-23T11:26:05Z</time>
      </trkpt>
      <trkpt lat="45.25554" lon="6.71878">
        <ele>2098.7</ele>
        <time>2018-06-23T11:26:10Z</time>
      </trkpt>
      <trkpt lat="45.25555" lon="6.71877">
        <ele>2098.7</ele>
        <time>2018-06-23T11:26:11Z</time>
      </trkpt>
      <trkpt lat="45.25566" lon="6.71866">
        <ele>2100.14</ele>
        <time>2018-06-23T11:26:25Z</time>
      </trkpt>
      <trkpt lat="45.25577" lon="6.71852">
        <ele>2101.1</ele>
        <time>2018-06-23T11:26:40Z</time>
      </trkpt>
      <trkpt lat="45.25587" lon="6.71841">
        <ele>2102.54</ele>
        <time>2018-06-23T11:26:54Z</time>
      </trkpt>
      <trkpt lat="45.25601" lon="6.71828">
        <ele>2103.98</ele>
        <time>2018-06-23T11:27:09Z</time>
      </trkpt>
      <trkpt lat="45.25614" lon="6.71813">
        <ele>2105.91</ele>
        <time>2018-06-23T11:27:25Z</time>
      </trkpt>
      <trkpt lat="45.25626" lon="6.71806">
        <ele>2106.87</ele>
        <time>2018-06-23T11:27:38Z</time>
      </trkpt>
      <trkpt lat="45.25638" lon="6.71798">
        <ele>2108.31</ele>
        <time>2018-06-23T11:27:49Z</time>
      </trkpt>
      <trkpt lat="45.25643" lon="6.71794">
        <ele>2108.79</ele>
        <time>2018-06-23T11:28:05Z</time>
      </trkpt>
      <trkpt lat="45.25644" lon="6.71794">
        <ele>2108.79</ele>
        <time>2018-06-23T11:28:06Z</time>
      </trkpt>
      <trkpt lat="45.25652" lon="6.7178">
        <ele>2110.71</ele>
        <time>2018-06-23T11:28:21Z</time>
      </trkpt>
      <trkpt lat="45.25654" lon="6.71773">
        <ele>2111.67</ele>
        <time>2018-06-23T11:28:36Z</time>
      </trkpt>
      <trkpt lat="45.2566" lon="6.71765">
        <ele>2112.15</ele>
        <time>2018-06-23T11:28:52Z</time>
      </trkpt>
      <trkpt lat="45.25668" lon="6.71753">
        <ele>2112.63</ele>
        <time>2018-06-23T11:29:06Z</time>
      </trkpt>
      <trkpt lat="45.25675" lon="6.71743">
        <ele>2112.63</ele>
        <time>2018-06-23T11:29:26Z</time>
      </trkpt>
      <trkpt lat="45.25679" lon="6.7174">
        <ele>2113.12</ele>
        <time>2018-06-23T11:29:49Z</time>
      </trkpt>
      <trkpt lat="45.25681" lon="6.71735">
        <ele>2113.12</ele>
        <time>2018-06-23T11:30:09Z</time>
      </trkpt>
      <trkpt lat="45.25684" lon="6.71729">
        <ele>2114.56</ele>
        <time>2018-06-23T11:30:19Z</time>
      </trkpt>
      <trkpt lat="45.25683" lon="6.7173">
        <ele>2115.52</ele>
        <time>2018-06-23T11:30:33Z</time>
      </trkpt>
      <trkpt lat="45.25685" lon="6.71734">
        <ele>2115.52</ele>
        <time>2018-06-23T11:31:06Z</time>
      </trkpt>
      <trkpt lat="45.25685" lon="6.71725">
        <ele>2114.56</ele>
        <time>2018-06-23T11:31:32Z</time>
      </trkpt>
      <trkpt lat="45.25687" lon="6.71725">
        <ele>2114.56</ele>
        <time>2018-06-23T11:31:46Z</time>
      </trkpt>
      <trkpt lat="45.25692" lon="6.71711">
        <ele>2115.04</ele>
        <time>2018-06-23T11:31:56Z</time>
      </trkpt>
      <trkpt lat="45.25694" lon="6.71702">
        <ele>2115.04</ele>
        <time>2018-06-23T11:32:08Z</time>
      </trkpt>
      <trkpt lat="45.25697" lon="6.71693">
        <ele>2115.04</ele>
        <time>2018-06-23T11:32:24Z</time>
      </trkpt>
      <trkpt lat="45.25702" lon="6.71691">
        <ele>2116.48</ele>
        <time>2018-06-23T11:32:34Z</time>
      </trkpt>
      <trkpt lat="45.25706" lon="6.7168">
        <ele>2116.96</ele>
        <time>2018-06-23T11:32:47Z</time>
      </trkpt>
      <trkpt lat="45.25706" lon="6.71678">
        <ele>2116.96</ele>
        <time>2018-06-23T11:32:48Z</time>
      </trkpt>
      <trkpt lat="45.25707" lon="6.71673">
        <ele>2117.44</ele>
        <time>2018-06-23T11:32:52Z</time>
      </trkpt>
      <trkpt lat="45.25709" lon="6.71666">
        <ele>2117.44</ele>
        <time>2018-06-23T11:33:08Z</time>
      </trkpt>
      <trkpt lat="45.25713" lon="6.71663">
        <ele>2117.44</ele>
        <time>2018-06-23T11:33:14Z</time>
      </trkpt>
      <trkpt lat="45.2572" lon="6.71654">
        <ele>2117.44</ele>
        <time>2018-06-23T11:33:26Z</time>
      </trkpt>
      <trkpt lat="45.2573" lon="6.71646">
        <ele>2117.92</ele>
        <time>2018-06-23T11:33:39Z</time>
      </trkpt>
      <trkpt lat="45.25735" lon="6.71644">
        <ele>2118.4</ele>
        <time>2018-06-23T11:33:44Z</time>
      </trkpt>
      <trkpt lat="45.25743" lon="6.71638">
        <ele>2119.36</ele>
        <time>2018-06-23T11:33:52Z</time>
      </trkpt>
      <trkpt lat="45.25753" lon="6.71625">
        <ele>2119.84</ele>
        <time>2018-06-23T11:34:06Z</time>
      </trkpt>
      <trkpt lat="45.25752" lon="6.71621">
        <ele>2120.32</ele>
        <time>2018-06-23T11:34:31Z</time>
      </trkpt>
      <trkpt lat="45.25754" lon="6.71621">
        <ele>2118.88</ele>
        <time>2018-06-23T11:34:55Z</time>
      </trkpt>
      <trkpt lat="45.25755" lon="6.7162">
        <ele>2120.81</ele>
        <time>2018-06-23T11:34:59Z</time>
      </trkpt>
      <trkpt lat="45.25755" lon="6.7162">
        <ele>2119.36</ele>
        <time>2018-06-23T11:35:02Z</time>
      </trkpt>
      <trkpt lat="45.25757" lon="6.71618">
        <ele>2119.36</ele>
        <time>2018-06-23T11:35:22Z</time>
      </trkpt>
      <trkpt lat="45.25756" lon="6.71615">
        <ele>2119.84</ele>
        <time>2018-06-23T11:35:55Z</time>
      </trkpt>
      <trkpt lat="45.25757" lon="6.71615">
        <ele>2102.54</ele>
        <time>2018-06-23T11:36:11Z</time>
      </trkpt>
      <trkpt lat="45.25757" lon="6.71615">
        <ele>2118.88</ele>
        <time>2018-06-23T11:36:12Z</time>
      </trkpt>
      <trkpt lat="45.25757" lon="6.71614">
        <ele>2118.88</ele>
        <time>2018-06-23T11:36:13Z</time>
      </trkpt>
      <trkpt lat="45.25758" lon="6.71613">
        <ele>2116.48</ele>
        <time>2018-06-23T11:36:14Z</time>
      </trkpt>
      <trkpt lat="45.2576" lon="6.7161">
        <ele>2136.19</ele>
        <time>2018-06-23T11:36:16Z</time>
      </trkpt>
      <trkpt lat="45.2576" lon="6.7161">
        <ele>2136.19</ele>
        <time>2018-06-23T11:36:17Z</time>
      </trkpt>
      <trkpt lat="45.25761" lon="6.7161">
        <ele>2124.17</ele>
        <time>2018-06-23T11:36:18Z</time>
      </trkpt>
      <trkpt lat="45.25762" lon="6.7161">
        <ele>2120.32</ele>
        <time>2018-06-23T11:36:19Z</time>
      </trkpt>
      <trkpt lat="45.25761" lon="6.7161">
        <ele>2120.32</ele>
        <time>2018-06-23T11:36:20Z</time>
      </trkpt>
      <trkpt lat="45.25763" lon="6.71604">
        <ele>2122.25</ele>
        <time>2018-06-23T11:36:31Z</time>
      </trkpt>
      <trkpt lat="45.25763" lon="6.71601">
        <ele>2122.25</ele>
        <time>2018-06-23T11:36:32Z</time>
      </trkpt>
      <trkpt lat="45.25763" lon="6.71599">
        <ele>2122.25</ele>
        <time>2018-06-23T11:36:33Z</time>
      </trkpt>
      <trkpt lat="45.2577" lon="6.71584">
        <ele>2122.25</ele>
        <time>2018-06-23T11:36:43Z</time>
      </trkpt>
      <trkpt lat="45.25773" lon="6.71581">
        <ele>2122.25</ele>
        <time>2018-06-23T11:36:46Z</time>
      </trkpt>
      <trkpt lat="45.25784" lon="6.71565">
        <ele>2122.25</ele>
        <time>2018-06-23T11:37:00Z</time>
      </trkpt>
      <trkpt lat="45.25795" lon="6.71542">
        <ele>2122.73</ele>
        <time>2018-06-23T11:37:15Z</time>
      </trkpt>
      <trkpt lat="45.25804" lon="6.71526">
        <ele>2123.69</ele>
        <time>2018-06-23T11:37:27Z</time>
      </trkpt>
      <trkpt lat="45.25816" lon="6.71507">
        <ele>2127.05</ele>
        <time>2018-06-23T11:37:42Z</time>
      </trkpt>
      <trkpt lat="45.25817" lon="6.71506">
        <ele>2125.13</ele>
        <time>2018-06-23T11:37:47Z</time>
      </trkpt>
      <trkpt lat="45.25817" lon="6.71506">
        <ele>2126.57</ele>
        <time>2018-06-23T11:37:49Z</time>
      </trkpt>
      <trkpt lat="45.25821" lon="6.71502">
        <ele>2126.57</ele>
        <time>2018-06-23T11:38:08Z</time>
      </trkpt>
      <trkpt lat="45.25822" lon="6.715">
        <ele>2126.57</ele>
        <time>2018-06-23T11:38:09Z</time>
      </trkpt>
      <trkpt lat="45.25823" lon="6.71499">
        <ele>2126.57</ele>
        <time>2018-06-23T11:38:10Z</time>
      </trkpt>
      <trkpt lat="45.25824" lon="6.71497">
        <ele>2126.57</ele>
        <time>2018-06-23T11:38:11Z</time>
      </trkpt>
      <trkpt lat="45.25825" lon="6.71496">
        <ele>2126.57</ele>
        <time>2018-06-23T11:38:12Z</time>
      </trkpt>
      <trkpt lat="45.25826" lon="6.71494">
        <ele>2126.57</ele>
        <time>2018-06-23T11:38:13Z</time>
      </trkpt>
      <trkpt lat="45.25827" lon="6.7149">
        <ele>2126.57</ele>
        <time>2018-06-23T11:38:16Z</time>
      </trkpt>
      <trkpt lat="45.25827" lon="6.71477">
        <ele>2128.02</ele>
        <time>2018-06-23T11:38:30Z</time>
      </trkpt>
      <trkpt lat="45.25829" lon="6.71463">
        <ele>2128.5</ele>
        <time>2018-06-23T11:38:44Z</time>
      </trkpt>
      <trkpt lat="45.25833" lon="6.71458">
        <ele>2129.46</ele>
        <time>2018-06-23T11:38:57Z</time>
      </trkpt>
      <trkpt lat="45.25836" lon="6.71455">
        <ele>2130.42</ele>
        <time>2018-06-23T11:39:12Z</time>
      </trkpt>
      <trkpt lat="45.25836" lon="6.71449">
        <ele>2130.42</ele>
        <time>2018-06-23T11:39:36Z</time>
      </trkpt>
      <trkpt lat="45.25841" lon="6.71448">
        <ele>2130.9</ele>
        <time>2018-06-23T11:39:44Z</time>
      </trkpt>
      <trkpt lat="45.25845" lon="6.71448">
        <ele>2131.86</ele>
        <time>2018-06-23T11:39:47Z</time>
      </trkpt>
      <trkpt lat="45.25851" lon="6.71447">
        <ele>2132.34</ele>
        <time>2018-06-23T11:39:59Z</time>
      </trkpt>
      <trkpt lat="45.25854" lon="6.71446">
        <ele>2133.3</ele>
        <time>2018-06-23T11:40:06Z</time>
      </trkpt>
      <trkpt lat="45.25854" lon="6.71446">
        <ele>2132.34</ele>
        <time>2018-06-23T11:40:08Z</time>
      </trkpt>
      <trkpt lat="45.25868" lon="6.7145">
        <ele>2132.34</ele>
        <time>2018-06-23T11:40:20Z</time>
      </trkpt>
      <trkpt lat="45.25876" lon="6.71448">
        <ele>2133.78</ele>
        <time>2018-06-23T11:40:36Z</time>
      </trkpt>
      <trkpt lat="45.25881" lon="6.71452">
        <ele>2127.53</ele>
        <time>2018-06-23T11:40:57Z</time>
      </trkpt>
      <trkpt lat="45.2588" lon="6.71451">
        <ele>2133.78</ele>
        <time>2018-06-23T11:40:58Z</time>
      </trkpt>
      <trkpt lat="45.25878" lon="6.71448">
        <ele>2140.03</ele>
        <time>2018-06-23T11:41:03Z</time>
      </trkpt>
      <trkpt lat="45.25877" lon="6.71448">
        <ele>2134.26</ele>
        <time>2018-06-23T11:41:04Z</time>
      </trkpt>
      <trkpt lat="45.25881" lon="6.71445">
        <ele>2133.78</ele>
        <time>2018-06-23T11:41:09Z</time>
      </trkpt>
      <trkpt lat="45.25884" lon="6.71443">
        <ele>2135.23</ele>
        <time>2018-06-23T11:41:12Z</time>
      </trkpt>
      <trkpt lat="45.25903" lon="6.71437">
        <ele>2136.67</ele>
        <time>2018-06-23T11:41:29Z</time>
      </trkpt>
      <trkpt lat="45.25925" lon="6.71426">
        <ele>2138.11</ele>
        <time>2018-06-23T11:41:49Z</time>
      </trkpt>
      <trkpt lat="45.25939" lon="6.71417">
        <ele>2139.55</ele>
        <time>2018-06-23T11:42:07Z</time>
      </trkpt>
      <trkpt lat="45.25963" lon="6.71413">
        <ele>2141.47</ele>
        <time>2018-06-23T11:42:29Z</time>
      </trkpt>
      <trkpt lat="45.25986" lon="6.71405">
        <ele>2145.8</ele>
        <time>2018-06-23T11:42:50Z</time>
      </trkpt>
      <trkpt lat="45.25999" lon="6.714">
        <ele>2145.8</ele>
        <time>2018-06-23T11:43:09Z</time>
      </trkpt>
      <trkpt lat="45.26001" lon="6.71405">
        <ele>2145.8</ele>
        <time>2018-06-23T11:43:38Z</time>
      </trkpt>
      <trkpt lat="45.26" lon="6.71402">
        <ele>2145.32</ele>
        <time>2018-06-23T11:43:48Z</time>
      </trkpt>
      <trkpt lat="45.26006" lon="6.71413">
        <ele>2144.36</ele>
        <time>2018-06-23T11:44:04Z</time>
      </trkpt>
      <trkpt lat="45.26006" lon="6.7142">
        <ele>2142.44</ele>
        <time>2018-06-23T11:44:15Z</time>
      </trkpt>
      <trkpt lat="45.26007" lon="6.7143">
        <ele>2144.84</ele>
        <time>2018-06-23T11:44:24Z</time>
      </trkpt>
      <trkpt lat="45.26004" lon="6.71432">
        <ele>2145.8</ele>
        <time>2018-06-23T11:44:46Z</time>
      </trkpt>
      <trkpt lat="45.26007" lon="6.71441">
        <ele>2144.36</ele>
        <time>2018-06-23T11:45:19Z</time>
      </trkpt>
      <trkpt lat="45.26003" lon="6.71449">
        <ele>2144.36</ele>
        <time>2018-06-23T11:45:40Z</time>
      </trkpt>
      <trkpt lat="45.26001" lon="6.71465">
        <ele>2132.82</ele>
        <time>2018-06-23T11:45:51Z</time>
      </trkpt>
      <trkpt lat="45.26001" lon="6.71465">
        <ele>2144.36</ele>
        <time>2018-06-23T11:45:52Z</time>
      </trkpt>
      <trkpt lat="45.26001" lon="6.71465">
        <ele>2150.61</ele>
        <time>2018-06-23T11:45:53Z</time>
      </trkpt>
      <trkpt lat="45.26008" lon="6.71456">
        <ele>2145.32</ele>
        <time>2018-06-23T11:46:13Z</time>
      </trkpt>
      <trkpt lat="45.26007" lon="6.71434">
        <ele>2144.36</ele>
        <time>2018-06-23T11:46:41Z</time>
      </trkpt>
      <trkpt lat="45.26006" lon="6.71426">
        <ele>2145.8</ele>
        <time>2018-06-23T11:46:58Z</time>
      </trkpt>
      <trkpt lat="45.26006" lon="6.7141">
        <ele>2145.32</ele>
        <time>2018-06-23T11:47:16Z</time>
      </trkpt>
      <trkpt lat="45.2601" lon="6.71398">
        <ele>2145.32</ele>
        <time>2018-06-23T11:47:27Z</time>
      </trkpt>
      <trkpt lat="45.26026" lon="6.71381">
        <ele>2146.28</ele>
        <time>2018-06-23T11:47:48Z</time>
      </trkpt>
      <trkpt lat="45.26022" lon="6.71381">
        <ele>2146.28</ele>
        <time>2018-06-23T11:48:12Z</time>
      </trkpt>
      <trkpt lat="45.26025" lon="6.71377">
        <ele>2146.28</ele>
        <time>2018-06-23T11:48:29Z</time>
      </trkpt>
      <trkpt lat="45.26033" lon="6.71363">
        <ele>2146.28</ele>
        <time>2018-06-23T11:48:44Z</time>
      </trkpt>
      <trkpt lat="45.26038" lon="6.71354">
        <ele>2146.76</ele>
        <time>2018-06-23T11:49:05Z</time>
      </trkpt>
      <trkpt lat="45.26046" lon="6.71337">
        <ele>2147.72</ele>
        <time>2018-06-23T11:49:24Z</time>
      </trkpt>
      <trkpt lat="45.26054" lon="6.71317">
        <ele>2149.65</ele>
        <time>2018-06-23T11:49:44Z</time>
      </trkpt>
      <trkpt lat="45.26061" lon="6.71311">
        <ele>2151.57</ele>
        <time>2018-06-23T11:50:03Z</time>
      </trkpt>
      <trkpt lat="45.26066" lon="6.71307">
        <ele>2152.05</ele>
        <time>2018-06-23T11:50:09Z</time>
      </trkpt>
      <trkpt lat="45.26074" lon="6.71293">
        <ele>2154.93</ele>
        <time>2018-06-23T11:50:26Z</time>
      </trkpt>
      <trkpt lat="45.26086" lon="6.71281">
        <ele>2158.3</ele>
        <time>2018-06-23T11:50:42Z</time>
      </trkpt>
      <trkpt lat="45.26095" lon="6.71276">
        <ele>2158.78</ele>
        <time>2018-06-23T11:50:51Z</time>
      </trkpt>
      <trkpt lat="45.2611" lon="6.71279">
        <ele>2159.26</ele>
        <time>2018-06-23T11:51:11Z</time>
      </trkpt>
      <trkpt lat="45.26126" lon="6.71284">
        <ele>2159.74</ele>
        <time>2018-06-23T11:51:34Z</time>
      </trkpt>
      <trkpt lat="45.26128" lon="6.71285">
        <ele>2161.18</ele>
        <time>2018-06-23T11:51:42Z</time>
      </trkpt>
      <trkpt lat="45.26139" lon="6.71298">
        <ele>2162.62</ele>
        <time>2018-06-23T11:51:59Z</time>
      </trkpt>
      <trkpt lat="45.26151" lon="6.71309">
        <ele>2164.06</ele>
        <time>2018-06-23T11:52:12Z</time>
      </trkpt>
      <trkpt lat="45.26181" lon="6.71329">
        <ele>2165.99</ele>
        <time>2018-06-23T11:52:33Z</time>
      </trkpt>
      <trkpt lat="45.26191" lon="6.71329">
        <ele>2165.99</ele>
        <time>2018-06-23T11:52:56Z</time>
      </trkpt>
      <trkpt lat="45.26198" lon="6.71332">
        <ele>2167.43</ele>
        <time>2018-06-23T11:53:17Z</time>
      </trkpt>
      <trkpt lat="45.26211" lon="6.71342">
        <ele>2169.35</ele>
        <time>2018-06-23T11:53:43Z</time>
      </trkpt>
      <trkpt lat="45.26216" lon="6.71347">
        <ele>2171.27</ele>
        <time>2018-06-23T11:53:49Z</time>
      </trkpt>
      <trkpt lat="45.2622" lon="6.71349">
        <ele>2170.31</ele>
        <time>2018-06-23T11:53:53Z</time>
      </trkpt>
      <trkpt lat="45.26223" lon="6.71353">
        <ele>2171.27</ele>
        <time>2018-06-23T11:53:58Z</time>
      </trkpt>
      <trkpt lat="45.26238" lon="6.71369">
        <ele>2175.12</ele>
        <time>2018-06-23T11:54:20Z</time>
      </trkpt>
      <trkpt lat="45.26254" lon="6.71381">
        <ele>2175.6</ele>
        <time>2018-06-23T11:54:36Z</time>
      </trkpt>
      <trkpt lat="45.26259" lon="6.71387">
        <ele>2176.08</ele>
        <time>2018-06-23T11:54:46Z</time>
      </trkpt>
      <trkpt lat="45.26267" lon="6.71387">
        <ele>2176.56</ele>
        <time>2018-06-23T11:54:58Z</time>
      </trkpt>
      <trkpt lat="45.26268" lon="6.71387">
        <ele>2177.04</ele>
        <time>2018-06-23T11:55:01Z</time>
      </trkpt>
      <trkpt lat="45.2628" lon="6.71386">
        <ele>2178.48</ele>
        <time>2018-06-23T11:55:13Z</time>
      </trkpt>
      <trkpt lat="45.26281" lon="6.71387">
        <ele>2178.48</ele>
        <time>2018-06-23T11:55:14Z</time>
      </trkpt>
      <trkpt lat="45.26288" lon="6.71384">
        <ele>2179.93</ele>
        <time>2018-06-23T11:55:23Z</time>
      </trkpt>
      <trkpt lat="45.26291" lon="6.71382">
        <ele>2179.93</ele>
        <time>2018-06-23T11:55:28Z</time>
      </trkpt>
      <trkpt lat="45.26297" lon="6.71374">
        <ele>2182.33</ele>
        <time>2018-06-23T11:55:38Z</time>
      </trkpt>
      <trkpt lat="45.26292" lon="6.71365">
        <ele>2184.25</ele>
        <time>2018-06-23T11:55:51Z</time>
      </trkpt>
      <trkpt lat="45.26289" lon="6.71365">
        <ele>2185.21</ele>
        <time>2018-06-23T11:56:02Z</time>
      </trkpt>
      <trkpt lat="45.26288" lon="6.71366">
        <ele>2185.69</ele>
        <time>2018-06-23T11:56:12Z</time>
      </trkpt>
      <trkpt lat="45.26288" lon="6.71366">
        <ele>2185.69</ele>
        <time>2018-06-23T11:56:14Z</time>
      </trkpt>
      <trkpt lat="45.26285" lon="6.71368">
        <ele>2185.69</ele>
        <time>2018-06-23T11:56:18Z</time>
      </trkpt>
      <trkpt lat="45.26275" lon="6.7137">
        <ele>2187.62</ele>
        <time>2018-06-23T11:56:30Z</time>
      </trkpt>
      <trkpt lat="45.26263" lon="6.71364">
        <ele>2189.06</ele>
        <time>2018-06-23T11:56:41Z</time>
      </trkpt>
      <trkpt lat="45.26263" lon="6.71359">
        <ele>2190.02</ele>
        <time>2018-06-23T11:56:45Z</time>
      </trkpt>
      <trkpt lat="45.26266" lon="6.71357">
        <ele>2191.46</ele>
        <time>2018-06-23T11:56:48Z</time>
      </trkpt>
      <trkpt lat="45.26271" lon="6.71354">
        <ele>2192.42</ele>
        <time>2018-06-23T11:56:54Z</time>
      </trkpt>
      <trkpt lat="45.26274" lon="6.71354">
        <ele>2193.39</ele>
        <time>2018-06-23T11:56:58Z</time>
      </trkpt>
      <trkpt lat="45.26282" lon="6.71347">
        <ele>2194.35</ele>
        <time>2018-06-23T11:57:11Z</time>
      </trkpt>
      <trkpt lat="45.26282" lon="6.71347">
        <ele>2192.9</ele>
        <time>2018-06-23T11:57:13Z</time>
      </trkpt>
      <trkpt lat="45.26285" lon="6.71345">
        <ele>2194.83</ele>
        <time>2018-06-23T11:57:37Z</time>
      </trkpt>
      <trkpt lat="45.26288" lon="6.71339">
        <ele>2195.31</ele>
        <time>2018-06-23T11:57:54Z</time>
      </trkpt>
      <trkpt lat="45.26299" lon="6.71332">
        <ele>2199.15</ele>
        <time>2018-06-23T11:58:12Z</time>
      </trkpt>
      <trkpt lat="45.26309" lon="6.71328">
        <ele>2199.15</ele>
        <time>2018-06-23T11:58:23Z</time>
      </trkpt>
      <trkpt lat="45.26319" lon="6.71318">
        <ele>2201.56</ele>
        <time>2018-06-23T11:58:40Z</time>
      </trkpt>
      <trkpt lat="45.26329" lon="6.71313">
        <ele>2202.04</ele>
        <time>2018-06-23T11:58:49Z</time>
      </trkpt>
      <trkpt lat="45.26342" lon="6.71292">
        <ele>2203.96</ele>
        <time>2018-06-23T11:59:09Z</time>
      </trkpt>
      <trkpt lat="45.26351" lon="6.7128">
        <ele>2206.36</ele>
        <time>2018-06-23T11:59:26Z</time>
      </trkpt>
      <trkpt lat="45.26356" lon="6.7127">
        <ele>2208.29</ele>
        <time>2018-06-23T11:59:37Z</time>
      </trkpt>
      <trkpt lat="45.26372" lon="6.71262">
        <ele>2208.77</ele>
        <time>2018-06-23T11:59:55Z</time>
      </trkpt>
      <trkpt lat="45.26386" lon="6.71254">
        <ele>2209.25</ele>
        <time>2018-06-23T12:00:11Z</time>
      </trkpt>
      <trkpt lat="45.26387" lon="6.71254">
        <ele>2209.25</ele>
        <time>2018-06-23T12:00:12Z</time>
      </trkpt>
      <trkpt lat="45.26398" lon="6.71239">
        <ele>2209.73</ele>
        <time>2018-06-23T12:00:32Z</time>
      </trkpt>
      <trkpt lat="45.26398" lon="6.71237">
        <ele>2200.59</ele>
        <time>2018-06-23T12:00:52Z</time>
      </trkpt>
      <trkpt lat="45.26398" lon="6.71238">
        <ele>2218.38</ele>
        <time>2018-06-23T12:00:53Z</time>
      </trkpt>
      <trkpt lat="45.26398" lon="6.71238">
        <ele>2209.25</ele>
        <time>2018-06-23T12:00:54Z</time>
      </trkpt>
      <trkpt lat="45.26398" lon="6.71238">
        <ele>2203.96</ele>
        <time>2018-06-23T12:00:55Z</time>
      </trkpt>
      <trkpt lat="45.26398" lon="6.71238">
        <ele>2213.57</ele>
        <time>2018-06-23T12:00:56Z</time>
      </trkpt>
      <trkpt lat="45.26398" lon="6.71238">
        <ele>2209.73</ele>
        <time>2018-06-23T12:00:57Z</time>
      </trkpt>
      <trkpt lat="45.264" lon="6.7124">
        <ele>2206.84</ele>
        <time>2018-06-23T12:01:13Z</time>
      </trkpt>
      <trkpt lat="45.26399" lon="6.71239">
        <ele>2211.17</ele>
        <time>2018-06-23T12:01:21Z</time>
      </trkpt>
      <trkpt lat="45.26399" lon="6.71239">
        <ele>2207.81</ele>
        <time>2018-06-23T12:01:22Z</time>
      </trkpt>
      <trkpt lat="45.26399" lon="6.71239">
        <ele>2207.81</ele>
        <time>2018-06-23T12:01:23Z</time>
      </trkpt>
      <trkpt lat="45.26401" lon="6.71237">
        <ele>2210.21</ele>
        <time>2018-06-23T12:01:26Z</time>
      </trkpt>
      <trkpt lat="45.26404" lon="6.71239">
        <ele>2208.77</ele>
        <time>2018-06-23T12:01:56Z</time>
      </trkpt>
      <trkpt lat="45.26403" lon="6.71239">
        <ele>2207.32</ele>
        <time>2018-06-23T12:01:58Z</time>
      </trkpt>
      <trkpt lat="45.26402" lon="6.71238">
        <ele>2208.77</ele>
        <time>2018-06-23T12:02:03Z</time>
      </trkpt>
      <trkpt lat="45.26402" lon="6.71239">
        <ele>2205.4</ele>
        <time>2018-06-23T12:02:09Z</time>
      </trkpt>
      <trkpt lat="45.26402" lon="6.71239">
        <ele>2209.25</ele>
        <time>2018-06-23T12:02:10Z</time>
      </trkpt>
      <trkpt lat="45.26403" lon="6.71239">
        <ele>2210.21</ele>
        <time>2018-06-23T12:02:15Z</time>
      </trkpt>
      <trkpt lat="45.26404" lon="6.71238">
        <ele>2204.92</ele>
        <time>2018-06-23T12:02:16Z</time>
      </trkpt>
      <trkpt lat="45.26404" lon="6.71238">
        <ele>2211.65</ele>
        <time>2018-06-23T12:02:17Z</time>
      </trkpt>
      <trkpt lat="45.26404" lon="6.71242">
        <ele>2208.77</ele>
        <time>2018-06-23T12:02:32Z</time>
      </trkpt>
      <trkpt lat="45.26402" lon="6.7124">
        <ele>2208.77</ele>
        <time>2018-06-23T12:02:59Z</time>
      </trkpt>
      <trkpt lat="45.26404" lon="6.71237">
        <ele>2204.44</ele>
        <time>2018-06-23T12:03:06Z</time>
      </trkpt>
      <trkpt lat="45.26404" lon="6.71237">
        <ele>2213.57</ele>
        <time>2018-06-23T12:03:07Z</time>
      </trkpt>
      <trkpt lat="45.26405" lon="6.71237">
        <ele>2208.29</ele>
        <time>2018-06-23T12:03:08Z</time>
      </trkpt>
      <trkpt lat="45.26409" lon="6.7124">
        <ele>2208.77</ele>
        <time>2018-06-23T12:03:19Z</time>
      </trkpt>
      <trkpt lat="45.26407" lon="6.71235">
        <ele>2209.25</ele>
        <time>2018-06-23T12:03:39Z</time>
      </trkpt>
      <trkpt lat="45.26408" lon="6.71234">
        <ele>2208.77</ele>
        <time>2018-06-23T12:03:43Z</time>
      </trkpt>
      <trkpt lat="45.2641" lon="6.71236">
        <ele>2209.25</ele>
        <time>2018-06-23T12:03:48Z</time>
      </trkpt>
      <trkpt lat="45.26423" lon="6.7124">
        <ele>2208.29</ele>
        <time>2018-06-23T12:04:04Z</time>
      </trkpt>
      <trkpt lat="45.26427" lon="6.71239">
        <ele>2209.73</ele>
        <time>2018-06-23T12:04:11Z</time>
      </trkpt>
      <trkpt lat="45.26431" lon="6.71238">
        <ele>2213.09</ele>
        <time>2018-06-23T12:04:23Z</time>
      </trkpt>
      <trkpt lat="45.26436" lon="6.71236">
        <ele>2212.13</ele>
        <time>2018-06-23T12:04:48Z</time>
      </trkpt>
      <trkpt lat="45.26449" lon="6.71231">
        <ele>2212.13</ele>
        <time>2018-06-23T12:05:04Z</time>
      </trkpt>
      <trkpt lat="45.2646" lon="6.71225">
        <ele>2212.61</ele>
        <time>2018-06-23T12:05:15Z</time>
      </trkpt>
      <trkpt lat="45.26468" lon="6.7122">
        <ele>2214.53</ele>
        <time>2018-06-23T12:05:23Z</time>
      </trkpt>
      <trkpt lat="45.26475" lon="6.71218">
        <ele>2211.65</ele>
        <time>2018-06-23T12:05:32Z</time>
      </trkpt>
      <trkpt lat="45.26476" lon="6.71219">
        <ele>2206.36</ele>
        <time>2018-06-23T12:05:38Z</time>
      </trkpt>
      <trkpt lat="45.26477" lon="6.71225">
        <ele>2210.69</ele>
        <time>2018-06-23T12:05:41Z</time>
      </trkpt>
      <trkpt lat="45.26477" lon="6.71229">
        <ele>2212.61</ele>
        <time>2018-06-23T12:05:44Z</time>
      </trkpt>
      <trkpt lat="45.26478" lon="6.71232">
        <ele>2212.13</ele>
        <time>2018-06-23T12:05:46Z</time>
      </trkpt>
      <trkpt lat="45.26478" lon="6.71233">
        <ele>2212.13</ele>
        <time>2018-06-23T12:05:47Z</time>
      </trkpt>
      <trkpt lat="45.26486" lon="6.7123">
        <ele>2212.13</ele>
        <time>2018-06-23T12:05:49Z</time>
      </trkpt>
      <trkpt lat="45.26489" lon="6.71229">
        <ele>2212.13</ele>
        <time>2018-06-23T12:05:50Z</time>
      </trkpt>
      <trkpt lat="45.26493" lon="6.71225">
        <ele>2213.57</ele>
        <time>2018-06-23T12:05:53Z</time>
      </trkpt>
      <trkpt lat="45.26495" lon="6.71201">
        <ele>2214.53</ele>
        <time>2018-06-23T12:06:06Z</time>
      </trkpt>
      <trkpt lat="45.26494" lon="6.71197">
        <ele>2213.57</ele>
        <time>2018-06-23T12:06:20Z</time>
      </trkpt>
      <trkpt lat="45.26496" lon="6.71192">
        <ele>2215.01</ele>
        <time>2018-06-23T12:06:47Z</time>
      </trkpt>
      <trkpt lat="45.26499" lon="6.71174">
        <ele>2216.94</ele>
        <time>2018-06-23T12:07:01Z</time>
      </trkpt>
      <trkpt lat="45.26507" lon="6.71166">
        <ele>2216.46</ele>
        <time>2018-06-23T12:07:20Z</time>
      </trkpt>
      <trkpt lat="45.26507" lon="6.71163">
        <ele>2216.46</ele>
        <time>2018-06-23T12:07:47Z</time>
      </trkpt>
      <trkpt lat="45.26504" lon="6.71165">
        <ele>2216.46</ele>
        <time>2018-06-23T12:08:00Z</time>
      </trkpt>
      <trkpt lat="45.26503" lon="6.71164">
        <ele>2218.38</ele>
        <time>2018-06-23T12:08:03Z</time>
      </trkpt>
      <trkpt lat="45.26508" lon="6.71153">
        <ele>2219.82</ele>
        <time>2018-06-23T12:08:12Z</time>
      </trkpt>
      <trkpt lat="45.26509" lon="6.71147">
        <ele>2220.3</ele>
        <time>2018-06-23T12:08:15Z</time>
      </trkpt>
      <trkpt lat="45.26511" lon="6.71126">
        <ele>2225.59</ele>
        <time>2018-06-23T12:08:25Z</time>
      </trkpt>
      <trkpt lat="45.26511" lon="6.71125">
        <ele>2223.19</ele>
        <time>2018-06-23T12:08:26Z</time>
      </trkpt>
      <trkpt lat="45.26514" lon="6.71115">
        <ele>2224.63</ele>
        <time>2018-06-23T12:08:35Z</time>
      </trkpt>
      <trkpt lat="45.26514" lon="6.71114">
        <ele>2223.19</ele>
        <time>2018-06-23T12:08:37Z</time>
      </trkpt>
      <trkpt lat="45.26518" lon="6.71111">
        <ele>2223.19</ele>
        <time>2018-06-23T12:08:42Z</time>
      </trkpt>
      <trkpt lat="45.2653" lon="6.71102">
        <ele>2223.19</ele>
        <time>2018-06-23T12:08:54Z</time>
      </trkpt>
      <trkpt lat="45.26538" lon="6.71102">
        <ele>2226.07</ele>
        <time>2018-06-23T12:09:06Z</time>
      </trkpt>
      <trkpt lat="45.26548" lon="6.71098">
        <ele>2229.92</ele>
        <time>2018-06-23T12:09:14Z</time>
      </trkpt>
      <trkpt lat="45.26559" lon="6.71099">
        <ele>2227.51</ele>
        <time>2018-06-23T12:09:34Z</time>
      </trkpt>
      <trkpt lat="45.26558" lon="6.71097">
        <ele>2229.43</ele>
        <time>2018-06-23T12:09:50Z</time>
      </trkpt>
      <trkpt lat="45.26561" lon="6.7109">
        <ele>2228.47</ele>
        <time>2018-06-23T12:10:01Z</time>
      </trkpt>
      <trkpt lat="45.26563" lon="6.7109">
        <ele>2229.92</ele>
        <time>2018-06-23T12:10:04Z</time>
      </trkpt>
      <trkpt lat="45.26564" lon="6.71088">
        <ele>2231.84</ele>
        <time>2018-06-23T12:10:08Z</time>
      </trkpt>
      <trkpt lat="45.26567" lon="6.71083">
        <ele>2233.76</ele>
        <time>2018-06-23T12:10:16Z</time>
      </trkpt>
      <trkpt lat="45.26576" lon="6.71083">
        <ele>2234.24</ele>
        <time>2018-06-23T12:10:29Z</time>
      </trkpt>
      <trkpt lat="45.26577" lon="6.7108">
        <ele>2235.68</ele>
        <time>2018-06-23T12:10:45Z</time>
      </trkpt>
      <trkpt lat="45.26578" lon="6.71079">
        <ele>2234.24</ele>
        <time>2018-06-23T12:10:48Z</time>
      </trkpt>
      <trkpt lat="45.26573" lon="6.7107">
        <ele>2235.68</ele>
        <time>2018-06-23T12:10:57Z</time>
      </trkpt>
      <trkpt lat="45.26574" lon="6.7107">
        <ele>2234.24</ele>
        <time>2018-06-23T12:10:59Z</time>
      </trkpt>
      <trkpt lat="45.26587" lon="6.71081">
        <ele>2233.28</ele>
        <time>2018-06-23T12:11:11Z</time>
      </trkpt>
      <trkpt lat="45.26578" lon="6.71102">
        <ele>2233.76</ele>
        <time>2018-06-23T12:11:27Z</time>
      </trkpt>
      <trkpt lat="45.26575" lon="6.71108">
        <ele>2233.76</ele>
        <time>2018-06-23T12:11:34Z</time>
      </trkpt>
      <trkpt lat="45.26568" lon="6.71116">
        <ele>2234.24</ele>
        <time>2018-06-23T12:11:51Z</time>
      </trkpt>
      <trkpt lat="45.26569" lon="6.71116">
        <ele>2235.2</ele>
        <time>2018-06-23T12:12:07Z</time>
      </trkpt>
      <trkpt lat="45.26568" lon="6.71117">
        <ele>2234.72</ele>
        <time>2018-06-23T12:12:14Z</time>
      </trkpt>
      <trkpt lat="45.26568" lon="6.71111">
        <ele>2232.8</ele>
        <time>2018-06-23T12:12:23Z</time>
      </trkpt>
      <trkpt lat="45.26568" lon="6.71115">
        <ele>2234.24</ele>
        <time>2018-06-23T12:12:44Z</time>
      </trkpt>
      <trkpt lat="45.26568" lon="6.71115">
        <ele>2234.72</ele>
        <time>2018-06-23T12:13:16Z</time>
      </trkpt>
      <trkpt lat="45.26569" lon="6.71116">
        <ele>2233.76</ele>
        <time>2018-06-23T12:13:29Z</time>
      </trkpt>
      <trkpt lat="45.26569" lon="6.71117">
        <ele>2234.24</ele>
        <time>2018-06-23T12:13:49Z</time>
      </trkpt>
      <trkpt lat="45.26567" lon="6.71116">
        <ele>2234.24</ele>
        <time>2018-06-23T12:14:13Z</time>
      </trkpt>
      <trkpt lat="45.26568" lon="6.7111">
        <ele>2233.76</ele>
        <time>2018-06-23T12:14:33Z</time>
      </trkpt>
      <trkpt lat="45.26567" lon="6.71108">
        <ele>2233.76</ele>
        <time>2018-06-23T12:15:07Z</time>
      </trkpt>
      <trkpt lat="45.26565" lon="6.71105">
        <ele>2234.24</ele>
        <time>2018-06-23T12:15:40Z</time>
      </trkpt>
      <trkpt lat="45.26569" lon="6.71111">
        <ele>2234.72</ele>
        <time>2018-06-23T12:16:17Z</time>
      </trkpt>
      <trkpt lat="45.26569" lon="6.71112">
        <ele>2234.72</ele>
        <time>2018-06-23T12:16:56Z</time>
      </trkpt>
      <trkpt lat="45.26569" lon="6.71114">
        <ele>2234.72</ele>
        <time>2018-06-23T12:17:28Z</time>
      </trkpt>
      <trkpt lat="45.26568" lon="6.71107">
        <ele>2233.76</ele>
        <time>2018-06-23T12:17:58Z</time>
      </trkpt>
      <trkpt lat="45.26568" lon="6.71111">
        <ele>2234.72</ele>
        <time>2018-06-23T12:18:11Z</time>
      </trkpt>
      <trkpt lat="45.26565" lon="6.71111">
        <ele>2235.2</ele>
        <time>2018-06-23T12:18:50Z</time>
      </trkpt>
      <trkpt lat="45.26568" lon="6.71114">
        <ele>2234.24</ele>
        <time>2018-06-23T12:19:26Z</time>
      </trkpt>
      <trkpt lat="45.26568" lon="6.71113">
        <ele>2235.68</ele>
        <time>2018-06-23T12:20:01Z</time>
      </trkpt>
      <trkpt lat="45.2657" lon="6.71114">
        <ele>2233.76</ele>
        <time>2018-06-23T12:20:04Z</time>
      </trkpt>
      <trkpt lat="45.2657" lon="6.71113">
        <ele>2235.68</ele>
        <time>2018-06-23T12:20:07Z</time>
      </trkpt>
      <trkpt lat="45.2657" lon="6.71111">
        <ele>2234.24</ele>
        <time>2018-06-23T12:20:40Z</time>
      </trkpt>
      <trkpt lat="45.26571" lon="6.71112">
        <ele>2235.68</ele>
        <time>2018-06-23T12:20:46Z</time>
      </trkpt>
      <trkpt lat="45.26568" lon="6.71111">
        <ele>2235.68</ele>
        <time>2018-06-23T12:21:13Z</time>
      </trkpt>
      <trkpt lat="45.26568" lon="6.71108">
        <ele>2236.16</ele>
        <time>2018-06-23T12:21:45Z</time>
      </trkpt>
      <trkpt lat="45.26568" lon="6.71109">
        <ele>2234.72</ele>
        <time>2018-06-23T12:22:20Z</time>
      </trkpt>
      <trkpt lat="45.26568" lon="6.71108">
        <ele>2234.72</ele>
        <time>2018-06-23T12:22:49Z</time>
      </trkpt>
      <trkpt lat="45.26568" lon="6.71111">
        <ele>2236.64</ele>
        <time>2018-06-23T12:23:18Z</time>
      </trkpt>
      <trkpt lat="45.26567" lon="6.71109">
        <ele>2236.64</ele>
        <time>2018-06-23T12:23:44Z</time>
      </trkpt>
      <trkpt lat="45.26567" lon="6.71104">
        <ele>2233.28</ele>
        <time>2018-06-23T12:24:05Z</time>
      </trkpt>
      <trkpt lat="45.26567" lon="6.71104">
        <ele>2233.28</ele>
        <time>2018-06-23T12:24:06Z</time>
      </trkpt>
      <trkpt lat="45.26567" lon="6.71104">
        <ele>2234.72</ele>
        <time>2018-06-23T12:24:08Z</time>
      </trkpt>
      <trkpt lat="45.26568" lon="6.71106">
        <ele>2235.68</ele>
        <time>2018-06-23T12:24:38Z</time>
      </trkpt>
      <trkpt lat="45.26566" lon="6.71099">
        <ele>2236.16</ele>
        <time>2018-06-23T12:25:02Z</time>
      </trkpt>
      <trkpt lat="45.26565" lon="6.71101">
        <ele>2237.13</ele>
        <time>2018-06-23T12:25:30Z</time>
      </trkpt>
      <trkpt lat="45.26566" lon="6.71108">
        <ele>2236.16</ele>
        <time>2018-06-23T12:25:54Z</time>
      </trkpt>
      <trkpt lat="45.26566" lon="6.71111">
        <ele>2235.68</ele>
        <time>2018-06-23T12:26:20Z</time>
      </trkpt>
      <trkpt lat="45.26567" lon="6.71111">
        <ele>2236.64</ele>
        <time>2018-06-23T12:26:28Z</time>
      </trkpt>
      <trkpt lat="45.26567" lon="6.7111">
        <ele>2236.64</ele>
        <time>2018-06-23T12:26:49Z</time>
      </trkpt>
      <trkpt lat="45.26567" lon="6.71107">
        <ele>2236.64</ele>
        <time>2018-06-23T12:27:14Z</time>
      </trkpt>
      <trkpt lat="45.26567" lon="6.71101">
        <ele>2237.13</ele>
        <time>2018-06-23T12:27:39Z</time>
      </trkpt>
      <trkpt lat="45.26566" lon="6.71102">
        <ele>2236.16</ele>
        <time>2018-06-23T12:28:03Z</time>
      </trkpt>
      <trkpt lat="45.26567" lon="6.71107">
        <ele>2237.61</ele>
        <time>2018-06-23T12:28:28Z</time>
      </trkpt>
      <trkpt lat="45.26563" lon="6.71102">
        <ele>2236.64</ele>
        <time>2018-06-23T12:28:49Z</time>
      </trkpt>
      <trkpt lat="45.26564" lon="6.71102">
        <ele>2235.68</ele>
        <time>2018-06-23T12:28:51Z</time>
      </trkpt>
      <trkpt lat="45.26566" lon="6.71107">
        <ele>2237.61</ele>
        <time>2018-06-23T12:29:14Z</time>
      </trkpt>
      <trkpt lat="45.26565" lon="6.71104">
        <ele>2238.09</ele>
        <time>2018-06-23T12:29:35Z</time>
      </trkpt>
      <trkpt lat="45.26564" lon="6.71101">
        <ele>2238.57</ele>
        <time>2018-06-23T12:29:51Z</time>
      </trkpt>
      <trkpt lat="45.26563" lon="6.71102">
        <ele>2238.57</ele>
        <time>2018-06-23T12:30:11Z</time>
      </trkpt>
      <trkpt lat="45.26563" lon="6.71099">
        <ele>2239.05</ele>
        <time>2018-06-23T12:30:29Z</time>
      </trkpt>
      <trkpt lat="45.26561" lon="6.71095">
        <ele>2239.53</ele>
        <time>2018-06-23T12:30:50Z</time>
      </trkpt>
      <trkpt lat="45.26561" lon="6.71096">
        <ele>2239.53</ele>
        <time>2018-06-23T12:31:10Z</time>
      </trkpt>
      <trkpt lat="45.2656" lon="6.71095">
        <ele>2238.57</ele>
        <time>2018-06-23T12:31:36Z</time>
      </trkpt>
      <trkpt lat="45.26562" lon="6.71099">
        <ele>2239.05</ele>
        <time>2018-06-23T12:31:59Z</time>
      </trkpt>
      <trkpt lat="45.26564" lon="6.71101">
        <ele>2239.05</ele>
        <time>2018-06-23T12:32:26Z</time>
      </trkpt>
      <trkpt lat="45.26565" lon="6.71102">
        <ele>2239.05</ele>
        <time>2018-06-23T12:32:52Z</time>
      </trkpt>
      <trkpt lat="45.26566" lon="6.71103">
        <ele>2239.05</ele>
        <time>2018-06-23T12:33:15Z</time>
      </trkpt>
      <trkpt lat="45.26565" lon="6.71101">
        <ele>2240.01</ele>
        <time>2018-06-23T12:33:32Z</time>
      </trkpt>
      <trkpt lat="45.26565" lon="6.71106">
        <ele>2239.53</ele>
        <time>2018-06-23T12:33:57Z</time>
      </trkpt>
      <trkpt lat="45.26565" lon="6.71105">
        <ele>2240.49</ele>
        <time>2018-06-23T12:34:05Z</time>
      </trkpt>
      <trkpt lat="45.26566" lon="6.71107">
        <ele>2239.53</ele>
        <time>2018-06-23T12:34:37Z</time>
      </trkpt>
      <trkpt lat="45.26565" lon="6.71103">
        <ele>2241.45</ele>
        <time>2018-06-23T12:35:18Z</time>
      </trkpt>
      <trkpt lat="45.26563" lon="6.71094">
        <ele>2241.93</ele>
        <time>2018-06-23T12:35:51Z</time>
      </trkpt>
      <trkpt lat="45.26565" lon="6.71107">
        <ele>2241.93</ele>
        <time>2018-06-23T12:36:24Z</time>
      </trkpt>
      <trkpt lat="45.26562" lon="6.71088">
        <ele>2240.97</ele>
        <time>2018-06-23T12:36:45Z</time>
      </trkpt>
      <trkpt lat="45.26564" lon="6.7109">
        <ele>2241.45</ele>
        <time>2018-06-23T12:36:56Z</time>
      </trkpt>
      <trkpt lat="45.26559" lon="6.71095">
        <ele>2242.41</ele>
        <time>2018-06-23T12:37:35Z</time>
      </trkpt>
      <trkpt lat="45.26555" lon="6.7108">
        <ele>2243.37</ele>
        <time>2018-06-23T12:38:15Z</time>
      </trkpt>
      <trkpt lat="45.26557" lon="6.71072">
        <ele>2243.85</ele>
        <time>2018-06-23T12:38:53Z</time>
      </trkpt>
      <trkpt lat="45.26558" lon="6.71077">
        <ele>2243.37</ele>
        <time>2018-06-23T12:39:27Z</time>
      </trkpt>
      <trkpt lat="45.26551" lon="6.71084">
        <ele>2243.37</ele>
        <time>2018-06-23T12:40:00Z</time>
      </trkpt>
      <trkpt lat="45.26543" lon="6.71092">
        <ele>2245.3</ele>
        <time>2018-06-23T12:40:30Z</time>
      </trkpt>
      <trkpt lat="45.26557" lon="6.71093">
        <ele>2245.78</ele>
        <time>2018-06-23T12:41:11Z</time>
      </trkpt>
      <trkpt lat="45.26557" lon="6.71081">
        <ele>2246.26</ele>
        <time>2018-06-23T12:41:43Z</time>
      </trkpt>
      <trkpt lat="45.26554" lon="6.71032">
        <ele>2246.26</ele>
        <time>2018-06-23T12:42:08Z</time>
      </trkpt>
      <trkpt lat="45.26557" lon="6.7104">
        <ele>2246.74</ele>
        <time>2018-06-23T12:42:40Z</time>
      </trkpt>
      <trkpt lat="45.26556" lon="6.71068">
        <ele>2246.74</ele>
        <time>2018-06-23T12:43:05Z</time>
      </trkpt>
      <trkpt lat="45.26558" lon="6.7107">
        <ele>2247.22</ele>
        <time>2018-06-23T12:43:32Z</time>
      </trkpt>
      <trkpt lat="45.26559" lon="6.71084">
        <ele>2247.22</ele>
        <time>2018-06-23T12:44:05Z</time>
      </trkpt>
      <trkpt lat="45.26563" lon="6.71099">
        <ele>2247.22</ele>
        <time>2018-06-23T12:44:40Z</time>
      </trkpt>
      <trkpt lat="45.26561" lon="6.71098">
        <ele>2247.22</ele>
        <time>2018-06-23T12:45:07Z</time>
      </trkpt>
      <trkpt lat="45.26562" lon="6.71091">
        <ele>2247.7</ele>
        <time>2018-06-23T12:45:41Z</time>
      </trkpt>
      <trkpt lat="45.2656" lon="6.71088">
        <ele>2247.7</ele>
        <time>2018-06-23T12:46:09Z</time>
      </trkpt>
      <trkpt lat="45.26557" lon="6.71087">
        <ele>2246.74</ele>
        <time>2018-06-23T12:46:35Z</time>
      </trkpt>
      <trkpt lat="45.26555" lon="6.71078">
        <ele>2246.74</ele>
        <time>2018-06-23T12:47:02Z</time>
      </trkpt>
      <trkpt lat="45.26555" lon="6.71075">
        <ele>2248.66</ele>
        <time>2018-06-23T12:47:25Z</time>
      </trkpt>
      <trkpt lat="45.26556" lon="6.71076">
        <ele>2248.66</ele>
        <time>2018-06-23T12:47:37Z</time>
      </trkpt>
      <trkpt lat="45.26558" lon="6.71082">
        <ele>2248.66</ele>
        <time>2018-06-23T12:47:53Z</time>
      </trkpt>
      <trkpt lat="45.2656" lon="6.71097">
        <ele>2248.66</ele>
        <time>2018-06-23T12:48:05Z</time>
      </trkpt>
      <trkpt lat="45.26563" lon="6.71103">
        <ele>2249.14</ele>
        <time>2018-06-23T12:48:24Z</time>
      </trkpt>
      <trkpt lat="45.26564" lon="6.71104">
        <ele>2249.14</ele>
        <time>2018-06-23T12:48:41Z</time>
      </trkpt>
      <trkpt lat="45.26564" lon="6.71105">
        <ele>2249.14</ele>
        <time>2018-06-23T12:49:09Z</time>
      </trkpt>
      <trkpt lat="45.26564" lon="6.71105">
        <ele>2248.66</ele>
        <time>2018-06-23T12:49:31Z</time>
      </trkpt>
      <trkpt lat="45.26564" lon="6.71105">
        <ele>2248.66</ele>
        <time>2018-06-23T12:49:32Z</time>
      </trkpt>
      <trkpt lat="45.26565" lon="6.71107">
        <ele>2249.62</ele>
        <time>2018-06-23T12:49:55Z</time>
      </trkpt>
      <trkpt lat="45.26565" lon="6.71108">
        <ele>2249.62</ele>
        <time>2018-06-23T12:50:15Z</time>
      </trkpt>
      <trkpt lat="45.26565" lon="6.71106">
        <ele>2249.62</ele>
        <time>2018-06-23T12:50:32Z</time>
      </trkpt>
      <trkpt lat="45.26564" lon="6.71108">
        <ele>2249.62</ele>
        <time>2018-06-23T12:50:44Z</time>
      </trkpt>
      <trkpt lat="45.26563" lon="6.71106">
        <ele>2249.62</ele>
        <time>2018-06-23T12:51:13Z</time>
      </trkpt>
      <trkpt lat="45.26564" lon="6.71103">
        <ele>2250.1</ele>
        <time>2018-06-23T12:51:38Z</time>
      </trkpt>
      <trkpt lat="45.26563" lon="6.71101">
        <ele>2250.1</ele>
        <time>2018-06-23T12:51:59Z</time>
      </trkpt>
      <trkpt lat="45.26564" lon="6.71098">
        <ele>2250.1</ele>
        <time>2018-06-23T12:52:40Z</time>
      </trkpt>
      <trkpt lat="45.26565" lon="6.71099">
        <ele>2250.1</ele>
        <time>2018-06-23T12:53:11Z</time>
      </trkpt>
      <trkpt lat="45.26565" lon="6.711">
        <ele>2248.66</ele>
        <time>2018-06-23T12:53:13Z</time>
      </trkpt>
      <trkpt lat="45.26565" lon="6.71101">
        <ele>2248.66</ele>
        <time>2018-06-23T12:53:49Z</time>
      </trkpt>
      <trkpt lat="45.26566" lon="6.71105">
        <ele>2249.14</ele>
        <time>2018-06-23T12:54:28Z</time>
      </trkpt>
      <trkpt lat="45.26566" lon="6.71106">
        <ele>2250.1</ele>
        <time>2018-06-23T12:55:03Z</time>
      </trkpt>
      <trkpt lat="45.26564" lon="6.711">
        <ele>2250.58</ele>
        <time>2018-06-23T12:55:36Z</time>
      </trkpt>
      <trkpt lat="45.26565" lon="6.71099">
        <ele>2249.62</ele>
        <time>2018-06-23T12:56:04Z</time>
      </trkpt>
      <trkpt lat="45.26564" lon="6.71105">
        <ele>2249.14</ele>
        <time>2018-06-23T12:56:25Z</time>
      </trkpt>
      <trkpt lat="45.26565" lon="6.71108">
        <ele>2250.1</ele>
        <time>2018-06-23T12:56:42Z</time>
      </trkpt>
      <trkpt lat="45.26566" lon="6.71108">
        <ele>2248.66</ele>
        <time>2018-06-23T12:56:58Z</time>
      </trkpt>
      <trkpt lat="45.26566" lon="6.71109">
        <ele>2250.1</ele>
        <time>2018-06-23T12:57:05Z</time>
      </trkpt>
      <trkpt lat="45.26568" lon="6.71111">
        <ele>2248.66</ele>
        <time>2018-06-23T12:57:29Z</time>
      </trkpt>
      <trkpt lat="45.26567" lon="6.7111">
        <ele>2248.66</ele>
        <time>2018-06-23T12:57:51Z</time>
      </trkpt>
      <trkpt lat="45.26567" lon="6.7111">
        <ele>2248.18</ele>
        <time>2018-06-23T12:58:11Z</time>
      </trkpt>
      <trkpt lat="45.26568" lon="6.71113">
        <ele>2248.18</ele>
        <time>2018-06-23T12:58:31Z</time>
      </trkpt>
      <trkpt lat="45.26567" lon="6.71112">
        <ele>2248.18</ele>
        <time>2018-06-23T12:58:58Z</time>
      </trkpt>
      <trkpt lat="45.26565" lon="6.7111">
        <ele>2249.14</ele>
        <time>2018-06-23T12:59:20Z</time>
      </trkpt>
      <trkpt lat="45.26564" lon="6.71108">
        <ele>2250.1</ele>
        <time>2018-06-23T12:59:44Z</time>
      </trkpt>
      <trkpt lat="45.26565" lon="6.71108">
        <ele>2250.1</ele>
        <time>2018-06-23T13:00:09Z</time>
      </trkpt>
      <trkpt lat="45.26565" lon="6.71109">
        <ele>2250.1</ele>
        <time>2018-06-23T13:00:27Z</time>
      </trkpt>
      <trkpt lat="45.26566" lon="6.7111">
        <ele>2249.62</ele>
        <time>2018-06-23T13:01:00Z</time>
      </trkpt>
      <trkpt lat="45.26566" lon="6.71111">
        <ele>2250.1</ele>
        <time>2018-06-23T13:01:30Z</time>
      </trkpt>
      <trkpt lat="45.26565" lon="6.71111">
        <ele>2250.1</ele>
        <time>2018-06-23T13:01:51Z</time>
      </trkpt>
      <trkpt lat="45.26564" lon="6.71111">
        <ele>2250.1</ele>
        <time>2018-06-23T13:02:13Z</time>
      </trkpt>
      <trkpt lat="45.26564" lon="6.71109">
        <ele>2250.1</ele>
        <time>2018-06-23T13:02:36Z</time>
      </trkpt>
      <trkpt lat="45.26563" lon="6.71108">
        <ele>2250.58</ele>
        <time>2018-06-23T13:03:02Z</time>
      </trkpt>
      <trkpt lat="45.26563" lon="6.71107">
        <ele>2250.58</ele>
        <time>2018-06-23T13:03:22Z</time>
      </trkpt>
      <trkpt lat="45.26563" lon="6.71105">
        <ele>2250.58</ele>
        <time>2018-06-23T13:03:46Z</time>
      </trkpt>
      <trkpt lat="45.26562" lon="6.71108">
        <ele>2250.58</ele>
        <time>2018-06-23T13:04:07Z</time>
      </trkpt>
      <trkpt lat="45.26564" lon="6.71108">
        <ele>2250.58</ele>
        <time>2018-06-23T13:04:32Z</time>
      </trkpt>
      <trkpt lat="45.26565" lon="6.71108">
        <ele>2250.58</ele>
        <time>2018-06-23T13:05:03Z</time>
      </trkpt>
      <trkpt lat="45.26566" lon="6.71107">
        <ele>2249.62</ele>
        <time>2018-06-23T13:05:22Z</time>
      </trkpt>
      <trkpt lat="45.26566" lon="6.71107">
        <ele>2249.14</ele>
        <time>2018-06-23T13:05:45Z</time>
      </trkpt>
      <trkpt lat="45.26564" lon="6.71108">
        <ele>2250.58</ele>
        <time>2018-06-23T13:06:07Z</time>
      </trkpt>
      <trkpt lat="45.26565" lon="6.71109">
        <ele>2249.14</ele>
        <time>2018-06-23T13:06:18Z</time>
      </trkpt>
      <trkpt lat="45.26564" lon="6.71109">
        <ele>2249.62</ele>
        <time>2018-06-23T13:06:40Z</time>
      </trkpt>
      <trkpt lat="45.26564" lon="6.71108">
        <ele>2249.62</ele>
        <time>2018-06-23T13:07:03Z</time>
      </trkpt>
      <trkpt lat="45.26564" lon="6.71108">
        <ele>2249.62</ele>
        <time>2018-06-23T13:07:23Z</time>
      </trkpt>
      <trkpt lat="45.26563" lon="6.7111">
        <ele>2249.62</ele>
        <time>2018-06-23T13:07:45Z</time>
      </trkpt>
      <trkpt lat="45.26564" lon="6.71109">
        <ele>2249.62</ele>
        <time>2018-06-23T13:08:05Z</time>
      </trkpt>
      <trkpt lat="45.26565" lon="6.7111">
        <ele>2248.66</ele>
        <time>2018-06-23T13:08:13Z</time>
      </trkpt>
      <trkpt lat="45.26566" lon="6.7111">
        <ele>2248.18</ele>
        <time>2018-06-23T13:08:35Z</time>
      </trkpt>
      <trkpt lat="45.26567" lon="6.71108">
        <ele>2249.14</ele>
        <time>2018-06-23T13:09:01Z</time>
      </trkpt>
      <trkpt lat="45.26566" lon="6.71112">
        <ele>2248.18</ele>
        <time>2018-06-23T13:09:29Z</time>
      </trkpt>
      <trkpt lat="45.26565" lon="6.71111">
        <ele>2248.18</ele>
        <time>2018-06-23T13:09:53Z</time>
      </trkpt>
      <trkpt lat="45.26565" lon="6.71109">
        <ele>2249.14</ele>
        <time>2018-06-23T13:10:13Z</time>
      </trkpt>
      <trkpt lat="45.26564" lon="6.71109">
        <ele>2249.14</ele>
        <time>2018-06-23T13:10:37Z</time>
      </trkpt>
      <trkpt lat="45.26564" lon="6.7111">
        <ele>2249.14</ele>
        <time>2018-06-23T13:11:06Z</time>
      </trkpt>
      <trkpt lat="45.26566" lon="6.71108">
        <ele>2249.14</ele>
        <time>2018-06-23T13:11:27Z</time>
      </trkpt>
      <trkpt lat="45.26565" lon="6.71109">
        <ele>2249.14</ele>
        <time>2018-06-23T13:11:52Z</time>
      </trkpt>
      <trkpt lat="45.26565" lon="6.7111">
        <ele>2249.62</ele>
        <time>2018-06-23T13:12:17Z</time>
      </trkpt>
      <trkpt lat="45.26565" lon="6.71109">
        <ele>2248.18</ele>
        <time>2018-06-23T13:12:45Z</time>
      </trkpt>
      <trkpt lat="45.26566" lon="6.71109">
        <ele>2248.18</ele>
        <time>2018-06-23T13:13:07Z</time>
      </trkpt>
      <trkpt lat="45.26566" lon="6.71111">
        <ele>2248.18</ele>
        <time>2018-06-23T13:13:30Z</time>
      </trkpt>
      <trkpt lat="45.26567" lon="6.71113">
        <ele>2249.14</ele>
        <time>2018-06-23T13:13:57Z</time>
      </trkpt>
      <trkpt lat="45.26568" lon="6.71112">
        <ele>2249.14</ele>
        <time>2018-06-23T13:14:18Z</time>
      </trkpt>
      <trkpt lat="45.26567" lon="6.71112">
        <ele>2249.14</ele>
        <time>2018-06-23T13:14:44Z</time>
      </trkpt>
      <trkpt lat="45.26567" lon="6.71112">
        <ele>2247.7</ele>
        <time>2018-06-23T13:15:14Z</time>
      </trkpt>
      <trkpt lat="45.26565" lon="6.71111">
        <ele>2247.7</ele>
        <time>2018-06-23T13:15:37Z</time>
      </trkpt>
      <trkpt lat="45.26564" lon="6.71112">
        <ele>2247.7</ele>
        <time>2018-06-23T13:15:57Z</time>
      </trkpt>
      <trkpt lat="45.26567" lon="6.71111">
        <ele>2247.22</ele>
        <time>2018-06-23T13:16:18Z</time>
      </trkpt>
      <trkpt lat="45.26568" lon="6.71112">
        <ele>2247.22</ele>
        <time>2018-06-23T13:16:37Z</time>
      </trkpt>
      <trkpt lat="45.26568" lon="6.7111">
        <ele>2247.22</ele>
        <time>2018-06-23T13:17:06Z</time>
      </trkpt>
      <trkpt lat="45.26568" lon="6.71112">
        <ele>2246.74</ele>
        <time>2018-06-23T13:17:26Z</time>
      </trkpt>
      <trkpt lat="45.26567" lon="6.71113">
        <ele>2246.74</ele>
        <time>2018-06-23T13:17:44Z</time>
      </trkpt>
      <trkpt lat="45.26567" lon="6.7111">
        <ele>2246.74</ele>
        <time>2018-06-23T13:18:05Z</time>
      </trkpt>
      <trkpt lat="45.26566" lon="6.7111">
        <ele>2246.74</ele>
        <time>2018-06-23T13:18:34Z</time>
      </trkpt>
      <trkpt lat="45.26565" lon="6.7111">
        <ele>2246.74</ele>
        <time>2018-06-23T13:19:00Z</time>
      </trkpt>
      <trkpt lat="45.26565" lon="6.7111">
        <ele>2246.74</ele>
        <time>2018-06-23T13:19:27Z</time>
      </trkpt>
      <trkpt lat="45.26567" lon="6.71111">
        <ele>2246.74</ele>
        <time>2018-06-23T13:19:51Z</time>
      </trkpt>
      <trkpt lat="45.26568" lon="6.71112">
        <ele>2246.26</ele>
        <time>2018-06-23T13:20:10Z</time>
      </trkpt>
      <trkpt lat="45.26567" lon="6.71112">
        <ele>2246.74</ele>
        <time>2018-06-23T13:20:31Z</time>
      </trkpt>
      <trkpt lat="45.26568" lon="6.7111">
        <ele>2246.74</ele>
        <time>2018-06-23T13:20:51Z</time>
      </trkpt>
      <trkpt lat="45.26564" lon="6.71111">
        <ele>2244.82</ele>
        <time>2018-06-23T13:21:15Z</time>
      </trkpt>
      <trkpt lat="45.26563" lon="6.71111">
        <ele>2246.26</ele>
        <time>2018-06-23T13:21:19Z</time>
      </trkpt>
      <trkpt lat="45.26563" lon="6.71111">
        <ele>2245.78</ele>
        <time>2018-06-23T13:21:46Z</time>
      </trkpt>
      <trkpt lat="45.26563" lon="6.71111">
        <ele>2246.74</ele>
        <time>2018-06-23T13:21:48Z</time>
      </trkpt>
      <trkpt lat="45.26564" lon="6.71111">
        <ele>2245.3</ele>
        <time>2018-06-23T13:21:53Z</time>
      </trkpt>
      <trkpt lat="45.26565" lon="6.71111">
        <ele>2246.74</ele>
        <time>2018-06-23T13:22:17Z</time>
      </trkpt>
      <trkpt lat="45.26567" lon="6.71112">
        <ele>2246.74</ele>
        <time>2018-06-23T13:22:45Z</time>
      </trkpt>
      <trkpt lat="45.26563" lon="6.71111">
        <ele>2246.74</ele>
        <time>2018-06-23T13:23:02Z</time>
      </trkpt>
      <trkpt lat="45.26564" lon="6.71111">
        <ele>2246.74</ele>
        <time>2018-06-23T13:23:21Z</time>
      </trkpt>
      <trkpt lat="45.26565" lon="6.71111">
        <ele>2246.74</ele>
        <time>2018-06-23T13:23:55Z</time>
      </trkpt>
      <trkpt lat="45.26566" lon="6.71111">
        <ele>2247.22</ele>
        <time>2018-06-23T13:24:17Z</time>
      </trkpt>
      <trkpt lat="45.26566" lon="6.71111">
        <ele>2247.22</ele>
        <time>2018-06-23T13:24:38Z</time>
      </trkpt>
      <trkpt lat="45.26566" lon="6.71111">
        <ele>2245.78</ele>
        <time>2018-06-23T13:24:43Z</time>
      </trkpt>
      <trkpt lat="45.26564" lon="6.7111">
        <ele>2245.78</ele>
        <time>2018-06-23T13:25:06Z</time>
      </trkpt>
      <trkpt lat="45.26563" lon="6.71111">
        <ele>2245.78</ele>
        <time>2018-06-23T13:25:31Z</time>
      </trkpt>
      <trkpt lat="45.26566" lon="6.71111">
        <ele>2245.78</ele>
        <time>2018-06-23T13:26:00Z</time>
      </trkpt>
      <trkpt lat="45.26565" lon="6.71111">
        <ele>2245.78</ele>
        <time>2018-06-23T13:26:22Z</time>
      </trkpt>
      <trkpt lat="45.26564" lon="6.71111">
        <ele>2245.78</ele>
        <time>2018-06-23T13:26:51Z</time>
      </trkpt>
      <trkpt lat="45.26565" lon="6.71111">
        <ele>2245.78</ele>
        <time>2018-06-23T13:27:10Z</time>
      </trkpt>
      <trkpt lat="45.2657" lon="6.71113">
        <ele>2245.78</ele>
        <time>2018-06-23T13:27:37Z</time>
      </trkpt>
      <trkpt lat="45.26568" lon="6.71112">
        <ele>2245.78</ele>
        <time>2018-06-23T13:28:01Z</time>
      </trkpt>
      <trkpt lat="45.26566" lon="6.71112">
        <ele>2246.74</ele>
        <time>2018-06-23T13:28:19Z</time>
      </trkpt>
      <trkpt lat="45.26568" lon="6.71112">
        <ele>2246.74</ele>
        <time>2018-06-23T13:28:39Z</time>
      </trkpt>
      <trkpt lat="45.26571" lon="6.71112">
        <ele>2246.26</ele>
        <time>2018-06-23T13:29:12Z</time>
      </trkpt>
      <trkpt lat="45.26567" lon="6.71112">
        <ele>2245.3</ele>
        <time>2018-06-23T13:29:37Z</time>
      </trkpt>
      <trkpt lat="45.26566" lon="6.71113">
        <ele>2246.26</ele>
        <time>2018-06-23T13:29:59Z</time>
      </trkpt>
      <trkpt lat="45.26565" lon="6.71111">
        <ele>2246.74</ele>
        <time>2018-06-23T13:30:24Z</time>
      </trkpt>
      <trkpt lat="45.26567" lon="6.71111">
        <ele>2246.74</ele>
        <time>2018-06-23T13:30:58Z</time>
      </trkpt>
      <trkpt lat="45.26565" lon="6.71111">
        <ele>2245.3</ele>
        <time>2018-06-23T13:31:09Z</time>
      </trkpt>
      <trkpt lat="45.26565" lon="6.71112">
        <ele>2245.3</ele>
        <time>2018-06-23T13:31:39Z</time>
      </trkpt>
      <trkpt lat="45.26565" lon="6.71113">
        <ele>2245.3</ele>
        <time>2018-06-23T13:32:11Z</time>
      </trkpt>
      <trkpt lat="45.26565" lon="6.71111">
        <ele>2245.3</ele>
        <time>2018-06-23T13:32:38Z</time>
      </trkpt>
      <trkpt lat="45.26563" lon="6.71113">
        <ele>2244.82</ele>
        <time>2018-06-23T13:33:07Z</time>
      </trkpt>
      <trkpt lat="45.26566" lon="6.71113">
        <ele>2244.82</ele>
        <time>2018-06-23T13:33:27Z</time>
      </trkpt>
      <trkpt lat="45.26569" lon="6.71114">
        <ele>2245.78</ele>
        <time>2018-06-23T13:33:51Z</time>
      </trkpt>
      <trkpt lat="45.26568" lon="6.71115">
        <ele>2245.78</ele>
        <time>2018-06-23T13:34:18Z</time>
      </trkpt>
      <trkpt lat="45.26568" lon="6.71113">
        <ele>2245.78</ele>
        <time>2018-06-23T13:34:40Z</time>
      </trkpt>
      <trkpt lat="45.26567" lon="6.71113">
        <ele>2245.78</ele>
        <time>2018-06-23T13:35:05Z</time>
      </trkpt>
      <trkpt lat="45.26564" lon="6.71114">
        <ele>2245.3</ele>
        <time>2018-06-23T13:35:25Z</time>
      </trkpt>
      <trkpt lat="45.26567" lon="6.71113">
        <ele>2244.33</ele>
        <time>2018-06-23T13:35:49Z</time>
      </trkpt>
      <trkpt lat="45.26562" lon="6.71114">
        <ele>2243.85</ele>
        <time>2018-06-23T13:36:29Z</time>
      </trkpt>
      <trkpt lat="45.26562" lon="6.71112">
        <ele>2243.85</ele>
        <time>2018-06-23T13:36:57Z</time>
      </trkpt>
      <trkpt lat="45.26566" lon="6.71112">
        <ele>2243.37</ele>
        <time>2018-06-23T13:37:28Z</time>
      </trkpt>
      <trkpt lat="45.26564" lon="6.71114">
        <ele>2243.37</ele>
        <time>2018-06-23T13:37:56Z</time>
      </trkpt>
      <trkpt lat="45.26568" lon="6.71112">
        <ele>2243.37</ele>
        <time>2018-06-23T13:38:25Z</time>
      </trkpt>
      <trkpt lat="45.26566" lon="6.71112">
        <ele>2244.33</ele>
        <time>2018-06-23T13:39:00Z</time>
      </trkpt>
      <trkpt lat="45.26566" lon="6.71112">
        <ele>2244.33</ele>
        <time>2018-06-23T13:39:25Z</time>
      </trkpt>
      <trkpt lat="45.2657" lon="6.71112">
        <ele>2244.33</ele>
        <time>2018-06-23T13:39:50Z</time>
      </trkpt>
      <trkpt lat="45.26568" lon="6.71112">
        <ele>2244.33</ele>
        <time>2018-06-23T13:40:18Z</time>
      </trkpt>
      <trkpt lat="45.26567" lon="6.71111">
        <ele>2244.33</ele>
        <time>2018-06-23T13:40:48Z</time>
      </trkpt>
      <trkpt lat="45.26567" lon="6.71112">
        <ele>2244.33</ele>
        <time>2018-06-23T13:41:09Z</time>
      </trkpt>
      <trkpt lat="45.26566" lon="6.71111">
        <ele>2244.33</ele>
        <time>2018-06-23T13:41:33Z</time>
      </trkpt>
      <trkpt lat="45.26564" lon="6.71113">
        <ele>2244.33</ele>
        <time>2018-06-23T13:41:51Z</time>
      </trkpt>
      <trkpt lat="45.26565" lon="6.71113">
        <ele>2244.33</ele>
        <time>2018-06-23T13:42:14Z</time>
      </trkpt>
      <trkpt lat="45.26564" lon="6.71112">
        <ele>2242.89</ele>
        <time>2018-06-23T13:42:49Z</time>
      </trkpt>
      <trkpt lat="45.26565" lon="6.71111">
        <ele>2242.89</ele>
        <time>2018-06-23T13:43:07Z</time>
      </trkpt>
      <trkpt lat="45.26566" lon="6.71112">
        <ele>2242.89</ele>
        <time>2018-06-23T13:43:33Z</time>
      </trkpt>
      <trkpt lat="45.26567" lon="6.71111">
        <ele>2243.85</ele>
        <time>2018-06-23T13:43:58Z</time>
      </trkpt>
      <trkpt lat="45.26568" lon="6.71108">
        <ele>2244.82</ele>
        <time>2018-06-23T13:44:19Z</time>
      </trkpt>
      <trkpt lat="45.26569" lon="6.71111">
        <ele>2244.82</ele>
        <time>2018-06-23T13:44:48Z</time>
      </trkpt>
      <trkpt lat="45.26572" lon="6.71116">
        <ele>2244.82</ele>
        <time>2018-06-23T13:45:15Z</time>
      </trkpt>
      <trkpt lat="45.2657" lon="6.71112">
        <ele>2244.82</ele>
        <time>2018-06-23T13:45:30Z</time>
      </trkpt>
      <trkpt lat="45.2657" lon="6.71111">
        <ele>2244.33</ele>
        <time>2018-06-23T13:45:44Z</time>
      </trkpt>
      <trkpt lat="45.2657" lon="6.71111">
        <ele>2244.33</ele>
        <time>2018-06-23T13:46:02Z</time>
      </trkpt>
      <trkpt lat="45.26569" lon="6.7111">
        <ele>2244.82</ele>
        <time>2018-06-23T13:46:23Z</time>
      </trkpt>
      <trkpt lat="45.26568" lon="6.71111">
        <ele>2243.37</ele>
        <time>2018-06-23T13:46:32Z</time>
      </trkpt>
      <trkpt lat="45.26568" lon="6.71111">
        <ele>2244.82</ele>
        <time>2018-06-23T13:46:35Z</time>
      </trkpt>
      <trkpt lat="45.26568" lon="6.71112">
        <ele>2243.37</ele>
        <time>2018-06-23T13:46:43Z</time>
      </trkpt>
      <trkpt lat="45.26569" lon="6.71112">
        <ele>2245.3</ele>
        <time>2018-06-23T13:46:46Z</time>
      </trkpt>
      <trkpt lat="45.26565" lon="6.7111">
        <ele>2243.85</ele>
        <time>2018-06-23T13:46:58Z</time>
      </trkpt>
      <trkpt lat="45.26565" lon="6.71109">
        <ele>2243.37</ele>
        <time>2018-06-23T13:47:15Z</time>
      </trkpt>
      <trkpt lat="45.26568" lon="6.71112">
        <ele>2242.89</ele>
        <time>2018-06-23T13:47:39Z</time>
      </trkpt>
      <trkpt lat="45.26567" lon="6.71112">
        <ele>2242.89</ele>
        <time>2018-06-23T13:47:58Z</time>
      </trkpt>
      <trkpt lat="45.26565" lon="6.71105">
        <ele>2244.33</ele>
        <time>2018-06-23T13:48:22Z</time>
      </trkpt>
      <trkpt lat="45.2657" lon="6.71113">
        <ele>2244.33</ele>
        <time>2018-06-23T13:48:37Z</time>
      </trkpt>
      <trkpt lat="45.26567" lon="6.71112">
        <ele>2242.89</ele>
        <time>2018-06-23T13:49:09Z</time>
      </trkpt>
      <trkpt lat="45.26565" lon="6.71102">
        <ele>2242.89</ele>
        <time>2018-06-23T13:49:34Z</time>
      </trkpt>
      <trkpt lat="45.26565" lon="6.71102">
        <ele>2244.82</ele>
        <time>2018-06-23T13:49:37Z</time>
      </trkpt>
      <trkpt lat="45.26566" lon="6.71103">
        <ele>2242.41</ele>
        <time>2018-06-23T13:49:48Z</time>
      </trkpt>
      <trkpt lat="45.26571" lon="6.71117">
        <ele>2243.37</ele>
        <time>2018-06-23T13:50:04Z</time>
      </trkpt>
      <trkpt lat="45.26573" lon="6.71118">
        <ele>2243.37</ele>
        <time>2018-06-23T13:50:21Z</time>
      </trkpt>
      <trkpt lat="45.26575" lon="6.71106">
        <ele>2243.37</ele>
        <time>2018-06-23T13:50:32Z</time>
      </trkpt>
      <trkpt lat="45.26574" lon="6.71109">
        <ele>2244.33</ele>
        <time>2018-06-23T13:50:55Z</time>
      </trkpt>
      <trkpt lat="45.26571" lon="6.71103">
        <ele>2240.97</ele>
        <time>2018-06-23T13:51:04Z</time>
      </trkpt>
      <trkpt lat="45.26571" lon="6.71102">
        <ele>2240.97</ele>
        <time>2018-06-23T13:51:05Z</time>
      </trkpt>
      <trkpt lat="45.26569" lon="6.71095">
        <ele>2239.05</ele>
        <time>2018-06-23T13:51:13Z</time>
      </trkpt>
      <trkpt lat="45.26565" lon="6.71092">
        <ele>2238.09</ele>
        <time>2018-06-23T13:51:18Z</time>
      </trkpt>
      <trkpt lat="45.26563" lon="6.71093">
        <ele>2237.61</ele>
        <time>2018-06-23T13:51:19Z</time>
      </trkpt>
      <trkpt lat="45.26561" lon="6.71093">
        <ele>2237.61</ele>
        <time>2018-06-23T13:51:20Z</time>
      </trkpt>
      <trkpt lat="45.2656" lon="6.71093">
        <ele>2237.61</ele>
        <time>2018-06-23T13:51:21Z</time>
      </trkpt>
      <trkpt lat="45.26549" lon="6.71095">
        <ele>2235.2</ele>
        <time>2018-06-23T13:51:34Z</time>
      </trkpt>
      <trkpt lat="45.26548" lon="6.71095">
        <ele>2235.2</ele>
        <time>2018-06-23T13:51:35Z</time>
      </trkpt>
      <trkpt lat="45.26539" lon="6.71098">
        <ele>2232.8</ele>
        <time>2018-06-23T13:51:49Z</time>
      </trkpt>
      <trkpt lat="45.26529" lon="6.71095">
        <ele>2231.36</ele>
        <time>2018-06-23T13:52:03Z</time>
      </trkpt>
      <trkpt lat="45.2651" lon="6.71094">
        <ele>2230.88</ele>
        <time>2018-06-23T13:52:18Z</time>
      </trkpt>
      <trkpt lat="45.26512" lon="6.71101">
        <ele>2229.92</ele>
        <time>2018-06-23T13:52:34Z</time>
      </trkpt>
      <trkpt lat="45.26504" lon="6.71093">
        <ele>2229.92</ele>
        <time>2018-06-23T13:52:50Z</time>
      </trkpt>
      <trkpt lat="45.26492" lon="6.71086">
        <ele>2229.92</ele>
        <time>2018-06-23T13:53:06Z</time>
      </trkpt>
      <trkpt lat="45.26487" lon="6.71091">
        <ele>2228.95</ele>
        <time>2018-06-23T13:53:14Z</time>
      </trkpt>
      <trkpt lat="45.26486" lon="6.71094">
        <ele>2228.47</ele>
        <time>2018-06-23T13:53:15Z</time>
      </trkpt>
      <trkpt lat="45.26488" lon="6.71108">
        <ele>2228.47</ele>
        <time>2018-06-23T13:53:22Z</time>
      </trkpt>
      <trkpt lat="45.2649" lon="6.7112">
        <ele>2227.51</ele>
        <time>2018-06-23T13:53:34Z</time>
      </trkpt>
      <trkpt lat="45.26493" lon="6.71139">
        <ele>2226.07</ele>
        <time>2018-06-23T13:53:47Z</time>
      </trkpt>
      <trkpt lat="45.26491" lon="6.71143">
        <ele>2225.59</ele>
        <time>2018-06-23T13:53:52Z</time>
      </trkpt>
      <trkpt lat="45.26485" lon="6.71156">
        <ele>2225.11</ele>
        <time>2018-06-23T13:54:02Z</time>
      </trkpt>
      <trkpt lat="45.2648" lon="6.71171">
        <ele>2223.19</ele>
        <time>2018-06-23T13:54:15Z</time>
      </trkpt>
      <trkpt lat="45.2648" lon="6.71174">
        <ele>2222.22</ele>
        <time>2018-06-23T13:54:19Z</time>
      </trkpt>
      <trkpt lat="45.2648" lon="6.71176">
        <ele>2221.74</ele>
        <time>2018-06-23T13:54:20Z</time>
      </trkpt>
      <trkpt lat="45.26479" lon="6.71178">
        <ele>2221.74</ele>
        <time>2018-06-23T13:54:22Z</time>
      </trkpt>
      <trkpt lat="45.26472" lon="6.71194">
        <ele>2220.78</ele>
        <time>2018-06-23T13:54:34Z</time>
      </trkpt>
      <trkpt lat="45.26469" lon="6.71201">
        <ele>2220.3</ele>
        <time>2018-06-23T13:54:40Z</time>
      </trkpt>
      <trkpt lat="45.26468" lon="6.71203">
        <ele>2220.3</ele>
        <time>2018-06-23T13:54:42Z</time>
      </trkpt>
      <trkpt lat="45.26471" lon="6.71218">
        <ele>2219.82</ele>
        <time>2018-06-23T13:54:48Z</time>
      </trkpt>
      <trkpt lat="45.26469" lon="6.71216">
        <ele>2219.34</ele>
        <time>2018-06-23T13:54:57Z</time>
      </trkpt>
      <trkpt lat="45.26463" lon="6.71219">
        <ele>2219.34</ele>
        <time>2018-06-23T13:55:04Z</time>
      </trkpt>
      <trkpt lat="45.26462" lon="6.71218">
        <ele>2219.34</ele>
        <time>2018-06-23T13:55:05Z</time>
      </trkpt>
      <trkpt lat="45.26452" lon="6.71224">
        <ele>2218.86</ele>
        <time>2018-06-23T13:55:17Z</time>
      </trkpt>
      <trkpt lat="45.26451" lon="6.71225">
        <ele>2218.86</ele>
        <time>2018-06-23T13:55:18Z</time>
      </trkpt>
      <trkpt lat="45.26449" lon="6.71225">
        <ele>2218.86</ele>
        <time>2018-06-23T13:55:20Z</time>
      </trkpt>
      <trkpt lat="45.26448" lon="6.71224">
        <ele>2218.86</ele>
        <time>2018-06-23T13:55:21Z</time>
      </trkpt>
      <trkpt lat="45.26436" lon="6.71229">
        <ele>2217.9</ele>
        <time>2018-06-23T13:55:34Z</time>
      </trkpt>
      <trkpt lat="45.26425" lon="6.71228">
        <ele>2215.98</ele>
        <time>2018-06-23T13:55:50Z</time>
      </trkpt>
      <trkpt lat="45.26423" lon="6.71236">
        <ele>2215.5</ele>
        <time>2018-06-23T13:56:05Z</time>
      </trkpt>
      <trkpt lat="45.26418" lon="6.71233">
        <ele>2214.53</ele>
        <time>2018-06-23T13:56:26Z</time>
      </trkpt>
      <trkpt lat="45.26419" lon="6.71233">
        <ele>2215.98</ele>
        <time>2018-06-23T13:56:28Z</time>
      </trkpt>
      <trkpt lat="45.26418" lon="6.71233">
        <ele>2214.53</ele>
        <time>2018-06-23T13:56:32Z</time>
      </trkpt>
      <trkpt lat="45.26411" lon="6.71231">
        <ele>2215.5</ele>
        <time>2018-06-23T13:56:42Z</time>
      </trkpt>
      <trkpt lat="45.26409" lon="6.71229">
        <ele>2215.5</ele>
        <time>2018-06-23T13:56:45Z</time>
      </trkpt>
      <trkpt lat="45.26408" lon="6.71228">
        <ele>2215.5</ele>
        <time>2018-06-23T13:56:47Z</time>
      </trkpt>
      <trkpt lat="45.26406" lon="6.71227">
        <ele>2215.5</ele>
        <time>2018-06-23T13:56:50Z</time>
      </trkpt>
      <trkpt lat="45.26404" lon="6.71226">
        <ele>2215.5</ele>
        <time>2018-06-23T13:56:52Z</time>
      </trkpt>
      <trkpt lat="45.26403" lon="6.71226">
        <ele>2215.5</ele>
        <time>2018-06-23T13:56:53Z</time>
      </trkpt>
      <trkpt lat="45.264" lon="6.71231">
        <ele>2215.98</ele>
        <time>2018-06-23T13:56:56Z</time>
      </trkpt>
      <trkpt lat="45.26396" lon="6.71237">
        <ele>2214.53</ele>
        <time>2018-06-23T13:57:01Z</time>
      </trkpt>
      <trkpt lat="45.26395" lon="6.71239">
        <ele>2216.46</ele>
        <time>2018-06-23T13:57:03Z</time>
      </trkpt>
      <trkpt lat="45.26392" lon="6.71247">
        <ele>2216.46</ele>
        <time>2018-06-23T13:57:15Z</time>
      </trkpt>
      <trkpt lat="45.26391" lon="6.71249">
        <ele>2216.94</ele>
        <time>2018-06-23T13:57:16Z</time>
      </trkpt>
      <trkpt lat="45.2639" lon="6.71251">
        <ele>2218.86</ele>
        <time>2018-06-23T13:57:17Z</time>
      </trkpt>
      <trkpt lat="45.2639" lon="6.71252">
        <ele>2218.86</ele>
        <time>2018-06-23T13:57:18Z</time>
      </trkpt>
      <trkpt lat="45.26388" lon="6.71261">
        <ele>2219.82</ele>
        <time>2018-06-23T13:57:25Z</time>
      </trkpt>
      <trkpt lat="45.26387" lon="6.71268">
        <ele>2220.3</ele>
        <time>2018-06-23T13:57:34Z</time>
      </trkpt>
      <trkpt lat="45.26386" lon="6.71269">
        <ele>2219.34</ele>
        <time>2018-06-23T13:57:44Z</time>
      </trkpt>
      <trkpt lat="45.26382" lon="6.71253">
        <ele>2220.3</ele>
        <time>2018-06-23T13:57:54Z</time>
      </trkpt>
      <trkpt lat="45.26381" lon="6.71251">
        <ele>2218.86</ele>
        <time>2018-06-23T13:57:56Z</time>
      </trkpt>
      <trkpt lat="45.2638" lon="6.71248">
        <ele>2220.78</ele>
        <time>2018-06-23T13:58:06Z</time>
      </trkpt>
      <trkpt lat="45.26381" lon="6.71249">
        <ele>2219.34</ele>
        <time>2018-06-23T13:58:08Z</time>
      </trkpt>
      <trkpt lat="45.26382" lon="6.71257">
        <ele>2220.78</ele>
        <time>2018-06-23T13:58:12Z</time>
      </trkpt>
      <trkpt lat="45.26385" lon="6.71264">
        <ele>2220.3</ele>
        <time>2018-06-23T13:58:23Z</time>
      </trkpt>
      <trkpt lat="45.26394" lon="6.71277">
        <ele>2218.86</ele>
        <time>2018-06-23T13:58:35Z</time>
      </trkpt>
      <trkpt lat="45.26396" lon="6.71279">
        <ele>2218.38</ele>
        <time>2018-06-23T13:58:36Z</time>
      </trkpt>
      <trkpt lat="45.26397" lon="6.71264">
        <ele>2216.46</ele>
        <time>2018-06-23T13:58:50Z</time>
      </trkpt>
      <trkpt lat="45.26397" lon="6.71261">
        <ele>2215.5</ele>
        <time>2018-06-23T13:58:52Z</time>
      </trkpt>
      <trkpt lat="45.26391" lon="6.71259">
        <ele>2215.01</ele>
        <time>2018-06-23T13:59:02Z</time>
      </trkpt>
      <trkpt lat="45.2639" lon="6.7126">
        <ele>2215.01</ele>
        <time>2018-06-23T13:59:04Z</time>
      </trkpt>
      <trkpt lat="45.26388" lon="6.71261">
        <ele>2215.01</ele>
        <time>2018-06-23T13:59:05Z</time>
      </trkpt>
      <trkpt lat="45.26378" lon="6.71262">
        <ele>2215.01</ele>
        <time>2018-06-23T13:59:15Z</time>
      </trkpt>
      <trkpt lat="45.26376" lon="6.71262">
        <ele>2215.01</ele>
        <time>2018-06-23T13:59:16Z</time>
      </trkpt>
      <trkpt lat="45.26368" lon="6.71265">
        <ele>2214.53</ele>
        <time>2018-06-23T13:59:27Z</time>
      </trkpt>
      <trkpt lat="45.26367" lon="6.71266">
        <ele>2214.53</ele>
        <time>2018-06-23T13:59:28Z</time>
      </trkpt>
      <trkpt lat="45.26357" lon="6.71271">
        <ele>2214.53</ele>
        <time>2018-06-23T13:59:42Z</time>
      </trkpt>
      <trkpt lat="45.26345" lon="6.71284">
        <ele>2211.65</ele>
        <time>2018-06-23T13:59:57Z</time>
      </trkpt>
      <trkpt lat="45.26344" lon="6.71285">
        <ele>2211.17</ele>
        <time>2018-06-23T13:59:58Z</time>
      </trkpt>
      <trkpt lat="45.26333" lon="6.71297">
        <ele>2208.77</ele>
        <time>2018-06-23T14:00:12Z</time>
      </trkpt>
      <trkpt lat="45.26325" lon="6.71306">
        <ele>2207.81</ele>
        <time>2018-06-23T14:00:23Z</time>
      </trkpt>
      <trkpt lat="45.2632" lon="6.71311">
        <ele>2206.84</ele>
        <time>2018-06-23T14:00:32Z</time>
      </trkpt>
      <trkpt lat="45.2632" lon="6.71321">
        <ele>2206.36</ele>
        <time>2018-06-23T14:00:45Z</time>
      </trkpt>
      <trkpt lat="45.26314" lon="6.71324">
        <ele>2204.92</ele>
        <time>2018-06-23T14:00:53Z</time>
      </trkpt>
      <trkpt lat="45.26303" lon="6.71332">
        <ele>2202.52</ele>
        <time>2018-06-23T14:01:08Z</time>
      </trkpt>
      <trkpt lat="45.26295" lon="6.71337">
        <ele>2200.11</ele>
        <time>2018-06-23T14:01:24Z</time>
      </trkpt>
      <trkpt lat="45.26294" lon="6.71338">
        <ele>2200.11</ele>
        <time>2018-06-23T14:01:25Z</time>
      </trkpt>
      <trkpt lat="45.26287" lon="6.71339">
        <ele>2199.63</ele>
        <time>2018-06-23T14:01:33Z</time>
      </trkpt>
      <trkpt lat="45.26285" lon="6.71341">
        <ele>2198.67</ele>
        <time>2018-06-23T14:01:45Z</time>
      </trkpt>
      <trkpt lat="45.26282" lon="6.71343">
        <ele>2198.19</ele>
        <time>2018-06-23T14:01:53Z</time>
      </trkpt>
      <trkpt lat="45.26279" lon="6.71344">
        <ele>2197.71</ele>
        <time>2018-06-23T14:01:57Z</time>
      </trkpt>
      <trkpt lat="45.26278" lon="6.71345">
        <ele>2197.71</ele>
        <time>2018-06-23T14:01:58Z</time>
      </trkpt>
      <trkpt lat="45.26271" lon="6.7135">
        <ele>2196.27</ele>
        <time>2018-06-23T14:02:10Z</time>
      </trkpt>
      <trkpt lat="45.26267" lon="6.71353">
        <ele>2195.79</ele>
        <time>2018-06-23T14:02:19Z</time>
      </trkpt>
      <trkpt lat="45.26266" lon="6.71354">
        <ele>2195.79</ele>
        <time>2018-06-23T14:02:20Z</time>
      </trkpt>
      <trkpt lat="45.26263" lon="6.71356">
        <ele>2195.31</ele>
        <time>2018-06-23T14:02:21Z</time>
      </trkpt>
      <trkpt lat="45.2626" lon="6.71358">
        <ele>2194.35</ele>
        <time>2018-06-23T14:02:22Z</time>
      </trkpt>
      <trkpt lat="45.26257" lon="6.7136">
        <ele>2194.35</ele>
        <time>2018-06-23T14:02:23Z</time>
      </trkpt>
      <trkpt lat="45.26257" lon="6.71363">
        <ele>2193.87</ele>
        <time>2018-06-23T14:02:33Z</time>
      </trkpt>
      <trkpt lat="45.26259" lon="6.71361">
        <ele>2193.87</ele>
        <time>2018-06-23T14:02:44Z</time>
      </trkpt>
      <trkpt lat="45.26254" lon="6.71361">
        <ele>2193.87</ele>
        <time>2018-06-23T14:02:55Z</time>
      </trkpt>
      <trkpt lat="45.26257" lon="6.71363">
        <ele>2193.39</ele>
        <time>2018-06-23T14:03:07Z</time>
      </trkpt>
      <trkpt lat="45.26259" lon="6.71365">
        <ele>2193.39</ele>
        <time>2018-06-23T14:03:19Z</time>
      </trkpt>
      <trkpt lat="45.26258" lon="6.71362">
        <ele>2192.9</ele>
        <time>2018-06-23T14:03:36Z</time>
      </trkpt>
      <trkpt lat="45.26268" lon="6.7137">
        <ele>2191.94</ele>
        <time>2018-06-23T14:03:56Z</time>
      </trkpt>
      <trkpt lat="45.2627" lon="6.71371">
        <ele>2191.94</ele>
        <time>2018-06-23T14:03:58Z</time>
      </trkpt>
      <trkpt lat="45.26271" lon="6.71371">
        <ele>2191.94</ele>
        <time>2018-06-23T14:03:59Z</time>
      </trkpt>
      <trkpt lat="45.26272" lon="6.71372">
        <ele>2191.94</ele>
        <time>2018-06-23T14:04:00Z</time>
      </trkpt>
      <trkpt lat="45.26282" lon="6.7137">
        <ele>2190.02</ele>
        <time>2018-06-23T14:04:13Z</time>
      </trkpt>
      <trkpt lat="45.26291" lon="6.7137">
        <ele>2187.14</ele>
        <time>2018-06-23T14:04:28Z</time>
      </trkpt>
      <trkpt lat="45.26291" lon="6.71369">
        <ele>2186.66</ele>
        <time>2018-06-23T14:04:30Z</time>
      </trkpt>
      <trkpt lat="45.26282" lon="6.71374">
        <ele>2184.25</ele>
        <time>2018-06-23T14:04:44Z</time>
      </trkpt>
      <trkpt lat="45.2628" lon="6.71374">
        <ele>2184.25</ele>
        <time>2018-06-23T14:04:46Z</time>
      </trkpt>
      <trkpt lat="45.26277" lon="6.71375">
        <ele>2183.77</ele>
        <time>2018-06-23T14:04:50Z</time>
      </trkpt>
      <trkpt lat="45.26276" lon="6.71376">
        <ele>2183.29</ele>
        <time>2018-06-23T14:04:51Z</time>
      </trkpt>
      <trkpt lat="45.26275" lon="6.71376">
        <ele>2182.81</ele>
        <time>2018-06-23T14:04:52Z</time>
      </trkpt>
      <trkpt lat="45.26268" lon="6.71379">
        <ele>2181.37</ele>
        <time>2018-06-23T14:05:00Z</time>
      </trkpt>
      <trkpt lat="45.26267" lon="6.71379">
        <ele>2181.37</ele>
        <time>2018-06-23T14:05:01Z</time>
      </trkpt>
      <trkpt lat="45.26252" lon="6.71379">
        <ele>2178.97</ele>
        <time>2018-06-23T14:05:16Z</time>
      </trkpt>
      <trkpt lat="45.26241" lon="6.71376">
        <ele>2177.04</ele>
        <time>2018-06-23T14:05:29Z</time>
      </trkpt>
      <trkpt lat="45.26238" lon="6.71374">
        <ele>2176.56</ele>
        <time>2018-06-23T14:05:32Z</time>
      </trkpt>
      <trkpt lat="45.26233" lon="6.71369">
        <ele>2176.08</ele>
        <time>2018-06-23T14:05:40Z</time>
      </trkpt>
      <trkpt lat="45.26231" lon="6.71361">
        <ele>2174.64</ele>
        <time>2018-06-23T14:05:47Z</time>
      </trkpt>
      <trkpt lat="45.2623" lon="6.7136">
        <ele>2174.64</ele>
        <time>2018-06-23T14:05:48Z</time>
      </trkpt>
      <trkpt lat="45.26228" lon="6.71358">
        <ele>2174.64</ele>
        <time>2018-06-23T14:05:50Z</time>
      </trkpt>
      <trkpt lat="45.26227" lon="6.71358">
        <ele>2174.64</ele>
        <time>2018-06-23T14:05:51Z</time>
      </trkpt>
      <trkpt lat="45.26225" lon="6.71357">
        <ele>2171.76</ele>
        <time>2018-06-23T14:05:52Z</time>
      </trkpt>
      <trkpt lat="45.26222" lon="6.7136">
        <ele>2175.12</ele>
        <time>2018-06-23T14:05:53Z</time>
      </trkpt>
      <trkpt lat="45.26217" lon="6.71362">
        <ele>2174.16</ele>
        <time>2018-06-23T14:05:54Z</time>
      </trkpt>
      <trkpt lat="45.26213" lon="6.71362">
        <ele>2173.2</ele>
        <time>2018-06-23T14:05:56Z</time>
      </trkpt>
      <trkpt lat="45.26211" lon="6.71361">
        <ele>2173.2</ele>
        <time>2018-06-23T14:05:57Z</time>
      </trkpt>
      <trkpt lat="45.26203" lon="6.71363">
        <ele>2173.2</ele>
        <time>2018-06-23T14:06:10Z</time>
      </trkpt>
      <trkpt lat="45.26202" lon="6.71363">
        <ele>2172.24</ele>
        <time>2018-06-23T14:06:13Z</time>
      </trkpt>
      <trkpt lat="45.26202" lon="6.71362">
        <ele>2172.24</ele>
        <time>2018-06-23T14:06:14Z</time>
      </trkpt>
      <trkpt lat="45.262" lon="6.7136">
        <ele>2172.24</ele>
        <time>2018-06-23T14:06:17Z</time>
      </trkpt>
      <trkpt lat="45.26198" lon="6.71356">
        <ele>2171.27</ele>
        <time>2018-06-23T14:06:20Z</time>
      </trkpt>
      <trkpt lat="45.26196" lon="6.71353">
        <ele>2170.79</ele>
        <time>2018-06-23T14:06:23Z</time>
      </trkpt>
      <trkpt lat="45.26191" lon="6.71342">
        <ele>2169.83</ele>
        <time>2018-06-23T14:06:33Z</time>
      </trkpt>
      <trkpt lat="45.26191" lon="6.71341">
        <ele>2169.83</ele>
        <time>2018-06-23T14:06:34Z</time>
      </trkpt>
      <trkpt lat="45.26188" lon="6.71333">
        <ele>2166.95</ele>
        <time>2018-06-23T14:06:39Z</time>
      </trkpt>
      <trkpt lat="45.26188" lon="6.71331">
        <ele>2171.76</ele>
        <time>2018-06-23T14:06:40Z</time>
      </trkpt>
      <trkpt lat="45.26186" lon="6.7133">
        <ele>2169.35</ele>
        <time>2018-06-23T14:06:41Z</time>
      </trkpt>
      <trkpt lat="45.2618" lon="6.71327">
        <ele>2168.39</ele>
        <time>2018-06-23T14:06:53Z</time>
      </trkpt>
      <trkpt lat="45.26179" lon="6.71325">
        <ele>2168.39</ele>
        <time>2018-06-23T14:06:54Z</time>
      </trkpt>
      <trkpt lat="45.26179" lon="6.71324">
        <ele>2167.91</ele>
        <time>2018-06-23T14:06:55Z</time>
      </trkpt>
      <trkpt lat="45.26169" lon="6.71315">
        <ele>2166.95</ele>
        <time>2018-06-23T14:07:07Z</time>
      </trkpt>
      <trkpt lat="45.26156" lon="6.71315">
        <ele>2165.99</ele>
        <time>2018-06-23T14:07:12Z</time>
      </trkpt>
      <trkpt lat="45.26151" lon="6.71307">
        <ele>2165.51</ele>
        <time>2018-06-23T14:07:17Z</time>
      </trkpt>
      <trkpt lat="45.26138" lon="6.71302">
        <ele>2163.58</ele>
        <time>2018-06-23T14:07:30Z</time>
      </trkpt>
      <trkpt lat="45.26129" lon="6.71288">
        <ele>2163.1</ele>
        <time>2018-06-23T14:07:43Z</time>
      </trkpt>
      <trkpt lat="45.26125" lon="6.71286">
        <ele>2162.62</ele>
        <time>2018-06-23T14:07:46Z</time>
      </trkpt>
      <trkpt lat="45.26124" lon="6.71285">
        <ele>2162.62</ele>
        <time>2018-06-23T14:07:47Z</time>
      </trkpt>
      <trkpt lat="45.26115" lon="6.71281">
        <ele>2162.14</ele>
        <time>2018-06-23T14:07:57Z</time>
      </trkpt>
      <trkpt lat="45.26111" lon="6.71282">
        <ele>2161.66</ele>
        <time>2018-06-23T14:08:00Z</time>
      </trkpt>
      <trkpt lat="45.26109" lon="6.71282">
        <ele>2161.66</ele>
        <time>2018-06-23T14:08:01Z</time>
      </trkpt>
      <trkpt lat="45.26108" lon="6.71283">
        <ele>2160.7</ele>
        <time>2018-06-23T14:08:02Z</time>
      </trkpt>
      <trkpt lat="45.26106" lon="6.71283">
        <ele>2160.7</ele>
        <time>2018-06-23T14:08:03Z</time>
      </trkpt>
      <trkpt lat="45.26105" lon="6.71281">
        <ele>2160.7</ele>
        <time>2018-06-23T14:08:04Z</time>
      </trkpt>
      <trkpt lat="45.26104" lon="6.7128">
        <ele>2160.7</ele>
        <time>2018-06-23T14:08:05Z</time>
      </trkpt>
      <trkpt lat="45.26091" lon="6.7128">
        <ele>2158.3</ele>
        <time>2018-06-23T14:08:16Z</time>
      </trkpt>
      <trkpt lat="45.26072" lon="6.7129">
        <ele>2155.89</ele>
        <time>2018-06-23T14:08:30Z</time>
      </trkpt>
      <trkpt lat="45.26065" lon="6.71295">
        <ele>2154.93</ele>
        <time>2018-06-23T14:08:38Z</time>
      </trkpt>
      <trkpt lat="45.26063" lon="6.71297">
        <ele>2154.45</ele>
        <time>2018-06-23T14:08:41Z</time>
      </trkpt>
      <trkpt lat="45.26062" lon="6.71297">
        <ele>2153.97</ele>
        <time>2018-06-23T14:08:42Z</time>
      </trkpt>
      <trkpt lat="45.2606" lon="6.71297">
        <ele>2153.97</ele>
        <time>2018-06-23T14:08:43Z</time>
      </trkpt>
      <trkpt lat="45.26059" lon="6.71299">
        <ele>2153.49</ele>
        <time>2018-06-23T14:08:44Z</time>
      </trkpt>
      <trkpt lat="45.26053" lon="6.71306">
        <ele>2152.53</ele>
        <time>2018-06-23T14:08:50Z</time>
      </trkpt>
      <trkpt lat="45.26052" lon="6.71308">
        <ele>2152.53</ele>
        <time>2018-06-23T14:08:51Z</time>
      </trkpt>
      <trkpt lat="45.26052" lon="6.71311">
        <ele>2152.53</ele>
        <time>2018-06-23T14:08:52Z</time>
      </trkpt>
      <trkpt lat="45.26051" lon="6.71313">
        <ele>2152.05</ele>
        <time>2018-06-23T14:08:53Z</time>
      </trkpt>
      <trkpt lat="45.26051" lon="6.71315">
        <ele>2151.57</ele>
        <time>2018-06-23T14:08:54Z</time>
      </trkpt>
      <trkpt lat="45.26047" lon="6.71321">
        <ele>2151.09</ele>
        <time>2018-06-23T14:09:00Z</time>
      </trkpt>
      <trkpt lat="45.26045" lon="6.71323">
        <ele>2151.09</ele>
        <time>2018-06-23T14:09:02Z</time>
      </trkpt>
      <trkpt lat="45.2604" lon="6.71331">
        <ele>2150.13</ele>
        <time>2018-06-23T14:09:09Z</time>
      </trkpt>
      <trkpt lat="45.26038" lon="6.71334">
        <ele>2150.13</ele>
        <time>2018-06-23T14:09:11Z</time>
      </trkpt>
      <trkpt lat="45.26027" lon="6.71351">
        <ele>2148.68</ele>
        <time>2018-06-23T14:09:26Z</time>
      </trkpt>
      <trkpt lat="45.26018" lon="6.7137">
        <ele>2148.2</ele>
        <time>2018-06-23T14:09:39Z</time>
      </trkpt>
      <trkpt lat="45.26017" lon="6.71372">
        <ele>2148.2</ele>
        <time>2018-06-23T14:09:40Z</time>
      </trkpt>
      <trkpt lat="45.26005" lon="6.71379">
        <ele>2148.2</ele>
        <time>2018-06-23T14:09:53Z</time>
      </trkpt>
      <trkpt lat="45.26003" lon="6.7138">
        <ele>2148.2</ele>
        <time>2018-06-23T14:09:55Z</time>
      </trkpt>
      <trkpt lat="45.26002" lon="6.71381">
        <ele>2148.2</ele>
        <time>2018-06-23T14:09:56Z</time>
      </trkpt>
      <trkpt lat="45.2599" lon="6.71397">
        <ele>2146.28</ele>
        <time>2018-06-23T14:10:10Z</time>
      </trkpt>
      <trkpt lat="45.25977" lon="6.71407">
        <ele>2145.32</ele>
        <time>2018-06-23T14:10:24Z</time>
      </trkpt>
      <trkpt lat="45.25966" lon="6.7141">
        <ele>2143.4</ele>
        <time>2018-06-23T14:10:34Z</time>
      </trkpt>
      <trkpt lat="45.2595" lon="6.71412">
        <ele>2142.44</ele>
        <time>2018-06-23T14:10:50Z</time>
      </trkpt>
      <trkpt lat="45.25945" lon="6.71413">
        <ele>2142.44</ele>
        <time>2018-06-23T14:10:54Z</time>
      </trkpt>
      <trkpt lat="45.25932" lon="6.71415">
        <ele>2140.51</ele>
        <time>2018-06-23T14:11:05Z</time>
      </trkpt>
      <trkpt lat="45.25929" lon="6.71419">
        <ele>2140.51</ele>
        <time>2018-06-23T14:11:09Z</time>
      </trkpt>
      <trkpt lat="45.25909" lon="6.71431">
        <ele>2139.55</ele>
        <time>2018-06-23T14:11:24Z</time>
      </trkpt>
      <trkpt lat="45.25894" lon="6.71438">
        <ele>2138.11</ele>
        <time>2018-06-23T14:11:39Z</time>
      </trkpt>
      <trkpt lat="45.25878" lon="6.71445">
        <ele>2136.67</ele>
        <time>2018-06-23T14:11:53Z</time>
      </trkpt>
      <trkpt lat="45.25862" lon="6.71448">
        <ele>2135.23</ele>
        <time>2018-06-23T14:12:07Z</time>
      </trkpt>
      <trkpt lat="45.25855" lon="6.71448">
        <ele>2134.74</ele>
        <time>2018-06-23T14:12:14Z</time>
      </trkpt>
      <trkpt lat="45.25846" lon="6.71449">
        <ele>2133.78</ele>
        <time>2018-06-23T14:12:22Z</time>
      </trkpt>
      <trkpt lat="45.25826" lon="6.71458">
        <ele>2131.38</ele>
        <time>2018-06-23T14:12:36Z</time>
      </trkpt>
      <trkpt lat="45.25817" lon="6.71473">
        <ele>2130.42</ele>
        <time>2018-06-23T14:12:49Z</time>
      </trkpt>
      <trkpt lat="45.25816" lon="6.71474">
        <ele>2130.42</ele>
        <time>2018-06-23T14:12:50Z</time>
      </trkpt>
      <trkpt lat="45.25807" lon="6.71495">
        <ele>2128.98</ele>
        <time>2018-06-23T14:13:05Z</time>
      </trkpt>
      <trkpt lat="45.258" lon="6.71513">
        <ele>2127.53</ele>
        <time>2018-06-23T14:13:22Z</time>
      </trkpt>
      <trkpt lat="45.25797" lon="6.71516">
        <ele>2127.53</ele>
        <time>2018-06-23T14:13:25Z</time>
      </trkpt>
      <trkpt lat="45.25794" lon="6.7152">
        <ele>2127.05</ele>
        <time>2018-06-23T14:13:28Z</time>
      </trkpt>
      <trkpt lat="45.25787" lon="6.71531">
        <ele>2125.61</ele>
        <time>2018-06-23T14:13:38Z</time>
      </trkpt>
      <trkpt lat="45.25786" lon="6.71533">
        <ele>2125.61</ele>
        <time>2018-06-23T14:13:39Z</time>
      </trkpt>
      <trkpt lat="45.25783" lon="6.71536">
        <ele>2125.61</ele>
        <time>2018-06-23T14:13:40Z</time>
      </trkpt>
      <trkpt lat="45.25774" lon="6.71547">
        <ele>2125.13</ele>
        <time>2018-06-23T14:13:44Z</time>
      </trkpt>
      <trkpt lat="45.25773" lon="6.71549">
        <ele>2125.13</ele>
        <time>2018-06-23T14:13:45Z</time>
      </trkpt>
      <trkpt lat="45.25769" lon="6.71558">
        <ele>2125.13</ele>
        <time>2018-06-23T14:13:50Z</time>
      </trkpt>
      <trkpt lat="45.25764" lon="6.71569">
        <ele>2125.13</ele>
        <time>2018-06-23T14:14:03Z</time>
      </trkpt>
      <trkpt lat="45.25755" lon="6.71577">
        <ele>2125.13</ele>
        <time>2018-06-23T14:14:12Z</time>
      </trkpt>
      <trkpt lat="45.25751" lon="6.71582">
        <ele>2125.13</ele>
        <time>2018-06-23T14:14:18Z</time>
      </trkpt>
      <trkpt lat="45.2575" lon="6.71583">
        <ele>2125.13</ele>
        <time>2018-06-23T14:14:19Z</time>
      </trkpt>
      <trkpt lat="45.25747" lon="6.71596">
        <ele>2123.69</ele>
        <time>2018-06-23T14:14:26Z</time>
      </trkpt>
      <trkpt lat="45.25744" lon="6.71602">
        <ele>2123.69</ele>
        <time>2018-06-23T14:14:31Z</time>
      </trkpt>
      <trkpt lat="45.25742" lon="6.71612">
        <ele>2123.21</ele>
        <time>2018-06-23T14:14:37Z</time>
      </trkpt>
      <trkpt lat="45.25733" lon="6.71623">
        <ele>2123.21</ele>
        <time>2018-06-23T14:14:45Z</time>
      </trkpt>
      <trkpt lat="45.25722" lon="6.7163">
        <ele>2123.21</ele>
        <time>2018-06-23T14:15:00Z</time>
      </trkpt>
      <trkpt lat="45.25717" lon="6.71633">
        <ele>2123.21</ele>
        <time>2018-06-23T14:15:03Z</time>
      </trkpt>
      <trkpt lat="45.25711" lon="6.71645">
        <ele>2122.73</ele>
        <time>2018-06-23T14:15:12Z</time>
      </trkpt>
      <trkpt lat="45.2571" lon="6.71646">
        <ele>2122.73</ele>
        <time>2018-06-23T14:15:13Z</time>
      </trkpt>
      <trkpt lat="45.25702" lon="6.71656">
        <ele>2122.25</ele>
        <time>2018-06-23T14:15:25Z</time>
      </trkpt>
      <trkpt lat="45.25696" lon="6.71672">
        <ele>2121.29</ele>
        <time>2018-06-23T14:15:38Z</time>
      </trkpt>
      <trkpt lat="45.25695" lon="6.71673">
        <ele>2121.29</ele>
        <time>2018-06-23T14:15:39Z</time>
      </trkpt>
      <trkpt lat="45.25688" lon="6.7169">
        <ele>2121.77</ele>
        <time>2018-06-23T14:15:53Z</time>
      </trkpt>
      <trkpt lat="45.25686" lon="6.71706">
        <ele>2121.29</ele>
        <time>2018-06-23T14:16:03Z</time>
      </trkpt>
      <trkpt lat="45.25685" lon="6.71707">
        <ele>2121.29</ele>
        <time>2018-06-23T14:16:04Z</time>
      </trkpt>
      <trkpt lat="45.25678" lon="6.71713">
        <ele>2121.29</ele>
        <time>2018-06-23T14:16:09Z</time>
      </trkpt>
      <trkpt lat="45.25675" lon="6.71719">
        <ele>2120.81</ele>
        <time>2018-06-23T14:16:13Z</time>
      </trkpt>
      <trkpt lat="45.25674" lon="6.71721">
        <ele>2120.81</ele>
        <time>2018-06-23T14:16:14Z</time>
      </trkpt>
      <trkpt lat="45.25675" lon="6.71738">
        <ele>2120.32</ele>
        <time>2018-06-23T14:16:27Z</time>
      </trkpt>
      <trkpt lat="45.25663" lon="6.71751">
        <ele>2120.32</ele>
        <time>2018-06-23T14:16:42Z</time>
      </trkpt>
      <trkpt lat="45.25654" lon="6.71759">
        <ele>2120.32</ele>
        <time>2018-06-23T14:16:54Z</time>
      </trkpt>
      <trkpt lat="45.25639" lon="6.71769">
        <ele>2118.4</ele>
        <time>2018-06-23T14:17:11Z</time>
      </trkpt>
      <trkpt lat="45.25632" lon="6.71779">
        <ele>2117.92</ele>
        <time>2018-06-23T14:17:22Z</time>
      </trkpt>
      <trkpt lat="45.2563" lon="6.71782">
        <ele>2117.92</ele>
        <time>2018-06-23T14:17:30Z</time>
      </trkpt>
      <trkpt lat="45.25629" lon="6.71783">
        <ele>2117.92</ele>
        <time>2018-06-23T14:17:31Z</time>
      </trkpt>
      <trkpt lat="45.25628" lon="6.71786">
        <ele>2117.92</ele>
        <time>2018-06-23T14:17:33Z</time>
      </trkpt>
      <trkpt lat="45.25627" lon="6.71786">
        <ele>2116.96</ele>
        <time>2018-06-23T14:17:34Z</time>
      </trkpt>
      <trkpt lat="45.25626" lon="6.71787">
        <ele>2116.96</ele>
        <time>2018-06-23T14:17:35Z</time>
      </trkpt>
      <trkpt lat="45.25618" lon="6.71794">
        <ele>2116</ele>
        <time>2018-06-23T14:17:47Z</time>
      </trkpt>
      <trkpt lat="45.25616" lon="6.718">
        <ele>2116</ele>
        <time>2018-06-23T14:18:10Z</time>
      </trkpt>
      <trkpt lat="45.25613" lon="6.71801">
        <ele>2116</ele>
        <time>2018-06-23T14:18:24Z</time>
      </trkpt>
      <trkpt lat="45.25611" lon="6.718">
        <ele>2115.04</ele>
        <time>2018-06-23T14:18:35Z</time>
      </trkpt>
      <trkpt lat="45.25605" lon="6.71807">
        <ele>2114.56</ele>
        <time>2018-06-23T14:18:44Z</time>
      </trkpt>
      <trkpt lat="45.25604" lon="6.71808">
        <ele>2114.56</ele>
        <time>2018-06-23T14:18:45Z</time>
      </trkpt>
      <trkpt lat="45.25602" lon="6.7181">
        <ele>2114.08</ele>
        <time>2018-06-23T14:18:47Z</time>
      </trkpt>
      <trkpt lat="45.25601" lon="6.71812">
        <ele>2113.6</ele>
        <time>2018-06-23T14:18:49Z</time>
      </trkpt>
      <trkpt lat="45.25601" lon="6.71814">
        <ele>2113.6</ele>
        <time>2018-06-23T14:18:50Z</time>
      </trkpt>
      <trkpt lat="45.256" lon="6.71815">
        <ele>2113.6</ele>
        <time>2018-06-23T14:18:51Z</time>
      </trkpt>
      <trkpt lat="45.25591" lon="6.71826">
        <ele>2111.19</ele>
        <time>2018-06-23T14:19:01Z</time>
      </trkpt>
      <trkpt lat="45.25586" lon="6.71829">
        <ele>2111.19</ele>
        <time>2018-06-23T14:19:06Z</time>
      </trkpt>
      <trkpt lat="45.25581" lon="6.71834">
        <ele>2111.19</ele>
        <time>2018-06-23T14:19:11Z</time>
      </trkpt>
      <trkpt lat="45.25572" lon="6.71848">
        <ele>2110.71</ele>
        <time>2018-06-23T14:19:24Z</time>
      </trkpt>
      <trkpt lat="45.25569" lon="6.7185">
        <ele>2110.23</ele>
        <time>2018-06-23T14:19:27Z</time>
      </trkpt>
      <trkpt lat="45.25562" lon="6.71857">
        <ele>2109.27</ele>
        <time>2018-06-23T14:19:37Z</time>
      </trkpt>
      <trkpt lat="45.25561" lon="6.71858">
        <ele>2109.27</ele>
        <time>2018-06-23T14:19:38Z</time>
      </trkpt>
      <trkpt lat="45.25549" lon="6.71868">
        <ele>2109.27</ele>
        <time>2018-06-23T14:19:48Z</time>
      </trkpt>
      <trkpt lat="45.25539" lon="6.71881">
        <ele>2107.35</ele>
        <time>2018-06-23T14:20:03Z</time>
      </trkpt>
      <trkpt lat="45.25532" lon="6.71889">
        <ele>2106.87</ele>
        <time>2018-06-23T14:20:13Z</time>
      </trkpt>
      <trkpt lat="45.25526" lon="6.719">
        <ele>2106.39</ele>
        <time>2018-06-23T14:20:23Z</time>
      </trkpt>
      <trkpt lat="45.25524" lon="6.71906">
        <ele>2105.42</ele>
        <time>2018-06-23T14:20:26Z</time>
      </trkpt>
      <trkpt lat="45.25517" lon="6.71924">
        <ele>2103.5</ele>
        <time>2018-06-23T14:20:39Z</time>
      </trkpt>
      <trkpt lat="45.25511" lon="6.7194">
        <ele>2102.06</ele>
        <time>2018-06-23T14:20:52Z</time>
      </trkpt>
      <trkpt lat="45.25506" lon="6.71951">
        <ele>2101.58</ele>
        <time>2018-06-23T14:21:00Z</time>
      </trkpt>
      <trkpt lat="45.25502" lon="6.71971">
        <ele>2101.1</ele>
        <time>2018-06-23T14:21:11Z</time>
      </trkpt>
      <trkpt lat="45.25498" lon="6.71979">
        <ele>2100.14</ele>
        <time>2018-06-23T14:21:17Z</time>
      </trkpt>
      <trkpt lat="45.25497" lon="6.71981">
        <ele>2100.14</ele>
        <time>2018-06-23T14:21:18Z</time>
      </trkpt>
      <trkpt lat="45.2549" lon="6.71994">
        <ele>2100.14</ele>
        <time>2018-06-23T14:21:29Z</time>
      </trkpt>
      <trkpt lat="45.25489" lon="6.71996">
        <ele>2100.14</ele>
        <time>2018-06-23T14:21:30Z</time>
      </trkpt>
      <trkpt lat="45.25489" lon="6.71998">
        <ele>2099.66</ele>
        <time>2018-06-23T14:21:31Z</time>
      </trkpt>
      <trkpt lat="45.25488" lon="6.71999">
        <ele>2099.66</ele>
        <time>2018-06-23T14:21:32Z</time>
      </trkpt>
      <trkpt lat="45.25487" lon="6.72">
        <ele>2099.66</ele>
        <time>2018-06-23T14:21:33Z</time>
      </trkpt>
      <trkpt lat="45.25486" lon="6.72">
        <ele>2099.66</ele>
        <time>2018-06-23T14:21:34Z</time>
      </trkpt>
      <trkpt lat="45.25482" lon="6.72004">
        <ele>2099.66</ele>
        <time>2018-06-23T14:21:38Z</time>
      </trkpt>
      <trkpt lat="45.25478" lon="6.72027">
        <ele>2099.18</ele>
        <time>2018-06-23T14:21:52Z</time>
      </trkpt>
      <trkpt lat="45.25478" lon="6.72034">
        <ele>2099.18</ele>
        <time>2018-06-23T14:21:56Z</time>
      </trkpt>
      <trkpt lat="45.25472" lon="6.72055">
        <ele>2100.14</ele>
        <time>2018-06-23T14:22:10Z</time>
      </trkpt>
      <trkpt lat="45.25464" lon="6.72072">
        <ele>2100.14</ele>
        <time>2018-06-23T14:22:25Z</time>
      </trkpt>
      <trkpt lat="45.25462" lon="6.72075">
        <ele>2100.14</ele>
        <time>2018-06-23T14:22:27Z</time>
      </trkpt>
      <trkpt lat="45.25458" lon="6.72083">
        <ele>2098.7</ele>
        <time>2018-06-23T14:22:33Z</time>
      </trkpt>
      <trkpt lat="45.25448" lon="6.72096">
        <ele>2097.25</ele>
        <time>2018-06-23T14:22:49Z</time>
      </trkpt>
      <trkpt lat="45.25438" lon="6.72101">
        <ele>2095.81</ele>
        <time>2018-06-23T14:23:05Z</time>
      </trkpt>
      <trkpt lat="45.25435" lon="6.72107">
        <ele>2094.85</ele>
        <time>2018-06-23T14:23:17Z</time>
      </trkpt>
      <trkpt lat="45.25431" lon="6.72112">
        <ele>2093.89</ele>
        <time>2018-06-23T14:23:23Z</time>
      </trkpt>
      <trkpt lat="45.25422" lon="6.72117">
        <ele>2092.93</ele>
        <time>2018-06-23T14:23:35Z</time>
      </trkpt>
      <trkpt lat="45.25414" lon="6.7212">
        <ele>2091.49</ele>
        <time>2018-06-23T14:23:48Z</time>
      </trkpt>
      <trkpt lat="45.25413" lon="6.72122">
        <ele>2091</ele>
        <time>2018-06-23T14:23:53Z</time>
      </trkpt>
      <trkpt lat="45.25415" lon="6.72121">
        <ele>2091</ele>
        <time>2018-06-23T14:23:54Z</time>
      </trkpt>
      <trkpt lat="45.25411" lon="6.72122">
        <ele>2092.93</ele>
        <time>2018-06-23T14:24:05Z</time>
      </trkpt>
      <trkpt lat="45.25408" lon="6.72118">
        <ele>2092.45</ele>
        <time>2018-06-23T14:24:11Z</time>
      </trkpt>
      <trkpt lat="45.25405" lon="6.72113">
        <ele>2091.49</ele>
        <time>2018-06-23T14:24:17Z</time>
      </trkpt>
      <trkpt lat="45.25391" lon="6.72099">
        <ele>2089.08</ele>
        <time>2018-06-23T14:24:32Z</time>
      </trkpt>
      <trkpt lat="45.25379" lon="6.72088">
        <ele>2088.12</ele>
        <time>2018-06-23T14:24:48Z</time>
      </trkpt>
      <trkpt lat="45.25364" lon="6.72078">
        <ele>2086.2</ele>
        <time>2018-06-23T14:25:03Z</time>
      </trkpt>
      <trkpt lat="45.25354" lon="6.7208">
        <ele>2085.24</ele>
        <time>2018-06-23T14:25:07Z</time>
      </trkpt>
      <trkpt lat="45.25353" lon="6.72082">
        <ele>2084.76</ele>
        <time>2018-06-23T14:25:08Z</time>
      </trkpt>
      <trkpt lat="45.25354" lon="6.7209">
        <ele>2084.28</ele>
        <time>2018-06-23T14:25:13Z</time>
      </trkpt>
      <trkpt lat="45.25355" lon="6.7209">
        <ele>2084.28</ele>
        <time>2018-06-23T14:25:14Z</time>
      </trkpt>
      <trkpt lat="45.25355" lon="6.72091">
        <ele>2084.28</ele>
        <time>2018-06-23T14:25:15Z</time>
      </trkpt>
      <trkpt lat="45.25363" lon="6.721">
        <ele>2082.83</ele>
        <time>2018-06-23T14:25:25Z</time>
      </trkpt>
      <trkpt lat="45.25368" lon="6.72114">
        <ele>2081.39</ele>
        <time>2018-06-23T14:25:38Z</time>
      </trkpt>
      <trkpt lat="45.25369" lon="6.72116">
        <ele>2081.39</ele>
        <time>2018-06-23T14:25:41Z</time>
      </trkpt>
      <trkpt lat="45.25369" lon="6.72118">
        <ele>2080.91</ele>
        <time>2018-06-23T14:25:43Z</time>
      </trkpt>
      <trkpt lat="45.25375" lon="6.72138">
        <ele>2079.47</ele>
        <time>2018-06-23T14:25:56Z</time>
      </trkpt>
      <trkpt lat="45.25382" lon="6.72153">
        <ele>2078.51</ele>
        <time>2018-06-23T14:26:08Z</time>
      </trkpt>
      <trkpt lat="45.25389" lon="6.72162">
        <ele>2077.55</ele>
        <time>2018-06-23T14:26:21Z</time>
      </trkpt>
      <trkpt lat="45.25393" lon="6.7217">
        <ele>2076.1</ele>
        <time>2018-06-23T14:26:31Z</time>
      </trkpt>
      <trkpt lat="45.25393" lon="6.72172">
        <ele>2076.1</ele>
        <time>2018-06-23T14:26:32Z</time>
      </trkpt>
      <trkpt lat="45.25396" lon="6.72176">
        <ele>2075.62</ele>
        <time>2018-06-23T14:26:36Z</time>
      </trkpt>
      <trkpt lat="45.25405" lon="6.72192">
        <ele>2074.66</ele>
        <time>2018-06-23T14:26:46Z</time>
      </trkpt>
      <trkpt lat="45.25405" lon="6.72195">
        <ele>2074.66</ele>
        <time>2018-06-23T14:26:48Z</time>
      </trkpt>
      <trkpt lat="45.25406" lon="6.722">
        <ele>2074.18</ele>
        <time>2018-06-23T14:26:52Z</time>
      </trkpt>
      <trkpt lat="45.25411" lon="6.72221">
        <ele>2073.22</ele>
        <time>2018-06-23T14:27:08Z</time>
      </trkpt>
      <trkpt lat="45.25412" lon="6.72239">
        <ele>2071.3</ele>
        <time>2018-06-23T14:27:21Z</time>
      </trkpt>
      <trkpt lat="45.25414" lon="6.72243">
        <ele>2070.82</ele>
        <time>2018-06-23T14:27:25Z</time>
      </trkpt>
      <trkpt lat="45.25414" lon="6.72245">
        <ele>2070.82</ele>
        <time>2018-06-23T14:27:26Z</time>
      </trkpt>
      <trkpt lat="45.2542" lon="6.72255">
        <ele>2070.34</ele>
        <time>2018-06-23T14:27:33Z</time>
      </trkpt>
      <trkpt lat="45.25422" lon="6.72258">
        <ele>2070.34</ele>
        <time>2018-06-23T14:27:35Z</time>
      </trkpt>
      <trkpt lat="45.25436" lon="6.72271">
        <ele>2068.89</ele>
        <time>2018-06-23T14:27:48Z</time>
      </trkpt>
      <trkpt lat="45.25445" lon="6.72287">
        <ele>2067.93</ele>
        <time>2018-06-23T14:28:01Z</time>
      </trkpt>
      <trkpt lat="45.25446" lon="6.7229">
        <ele>2067.45</ele>
        <time>2018-06-23T14:28:04Z</time>
      </trkpt>
      <trkpt lat="45.25462" lon="6.72298">
        <ele>2067.45</ele>
        <time>2018-06-23T14:28:19Z</time>
      </trkpt>
      <trkpt lat="45.25466" lon="6.72299">
        <ele>2067.45</ele>
        <time>2018-06-23T14:28:34Z</time>
      </trkpt>
      <trkpt lat="45.25462" lon="6.72298">
        <ele>2067.45</ele>
        <time>2018-06-23T14:28:50Z</time>
      </trkpt>
      <trkpt lat="45.25461" lon="6.72301">
        <ele>2067.45</ele>
        <time>2018-06-23T14:29:15Z</time>
      </trkpt>
      <trkpt lat="45.25455" lon="6.72313">
        <ele>2067.45</ele>
        <time>2018-06-23T14:29:37Z</time>
      </trkpt>
      <trkpt lat="45.25461" lon="6.72286">
        <ele>2066.49</ele>
        <time>2018-06-23T14:29:52Z</time>
      </trkpt>
      <trkpt lat="45.25455" lon="6.72283">
        <ele>2065.53</ele>
        <time>2018-06-23T14:30:05Z</time>
      </trkpt>
      <trkpt lat="45.25442" lon="6.72283">
        <ele>2064.57</ele>
        <time>2018-06-23T14:30:20Z</time>
      </trkpt>
      <trkpt lat="45.2543" lon="6.72286">
        <ele>2064.09</ele>
        <time>2018-06-23T14:30:40Z</time>
      </trkpt>
      <trkpt lat="45.25432" lon="6.72282">
        <ele>2063.61</ele>
        <time>2018-06-23T14:30:53Z</time>
      </trkpt>
      <trkpt lat="45.25433" lon="6.72279">
        <ele>2063.61</ele>
        <time>2018-06-23T14:31:12Z</time>
      </trkpt>
      <trkpt lat="45.2543" lon="6.72277">
        <ele>2063.61</ele>
        <time>2018-06-23T14:31:32Z</time>
      </trkpt>
      <trkpt lat="45.2543" lon="6.72278">
        <ele>2062.65</ele>
        <time>2018-06-23T14:31:49Z</time>
      </trkpt>
      <trkpt lat="45.25433" lon="6.72274">
        <ele>2062.17</ele>
        <time>2018-06-23T14:32:15Z</time>
      </trkpt>
      <trkpt lat="45.25432" lon="6.72274">
        <ele>2062.17</ele>
        <time>2018-06-23T14:32:46Z</time>
      </trkpt>
      <trkpt lat="45.2543" lon="6.72278">
        <ele>2062.17</ele>
        <time>2018-06-23T14:33:13Z</time>
      </trkpt>
      <trkpt lat="45.2543" lon="6.72278">
        <ele>2063.13</ele>
        <time>2018-06-23T14:33:45Z</time>
      </trkpt>
      <trkpt lat="45.25432" lon="6.72275">
        <ele>2062.65</ele>
        <time>2018-06-23T14:34:11Z</time>
      </trkpt>
      <trkpt lat="45.25431" lon="6.72276">
        <ele>2063.13</ele>
        <time>2018-06-23T14:34:38Z</time>
      </trkpt>
      <trkpt lat="45.25434" lon="6.72275">
        <ele>2062.65</ele>
        <time>2018-06-23T14:35:03Z</time>
      </trkpt>
      <trkpt lat="45.25432" lon="6.72274">
        <ele>2062.65</ele>
        <time>2018-06-23T14:35:31Z</time>
      </trkpt>
      <trkpt lat="45.25431" lon="6.72277">
        <ele>2063.13</ele>
        <time>2018-06-23T14:35:43Z</time>
      </trkpt>
      <trkpt lat="45.25429" lon="6.72279">
        <ele>2064.57</ele>
        <time>2018-06-23T14:35:45Z</time>
      </trkpt>
      <trkpt lat="45.25426" lon="6.72285">
        <ele>2062.65</ele>
        <time>2018-06-23T14:35:51Z</time>
      </trkpt>
      <trkpt lat="45.25424" lon="6.72289">
        <ele>2061.2</ele>
        <time>2018-06-23T14:36:03Z</time>
      </trkpt>
      <trkpt lat="45.25425" lon="6.72293">
        <ele>2060.24</ele>
        <time>2018-06-23T14:36:29Z</time>
      </trkpt>
      <trkpt lat="45.25424" lon="6.72298">
        <ele>2060.24</ele>
        <time>2018-06-23T14:37:01Z</time>
      </trkpt>
      <trkpt lat="45.25424" lon="6.72291">
        <ele>2059.76</ele>
        <time>2018-06-23T14:37:42Z</time>
      </trkpt>
      <trkpt lat="45.25423" lon="6.72293">
        <ele>2060.72</ele>
        <time>2018-06-23T14:38:04Z</time>
      </trkpt>
      <trkpt lat="45.25427" lon="6.72283">
        <ele>2060.72</ele>
        <time>2018-06-23T14:38:12Z</time>
      </trkpt>
      <trkpt lat="45.25429" lon="6.7228">
        <ele>2060.72</ele>
        <time>2018-06-23T14:38:27Z</time>
      </trkpt>
      <trkpt lat="45.25429" lon="6.72281">
        <ele>2060.24</ele>
        <time>2018-06-23T14:39:05Z</time>
      </trkpt>
      <trkpt lat="45.25426" lon="6.72287">
        <ele>2060.24</ele>
        <time>2018-06-23T14:39:29Z</time>
      </trkpt>
      <trkpt lat="45.25428" lon="6.7229">
        <ele>2060.24</ele>
        <time>2018-06-23T14:40:00Z</time>
      </trkpt>
      <trkpt lat="45.25427" lon="6.72286">
        <ele>2059.76</ele>
        <time>2018-06-23T14:40:35Z</time>
      </trkpt>
      <trkpt lat="45.25428" lon="6.72283">
        <ele>2059.76</ele>
        <time>2018-06-23T14:41:04Z</time>
      </trkpt>
      <trkpt lat="45.25428" lon="6.72285">
        <ele>2059.76</ele>
        <time>2018-06-23T14:41:33Z</time>
      </trkpt>
      <trkpt lat="45.25427" lon="6.72288">
        <ele>2059.28</ele>
        <time>2018-06-23T14:42:13Z</time>
      </trkpt>
      <trkpt lat="45.25428" lon="6.72286">
        <ele>2059.28</ele>
        <time>2018-06-23T14:42:44Z</time>
      </trkpt>
      <trkpt lat="45.25428" lon="6.72279">
        <ele>2059.28</ele>
        <time>2018-06-23T14:43:17Z</time>
      </trkpt>
      <trkpt lat="45.25427" lon="6.72284">
        <ele>2059.28</ele>
        <time>2018-06-23T14:43:54Z</time>
      </trkpt>
      <trkpt lat="45.25425" lon="6.72287">
        <ele>2060.24</ele>
        <time>2018-06-23T14:44:26Z</time>
      </trkpt>
      <trkpt lat="45.25429" lon="6.72283">
        <ele>2060.24</ele>
        <time>2018-06-23T14:45:00Z</time>
      </trkpt>
      <trkpt lat="45.25428" lon="6.72282">
        <ele>2060.24</ele>
        <time>2018-06-23T14:45:32Z</time>
      </trkpt>
      <trkpt lat="45.25427" lon="6.72281">
        <ele>2060.24</ele>
        <time>2018-06-23T14:46:03Z</time>
      </trkpt>
      <trkpt lat="45.25428" lon="6.7228">
        <ele>2059.76</ele>
        <time>2018-06-23T14:46:38Z</time>
      </trkpt>
      <trkpt lat="45.25429" lon="6.7228">
        <ele>2059.76</ele>
        <time>2018-06-23T14:47:08Z</time>
      </trkpt>
      <trkpt lat="45.25429" lon="6.7228">
        <ele>2059.76</ele>
        <time>2018-06-23T14:47:30Z</time>
      </trkpt>
      <trkpt lat="45.2543" lon="6.72276">
        <ele>2060.24</ele>
        <time>2018-06-23T14:48:03Z</time>
      </trkpt>
      <trkpt lat="45.25429" lon="6.72276">
        <ele>2059.76</ele>
        <time>2018-06-23T14:48:33Z</time>
      </trkpt>
      <trkpt lat="45.25432" lon="6.72272">
        <ele>2059.76</ele>
        <time>2018-06-23T14:49:00Z</time>
      </trkpt>
      <trkpt lat="45.25434" lon="6.72273">
        <ele>2059.76</ele>
        <time>2018-06-23T14:49:25Z</time>
      </trkpt>
      <trkpt lat="45.25431" lon="6.72276">
        <ele>2059.76</ele>
        <time>2018-06-23T14:50:02Z</time>
      </trkpt>
      <trkpt lat="45.25431" lon="6.72273">
        <ele>2059.76</ele>
        <time>2018-06-23T14:50:29Z</time>
      </trkpt>
      <trkpt lat="45.2543" lon="6.72275">
        <ele>2059.76</ele>
        <time>2018-06-23T14:50:59Z</time>
      </trkpt>
      <trkpt lat="45.2543" lon="6.72278">
        <ele>2059.76</ele>
        <time>2018-06-23T14:51:33Z</time>
      </trkpt>
      <trkpt lat="45.2543" lon="6.72276">
        <ele>2058.8</ele>
        <time>2018-06-23T14:51:53Z</time>
      </trkpt>
      <trkpt lat="45.2543" lon="6.72278">
        <ele>2058.8</ele>
        <time>2018-06-23T14:51:54Z</time>
      </trkpt>
      <trkpt lat="45.25429" lon="6.72279">
        <ele>2058.8</ele>
        <time>2018-06-23T14:52:23Z</time>
      </trkpt>
      <trkpt lat="45.25428" lon="6.72283">
        <ele>2058.32</ele>
        <time>2018-06-23T14:52:54Z</time>
      </trkpt>
      <trkpt lat="45.25428" lon="6.72283">
        <ele>2058.32</ele>
        <time>2018-06-23T14:53:27Z</time>
      </trkpt>
      <trkpt lat="45.25428" lon="6.72282">
        <ele>2058.32</ele>
        <time>2018-06-23T14:53:59Z</time>
      </trkpt>
      <trkpt lat="45.25432" lon="6.72279">
        <ele>2058.32</ele>
        <time>2018-06-23T14:54:31Z</time>
      </trkpt>
      <trkpt lat="45.25432" lon="6.72278">
        <ele>2059.28</ele>
        <time>2018-06-23T14:54:48Z</time>
      </trkpt>
      <trkpt lat="45.25432" lon="6.72277">
        <ele>2059.28</ele>
        <time>2018-06-23T14:55:22Z</time>
      </trkpt>
      <trkpt lat="45.25428" lon="6.72285">
        <ele>2059.28</ele>
        <time>2018-06-23T14:55:53Z</time>
      </trkpt>
      <trkpt lat="45.25429" lon="6.72286">
        <ele>2059.28</ele>
        <time>2018-06-23T14:56:25Z</time>
      </trkpt>
      <trkpt lat="45.25426" lon="6.72281">
        <ele>2059.28</ele>
        <time>2018-06-23T14:57:01Z</time>
      </trkpt>
      <trkpt lat="45.25427" lon="6.72283">
        <ele>2059.28</ele>
        <time>2018-06-23T14:57:34Z</time>
      </trkpt>
      <trkpt lat="45.25428" lon="6.7228">
        <ele>2059.28</ele>
        <time>2018-06-23T14:58:06Z</time>
      </trkpt>
      <trkpt lat="45.25424" lon="6.72284">
        <ele>2058.8</ele>
        <time>2018-06-23T14:58:42Z</time>
      </trkpt>
      <trkpt lat="45.25429" lon="6.72274">
        <ele>2058.8</ele>
        <time>2018-06-23T14:59:10Z</time>
      </trkpt>
      <trkpt lat="45.25428" lon="6.72285">
        <ele>2058.8</ele>
        <time>2018-06-23T14:59:42Z</time>
      </trkpt>
      <trkpt lat="45.25431" lon="6.72279">
        <ele>2058.32</ele>
        <time>2018-06-23T15:00:02Z</time>
      </trkpt>
      <trkpt lat="45.25431" lon="6.72277">
        <ele>2058.32</ele>
        <time>2018-06-23T15:00:25Z</time>
      </trkpt>
      <trkpt lat="45.25433" lon="6.72272">
        <ele>2058.32</ele>
        <time>2018-06-23T15:00:52Z</time>
      </trkpt>
      <trkpt lat="45.25427" lon="6.72283">
        <ele>2058.32</ele>
        <time>2018-06-23T15:01:30Z</time>
      </trkpt>
      <trkpt lat="45.25428" lon="6.72283">
        <ele>2058.32</ele>
        <time>2018-06-23T15:01:58Z</time>
      </trkpt>
      <trkpt lat="45.25428" lon="6.72282">
        <ele>2058.32</ele>
        <time>2018-06-23T15:02:30Z</time>
      </trkpt>
      <trkpt lat="45.25427" lon="6.72277">
        <ele>2058.32</ele>
        <time>2018-06-23T15:02:55Z</time>
      </trkpt>
      <trkpt lat="45.25428" lon="6.72283">
        <ele>2058.32</ele>
        <time>2018-06-23T15:03:25Z</time>
      </trkpt>
      <trkpt lat="45.2543" lon="6.72279">
        <ele>2058.32</ele>
        <time>2018-06-23T15:04:02Z</time>
      </trkpt>
      <trkpt lat="45.25425" lon="6.72284">
        <ele>2058.32</ele>
        <time>2018-06-23T15:04:33Z</time>
      </trkpt>
      <trkpt lat="45.25427" lon="6.72281">
        <ele>2058.32</ele>
        <time>2018-06-23T15:05:03Z</time>
      </trkpt>
      <trkpt lat="45.25431" lon="6.72284">
        <ele>2058.8</ele>
        <time>2018-06-23T15:05:32Z</time>
      </trkpt>
      <trkpt lat="45.25425" lon="6.72283">
        <ele>2058.8</ele>
        <time>2018-06-23T15:06:06Z</time>
      </trkpt>
      <trkpt lat="45.25425" lon="6.72284">
        <ele>2058.8</ele>
        <time>2018-06-23T15:06:36Z</time>
      </trkpt>
      <trkpt lat="45.25428" lon="6.72281">
        <ele>2057.84</ele>
        <time>2018-06-23T15:07:04Z</time>
      </trkpt>
      <trkpt lat="45.25427" lon="6.72281">
        <ele>2057.84</ele>
        <time>2018-06-23T15:07:35Z</time>
      </trkpt>
      <trkpt lat="45.25428" lon="6.7228">
        <ele>2057.84</ele>
        <time>2018-06-23T15:08:11Z</time>
      </trkpt>
      <trkpt lat="45.25428" lon="6.7228">
        <ele>2057.84</ele>
        <time>2018-06-23T15:08:48Z</time>
      </trkpt>
      <trkpt lat="45.25427" lon="6.72282">
        <ele>2057.84</ele>
        <time>2018-06-23T15:09:25Z</time>
      </trkpt>
      <trkpt lat="45.25428" lon="6.72281">
        <ele>2057.84</ele>
        <time>2018-06-23T15:09:52Z</time>
      </trkpt>
      <trkpt lat="45.2543" lon="6.72275">
        <ele>2057.84</ele>
        <time>2018-06-23T15:10:16Z</time>
      </trkpt>
      <trkpt lat="45.25429" lon="6.72279">
        <ele>2057.84</ele>
        <time>2018-06-23T15:10:45Z</time>
      </trkpt>
      <trkpt lat="45.2543" lon="6.72279">
        <ele>2057.84</ele>
        <time>2018-06-23T15:11:12Z</time>
      </trkpt>
      <trkpt lat="45.2543" lon="6.72278">
        <ele>2057.84</ele>
        <time>2018-06-23T15:11:43Z</time>
      </trkpt>
      <trkpt lat="45.25429" lon="6.72275">
        <ele>2057.84</ele>
        <time>2018-06-23T15:12:11Z</time>
      </trkpt>
      <trkpt lat="45.2543" lon="6.72271">
        <ele>2057.84</ele>
        <time>2018-06-23T15:12:38Z</time>
      </trkpt>
      <trkpt lat="45.25429" lon="6.72278">
        <ele>2057.84</ele>
        <time>2018-06-23T15:13:02Z</time>
      </trkpt>
      <trkpt lat="45.25427" lon="6.72276">
        <ele>2057.84</ele>
        <time>2018-06-23T15:13:30Z</time>
      </trkpt>
      <trkpt lat="45.25426" lon="6.72284">
        <ele>2057.84</ele>
        <time>2018-06-23T15:14:03Z</time>
      </trkpt>
      <trkpt lat="45.25428" lon="6.72281">
        <ele>2057.84</ele>
        <time>2018-06-23T15:14:32Z</time>
      </trkpt>
      <trkpt lat="45.25428" lon="6.72284">
        <ele>2057.84</ele>
        <time>2018-06-23T15:15:03Z</time>
      </trkpt>
      <trkpt lat="45.25424" lon="6.72285">
        <ele>2057.84</ele>
        <time>2018-06-23T15:15:33Z</time>
      </trkpt>
      <trkpt lat="45.25426" lon="6.72284">
        <ele>2057.84</ele>
        <time>2018-06-23T15:16:07Z</time>
      </trkpt>
      <trkpt lat="45.25427" lon="6.72281">
        <ele>2057.84</ele>
        <time>2018-06-23T15:16:46Z</time>
      </trkpt>
      <trkpt lat="45.25428" lon="6.72281">
        <ele>2057.84</ele>
        <time>2018-06-23T15:17:23Z</time>
      </trkpt>
      <trkpt lat="45.25428" lon="6.7228">
        <ele>2057.84</ele>
        <time>2018-06-23T15:17:55Z</time>
      </trkpt>
      <trkpt lat="45.25428" lon="6.72281">
        <ele>2057.84</ele>
        <time>2018-06-23T15:18:29Z</time>
      </trkpt>
      <trkpt lat="45.25428" lon="6.72277">
        <ele>2057.84</ele>
        <time>2018-06-23T15:19:01Z</time>
      </trkpt>
      <trkpt lat="45.25429" lon="6.72274">
        <ele>2057.84</ele>
        <time>2018-06-23T15:19:29Z</time>
      </trkpt>
      <trkpt lat="45.25428" lon="6.72276">
        <ele>2057.84</ele>
        <time>2018-06-23T15:20:01Z</time>
      </trkpt>
      <trkpt lat="45.2543" lon="6.72277">
        <ele>2057.36</ele>
        <time>2018-06-23T15:20:27Z</time>
      </trkpt>
      <trkpt lat="45.25432" lon="6.72275">
        <ele>2057.36</ele>
        <time>2018-06-23T15:20:57Z</time>
      </trkpt>
      <trkpt lat="45.2543" lon="6.72277">
        <ele>2056.88</ele>
        <time>2018-06-23T15:21:28Z</time>
      </trkpt>
      <trkpt lat="45.2543" lon="6.7228">
        <ele>2057.36</ele>
        <time>2018-06-23T15:22:09Z</time>
      </trkpt>
      <trkpt lat="45.25427" lon="6.72275">
        <ele>2057.36</ele>
        <time>2018-06-23T15:22:51Z</time>
      </trkpt>
      <trkpt lat="45.25422" lon="6.7229">
        <ele>2057.36</ele>
        <time>2018-06-23T15:23:33Z</time>
      </trkpt>
      <trkpt lat="45.25425" lon="6.72279">
        <ele>2057.36</ele>
        <time>2018-06-23T15:24:05Z</time>
      </trkpt>
      <trkpt lat="45.25426" lon="6.72278">
        <ele>2057.36</ele>
        <time>2018-06-23T15:24:42Z</time>
      </trkpt>
      <trkpt lat="45.25427" lon="6.72288">
        <ele>2057.36</ele>
        <time>2018-06-23T15:25:18Z</time>
      </trkpt>
      <trkpt lat="45.25431" lon="6.7228">
        <ele>2057.36</ele>
        <time>2018-06-23T15:25:54Z</time>
      </trkpt>
      <trkpt lat="45.25427" lon="6.72282">
        <ele>2057.36</ele>
        <time>2018-06-23T15:26:26Z</time>
      </trkpt>
      <trkpt lat="45.2543" lon="6.72278">
        <ele>2057.36</ele>
        <time>2018-06-23T15:26:56Z</time>
      </trkpt>
      <trkpt lat="45.25428" lon="6.72276">
        <ele>2057.36</ele>
        <time>2018-06-23T15:27:35Z</time>
      </trkpt>
      <trkpt lat="45.25433" lon="6.72271">
        <ele>2057.36</ele>
        <time>2018-06-23T15:28:06Z</time>
      </trkpt>
      <trkpt lat="45.25429" lon="6.72281">
        <ele>2057.36</ele>
        <time>2018-06-23T15:28:49Z</time>
      </trkpt>
      <trkpt lat="45.25427" lon="6.72283">
        <ele>2058.32</ele>
        <time>2018-06-23T15:29:07Z</time>
      </trkpt>
      <trkpt lat="45.25429" lon="6.72279">
        <ele>2058.32</ele>
        <time>2018-06-23T15:29:46Z</time>
      </trkpt>
      <trkpt lat="45.25431" lon="6.72276">
        <ele>2058.32</ele>
        <time>2018-06-23T15:30:29Z</time>
      </trkpt>
      <trkpt lat="45.25431" lon="6.72274">
        <ele>2058.32</ele>
        <time>2018-06-23T15:31:06Z</time>
      </trkpt>
      <trkpt lat="45.25426" lon="6.72286">
        <ele>2058.32</ele>
        <time>2018-06-23T15:31:46Z</time>
      </trkpt>
      <trkpt lat="45.25424" lon="6.72284">
        <ele>2058.32</ele>
        <time>2018-06-23T15:32:17Z</time>
      </trkpt>
      <trkpt lat="45.25428" lon="6.72281">
        <ele>2056.88</ele>
        <time>2018-06-23T15:32:51Z</time>
      </trkpt>
      <trkpt lat="45.25425" lon="6.72284">
        <ele>2057.36</ele>
        <time>2018-06-23T15:33:27Z</time>
      </trkpt>
      <trkpt lat="45.25427" lon="6.72285">
        <ele>2057.36</ele>
        <time>2018-06-23T15:33:53Z</time>
      </trkpt>
      <trkpt lat="45.25431" lon="6.72281">
        <ele>2057.36</ele>
        <time>2018-06-23T15:34:28Z</time>
      </trkpt>
      <trkpt lat="45.25432" lon="6.72277">
        <ele>2058.32</ele>
        <time>2018-06-23T15:35:03Z</time>
      </trkpt>
      <trkpt lat="45.2543" lon="6.7228">
        <ele>2058.32</ele>
        <time>2018-06-23T15:35:27Z</time>
      </trkpt>
      <trkpt lat="45.25429" lon="6.72279">
        <ele>2058.32</ele>
        <time>2018-06-23T15:35:45Z</time>
      </trkpt>
      <trkpt lat="45.25433" lon="6.72275">
        <ele>2058.32</ele>
        <time>2018-06-23T15:36:05Z</time>
      </trkpt>
      <trkpt lat="45.25436" lon="6.72277">
        <ele>2058.32</ele>
        <time>2018-06-23T15:36:29Z</time>
      </trkpt>
      <trkpt lat="45.25429" lon="6.72278">
        <ele>2058.8</ele>
        <time>2018-06-23T15:36:45Z</time>
      </trkpt>
      <trkpt lat="45.25428" lon="6.7228">
        <ele>2058.8</ele>
        <time>2018-06-23T15:36:59Z</time>
      </trkpt>
      <trkpt lat="45.25428" lon="6.72285">
        <ele>2058.32</ele>
        <time>2018-06-23T15:37:11Z</time>
      </trkpt>
      <trkpt lat="45.25433" lon="6.72291">
        <ele>2058.32</ele>
        <time>2018-06-23T15:37:24Z</time>
      </trkpt>
      <trkpt lat="45.25439" lon="6.72302">
        <ele>2059.76</ele>
        <time>2018-06-23T15:37:37Z</time>
      </trkpt>
      <trkpt lat="45.25443" lon="6.72313">
        <ele>2060.72</ele>
        <time>2018-06-23T15:37:50Z</time>
      </trkpt>
      <trkpt lat="45.2544" lon="6.72311">
        <ele>2060.72</ele>
        <time>2018-06-23T15:38:04Z</time>
      </trkpt>
      <trkpt lat="45.2544" lon="6.72311">
        <ele>2060.72</ele>
        <time>2018-06-23T15:38:05Z</time>
      </trkpt>
      <trkpt lat="45.25431" lon="6.72315">
        <ele>2060.72</ele>
        <time>2018-06-23T15:38:19Z</time>
      </trkpt>
      <trkpt lat="45.2543" lon="6.72314">
        <ele>2060.72</ele>
        <time>2018-06-23T15:38:22Z</time>
      </trkpt>
      <trkpt lat="45.25427" lon="6.72315">
        <ele>2059.76</ele>
        <time>2018-06-23T15:38:26Z</time>
      </trkpt>
      <trkpt lat="45.25406" lon="6.72321">
        <ele>2058.32</ele>
        <time>2018-06-23T15:38:42Z</time>
      </trkpt>
      <trkpt lat="45.25403" lon="6.72324">
        <ele>2057.84</ele>
        <time>2018-06-23T15:38:45Z</time>
      </trkpt>
      <trkpt lat="45.25402" lon="6.72343">
        <ele>2056.88</ele>
        <time>2018-06-23T15:38:55Z</time>
      </trkpt>
      <trkpt lat="45.25416" lon="6.72369">
        <ele>2055.44</ele>
        <time>2018-06-23T15:39:13Z</time>
      </trkpt>
      <trkpt lat="45.25424" lon="6.72384">
        <ele>2054.96</ele>
        <time>2018-06-23T15:39:23Z</time>
      </trkpt>
      <trkpt lat="45.25436" lon="6.724">
        <ele>2054.47</ele>
        <time>2018-06-23T15:39:37Z</time>
      </trkpt>
      <trkpt lat="45.25437" lon="6.724">
        <ele>2054.47</ele>
        <time>2018-06-23T15:39:38Z</time>
      </trkpt>
      <trkpt lat="45.25449" lon="6.72397">
        <ele>2053.51</ele>
        <time>2018-06-23T15:39:45Z</time>
      </trkpt>
      <trkpt lat="45.25452" lon="6.72398">
        <ele>2053.51</ele>
        <time>2018-06-23T15:39:46Z</time>
      </trkpt>
      <trkpt lat="45.25453" lon="6.72398">
        <ele>2053.03</ele>
        <time>2018-06-23T15:39:47Z</time>
      </trkpt>
      <trkpt lat="45.25465" lon="6.72391">
        <ele>2052.55</ele>
        <time>2018-06-23T15:39:55Z</time>
      </trkpt>
      <trkpt lat="45.25466" lon="6.72389">
        <ele>2052.55</ele>
        <time>2018-06-23T15:39:56Z</time>
      </trkpt>
      <trkpt lat="45.25468" lon="6.72387">
        <ele>2052.55</ele>
        <time>2018-06-23T15:39:58Z</time>
      </trkpt>
      <trkpt lat="45.25469" lon="6.72386">
        <ele>2052.55</ele>
        <time>2018-06-23T15:39:59Z</time>
      </trkpt>
      <trkpt lat="45.25473" lon="6.7238">
        <ele>2052.07</ele>
        <time>2018-06-23T15:40:03Z</time>
      </trkpt>
      <trkpt lat="45.25474" lon="6.72379">
        <ele>2052.07</ele>
        <time>2018-06-23T15:40:04Z</time>
      </trkpt>
      <trkpt lat="45.25485" lon="6.72373">
        <ele>2051.59</ele>
        <time>2018-06-23T15:40:14Z</time>
      </trkpt>
      <trkpt lat="45.25493" lon="6.72386">
        <ele>2051.11</ele>
        <time>2018-06-23T15:40:26Z</time>
      </trkpt>
      <trkpt lat="45.25494" lon="6.72395">
        <ele>2051.11</ele>
        <time>2018-06-23T15:40:34Z</time>
      </trkpt>
      <trkpt lat="45.25494" lon="6.72398">
        <ele>2050.63</ele>
        <time>2018-06-23T15:40:36Z</time>
      </trkpt>
      <trkpt lat="45.25494" lon="6.72399">
        <ele>2050.63</ele>
        <time>2018-06-23T15:40:37Z</time>
      </trkpt>
      <trkpt lat="45.25495" lon="6.72401">
        <ele>2050.63</ele>
        <time>2018-06-23T15:40:38Z</time>
      </trkpt>
      <trkpt lat="45.25495" lon="6.72404">
        <ele>2050.63</ele>
        <time>2018-06-23T15:40:39Z</time>
      </trkpt>
      <trkpt lat="45.25496" lon="6.72406">
        <ele>2050.63</ele>
        <time>2018-06-23T15:40:40Z</time>
      </trkpt>
      <trkpt lat="45.25495" lon="6.72409">
        <ele>2050.63</ele>
        <time>2018-06-23T15:40:41Z</time>
      </trkpt>
      <trkpt lat="45.25495" lon="6.72411">
        <ele>2050.63</ele>
        <time>2018-06-23T15:40:42Z</time>
      </trkpt>
      <trkpt lat="45.25494" lon="6.72413">
        <ele>2050.63</ele>
        <time>2018-06-23T15:40:43Z</time>
      </trkpt>
      <trkpt lat="45.25487" lon="6.72432">
        <ele>2050.63</ele>
        <time>2018-06-23T15:40:56Z</time>
      </trkpt>
      <trkpt lat="45.25481" lon="6.7244">
        <ele>2048.71</ele>
        <time>2018-06-23T15:41:07Z</time>
      </trkpt>
      <trkpt lat="45.25461" lon="6.72451">
        <ele>2047.26</ele>
        <time>2018-06-23T15:41:20Z</time>
      </trkpt>
      <trkpt lat="45.25441" lon="6.72454">
        <ele>2043.9</ele>
        <time>2018-06-23T15:41:26Z</time>
      </trkpt>
      <trkpt lat="45.25408" lon="6.72463">
        <ele>2041.98</ele>
        <time>2018-06-23T15:41:40Z</time>
      </trkpt>
      <trkpt lat="45.25383" lon="6.72467">
        <ele>2040.05</ele>
        <time>2018-06-23T15:41:56Z</time>
      </trkpt>
      <trkpt lat="45.25365" lon="6.72475">
        <ele>2039.09</ele>
        <time>2018-06-23T15:42:10Z</time>
      </trkpt>
      <trkpt lat="45.2535" lon="6.72482">
        <ele>2038.13</ele>
        <time>2018-06-23T15:42:23Z</time>
      </trkpt>
      <trkpt lat="45.25334" lon="6.72501">
        <ele>2035.73</ele>
        <time>2018-06-23T15:42:39Z</time>
      </trkpt>
      <trkpt lat="45.25321" lon="6.72517">
        <ele>2035.25</ele>
        <time>2018-06-23T15:42:53Z</time>
      </trkpt>
      <trkpt lat="45.25299" lon="6.72531">
        <ele>2032.36</ele>
        <time>2018-06-23T15:43:12Z</time>
      </trkpt>
      <trkpt lat="45.25273" lon="6.72543">
        <ele>2030.44</ele>
        <time>2018-06-23T15:43:33Z</time>
      </trkpt>
      <trkpt lat="45.25253" lon="6.72553">
        <ele>2030.44</ele>
        <time>2018-06-23T15:43:52Z</time>
      </trkpt>
      <trkpt lat="45.25235" lon="6.72565">
        <ele>2029</ele>
        <time>2018-06-23T15:44:09Z</time>
      </trkpt>
      <trkpt lat="45.25215" lon="6.72576">
        <ele>2027.56</ele>
        <time>2018-06-23T15:44:28Z</time>
      </trkpt>
      <trkpt lat="45.25193" lon="6.72588">
        <ele>2026.6</ele>
        <time>2018-06-23T15:44:47Z</time>
      </trkpt>
      <trkpt lat="45.25176" lon="6.72596">
        <ele>2024.19</ele>
        <time>2018-06-23T15:45:04Z</time>
      </trkpt>
      <trkpt lat="45.25162" lon="6.72602">
        <ele>2024.19</ele>
        <time>2018-06-23T15:45:19Z</time>
      </trkpt>
      <trkpt lat="45.25161" lon="6.72603">
        <ele>2024.19</ele>
        <time>2018-06-23T15:45:20Z</time>
      </trkpt>
      <trkpt lat="45.25144" lon="6.72615">
        <ele>2022.75</ele>
        <time>2018-06-23T15:45:35Z</time>
      </trkpt>
      <trkpt lat="45.2514" lon="6.72619">
        <ele>2022.75</ele>
        <time>2018-06-23T15:45:40Z</time>
      </trkpt>
      <trkpt lat="45.25138" lon="6.7262">
        <ele>2022.75</ele>
        <time>2018-06-23T15:45:41Z</time>
      </trkpt>
      <trkpt lat="45.25123" lon="6.72627">
        <ele>2022.27</ele>
        <time>2018-06-23T15:45:52Z</time>
      </trkpt>
      <trkpt lat="45.25122" lon="6.72628">
        <ele>2022.27</ele>
        <time>2018-06-23T15:45:53Z</time>
      </trkpt>
      <trkpt lat="45.25119" lon="6.72634">
        <ele>2021.31</ele>
        <time>2018-06-23T15:46:07Z</time>
      </trkpt>
      <trkpt lat="45.25115" lon="6.72629">
        <ele>2020.35</ele>
        <time>2018-06-23T15:46:20Z</time>
      </trkpt>
      <trkpt lat="45.25119" lon="6.72634">
        <ele>2021.79</ele>
        <time>2018-06-23T15:46:30Z</time>
      </trkpt>
      <trkpt lat="45.25112" lon="6.72633">
        <ele>2021.79</ele>
        <time>2018-06-23T15:46:40Z</time>
      </trkpt>
      <trkpt lat="45.25108" lon="6.72636">
        <ele>2020.83</ele>
        <time>2018-06-23T15:46:51Z</time>
      </trkpt>
      <trkpt lat="45.25108" lon="6.72637">
        <ele>2022.27</ele>
        <time>2018-06-23T15:46:53Z</time>
      </trkpt>
      <trkpt lat="45.25106" lon="6.72638">
        <ele>2021.31</ele>
        <time>2018-06-23T15:46:55Z</time>
      </trkpt>
      <trkpt lat="45.25105" lon="6.72639">
        <ele>2021.31</ele>
        <time>2018-06-23T15:46:56Z</time>
      </trkpt>
      <trkpt lat="45.25101" lon="6.72639">
        <ele>2021.31</ele>
        <time>2018-06-23T15:46:59Z</time>
      </trkpt>
      <trkpt lat="45.25098" lon="6.72638">
        <ele>2020.83</ele>
        <time>2018-06-23T15:47:03Z</time>
      </trkpt>
      <trkpt lat="45.25081" lon="6.72639">
        <ele>2020.83</ele>
        <time>2018-06-23T15:47:19Z</time>
      </trkpt>
      <trkpt lat="45.25063" lon="6.72637">
        <ele>2020.83</ele>
        <time>2018-06-23T15:47:34Z</time>
      </trkpt>
      <trkpt lat="45.25044" lon="6.72637">
        <ele>2020.35</ele>
        <time>2018-06-23T15:47:51Z</time>
      </trkpt>
      <trkpt lat="45.25026" lon="6.72637">
        <ele>2019.87</ele>
        <time>2018-06-23T15:48:06Z</time>
      </trkpt>
      <trkpt lat="45.25" lon="6.72636">
        <ele>2021.31</ele>
        <time>2018-06-23T15:48:25Z</time>
      </trkpt>
      <trkpt lat="45.24987" lon="6.72641">
        <ele>2020.83</ele>
        <time>2018-06-23T15:48:37Z</time>
      </trkpt>
      <trkpt lat="45.24989" lon="6.7264">
        <ele>2020.83</ele>
        <time>2018-06-23T15:48:38Z</time>
      </trkpt>
      <trkpt lat="45.24988" lon="6.72642">
        <ele>2020.83</ele>
        <time>2018-06-23T15:48:40Z</time>
      </trkpt>
      <trkpt lat="45.24986" lon="6.72643">
        <ele>2020.83</ele>
        <time>2018-06-23T15:48:41Z</time>
      </trkpt>
      <trkpt lat="45.24984" lon="6.72644">
        <ele>2020.83</ele>
        <time>2018-06-23T15:48:42Z</time>
      </trkpt>
      <trkpt lat="45.24975" lon="6.72648">
        <ele>2021.31</ele>
        <time>2018-06-23T15:48:48Z</time>
      </trkpt>
      <trkpt lat="45.24973" lon="6.72648">
        <ele>2021.31</ele>
        <time>2018-06-23T15:48:49Z</time>
      </trkpt>
      <trkpt lat="45.24947" lon="6.7265">
        <ele>2020.35</ele>
        <time>2018-06-23T15:49:06Z</time>
      </trkpt>
      <trkpt lat="45.24928" lon="6.72645">
        <ele>2019.87</ele>
        <time>2018-06-23T15:49:22Z</time>
      </trkpt>
      <trkpt lat="45.24897" lon="6.72649">
        <ele>2019.39</ele>
        <time>2018-06-23T15:49:43Z</time>
      </trkpt>
      <trkpt lat="45.24874" lon="6.72649">
        <ele>2019.39</ele>
        <time>2018-06-23T15:49:58Z</time>
      </trkpt>
      <trkpt lat="45.24847" lon="6.72644">
        <ele>2018.91</ele>
        <time>2018-06-23T15:50:22Z</time>
      </trkpt>
      <trkpt lat="45.24843" lon="6.72643">
        <ele>2018.91</ele>
        <time>2018-06-23T15:50:25Z</time>
      </trkpt>
      <trkpt lat="45.24838" lon="6.72642">
        <ele>2018.91</ele>
        <time>2018-06-23T15:50:30Z</time>
      </trkpt>
      <trkpt lat="45.24825" lon="6.72634">
        <ele>2017.46</ele>
        <time>2018-06-23T15:50:39Z</time>
      </trkpt>
      <trkpt lat="45.24823" lon="6.72634">
        <ele>2019.87</ele>
        <time>2018-06-23T15:50:41Z</time>
      </trkpt>
      <trkpt lat="45.24805" lon="6.7263">
        <ele>2019.87</ele>
        <time>2018-06-23T15:50:58Z</time>
      </trkpt>
      <trkpt lat="45.24788" lon="6.72633">
        <ele>2019.87</ele>
        <time>2018-06-23T15:51:16Z</time>
      </trkpt>
      <trkpt lat="45.24786" lon="6.72636">
        <ele>2018.43</ele>
        <time>2018-06-23T15:51:21Z</time>
      </trkpt>
      <trkpt lat="45.24768" lon="6.7264">
        <ele>2017.94</ele>
        <time>2018-06-23T15:51:44Z</time>
      </trkpt>
      <trkpt lat="45.24743" lon="6.72643">
        <ele>2017.94</ele>
        <time>2018-06-23T15:52:04Z</time>
      </trkpt>
      <trkpt lat="45.24719" lon="6.72644">
        <ele>2017.46</ele>
        <time>2018-06-23T15:52:25Z</time>
      </trkpt>
      <trkpt lat="45.24681" lon="6.72651">
        <ele>2017.46</ele>
        <time>2018-06-23T15:52:51Z</time>
      </trkpt>
      <trkpt lat="45.24655" lon="6.72654">
        <ele>2016.98</ele>
        <time>2018-06-23T15:53:15Z</time>
      </trkpt>
      <trkpt lat="45.24639" lon="6.72655">
        <ele>2016.5</ele>
        <time>2018-06-23T15:53:35Z</time>
      </trkpt>
      <trkpt lat="45.24612" lon="6.72655">
        <ele>2016.02</ele>
        <time>2018-06-23T15:53:54Z</time>
      </trkpt>
      <trkpt lat="45.24611" lon="6.72655">
        <ele>2016.02</ele>
        <time>2018-06-23T15:54:08Z</time>
      </trkpt>
      <trkpt lat="45.24575" lon="6.72646">
        <ele>2015.06</ele>
        <time>2018-06-23T15:54:27Z</time>
      </trkpt>
      <trkpt lat="45.24541" lon="6.72633">
        <ele>2015.06</ele>
        <time>2018-06-23T15:54:46Z</time>
      </trkpt>
      <trkpt lat="45.2452" lon="6.72635">
        <ele>2014.1</ele>
        <time>2018-06-23T15:55:07Z</time>
      </trkpt>
      <trkpt lat="45.2452" lon="6.72659">
        <ele>2015.06</ele>
        <time>2018-06-23T15:55:20Z</time>
      </trkpt>
      <trkpt lat="45.24522" lon="6.72666">
        <ele>2015.06</ele>
        <time>2018-06-23T15:55:24Z</time>
      </trkpt>
      <trkpt lat="45.24531" lon="6.72694">
        <ele>2014.1</ele>
        <time>2018-06-23T15:55:44Z</time>
      </trkpt>
      <trkpt lat="45.24533" lon="6.72709">
        <ele>2013.62</ele>
        <time>2018-06-23T15:55:54Z</time>
      </trkpt>
      <trkpt lat="45.24532" lon="6.72716">
        <ele>2013.62</ele>
        <time>2018-06-23T15:56:02Z</time>
      </trkpt>
      <trkpt lat="45.24532" lon="6.72718">
        <ele>2013.62</ele>
        <time>2018-06-23T15:56:03Z</time>
      </trkpt>
      <trkpt lat="45.24532" lon="6.7272">
        <ele>2013.62</ele>
        <time>2018-06-23T15:56:04Z</time>
      </trkpt>
      <trkpt lat="45.24532" lon="6.72722">
        <ele>2013.62</ele>
        <time>2018-06-23T15:56:05Z</time>
      </trkpt>
      <trkpt lat="45.24532" lon="6.72725">
        <ele>2013.62</ele>
        <time>2018-06-23T15:56:06Z</time>
      </trkpt>
      <trkpt lat="45.24533" lon="6.72727">
        <ele>2013.62</ele>
        <time>2018-06-23T15:56:07Z</time>
      </trkpt>
      <trkpt lat="45.24535" lon="6.72735">
        <ele>2014.58</ele>
        <time>2018-06-23T15:56:11Z</time>
      </trkpt>
      <trkpt lat="45.24536" lon="6.72768">
        <ele>2014.58</ele>
        <time>2018-06-23T15:56:32Z</time>
      </trkpt>
      <trkpt lat="45.24534" lon="6.72807">
        <ele>2013.62</ele>
        <time>2018-06-23T15:56:52Z</time>
      </trkpt>
      <trkpt lat="45.2452" lon="6.72842">
        <ele>2013.62</ele>
        <time>2018-06-23T15:57:11Z</time>
      </trkpt>
      <trkpt lat="45.24519" lon="6.72843">
        <ele>2010.25</ele>
        <time>2018-06-23T15:57:12Z</time>
      </trkpt>
      <trkpt lat="45.24518" lon="6.72844">
        <ele>2015.54</ele>
        <time>2018-06-23T15:57:13Z</time>
      </trkpt>
      <trkpt lat="45.24517" lon="6.72845">
        <ele>2011.22</ele>
        <time>2018-06-23T15:57:14Z</time>
      </trkpt>
      <trkpt lat="45.24508" lon="6.72861">
        <ele>2012.18</ele>
        <time>2018-06-23T15:57:23Z</time>
      </trkpt>
      <trkpt lat="45.245" lon="6.72892">
        <ele>2009.77</ele>
        <time>2018-06-23T15:57:44Z</time>
      </trkpt>
      <trkpt lat="45.24496" lon="6.72923">
        <ele>2008.33</ele>
        <time>2018-06-23T15:58:03Z</time>
      </trkpt>
      <trkpt lat="45.2449" lon="6.7296">
        <ele>2005.45</ele>
        <time>2018-06-23T15:58:26Z</time>
      </trkpt>
      <trkpt lat="45.24487" lon="6.72988">
        <ele>2003.52</ele>
        <time>2018-06-23T15:58:45Z</time>
      </trkpt>
      <trkpt lat="45.24481" lon="6.73019">
        <ele>2000.64</ele>
        <time>2018-06-23T15:59:05Z</time>
      </trkpt>
      <trkpt lat="45.24477" lon="6.73062">
        <ele>1998.24</ele>
        <time>2018-06-23T15:59:27Z</time>
      </trkpt>
      <trkpt lat="45.24468" lon="6.73095">
        <ele>1996.32</ele>
        <time>2018-06-23T15:59:47Z</time>
      </trkpt>
      <trkpt lat="45.24461" lon="6.73097">
        <ele>1994.39</ele>
        <time>2018-06-23T16:00:01Z</time>
      </trkpt>
      <trkpt lat="45.24462" lon="6.73072">
        <ele>1992.95</ele>
        <time>2018-06-23T16:00:18Z</time>
      </trkpt>
      <trkpt lat="45.24463" lon="6.73056">
        <ele>1991.99</ele>
        <time>2018-06-23T16:00:27Z</time>
      </trkpt>
      <trkpt lat="45.24458" lon="6.73016">
        <ele>1990.55</ele>
        <time>2018-06-23T16:00:49Z</time>
      </trkpt>
      <trkpt lat="45.24456" lon="6.72978">
        <ele>1988.14</ele>
        <time>2018-06-23T16:01:10Z</time>
      </trkpt>
      <trkpt lat="45.24455" lon="6.72938">
        <ele>1986.22</ele>
        <time>2018-06-23T16:01:34Z</time>
      </trkpt>
      <trkpt lat="45.2445" lon="6.72923">
        <ele>1984.3</ele>
        <time>2018-06-23T16:01:46Z</time>
      </trkpt>
      <trkpt lat="45.24449" lon="6.72947">
        <ele>1981.41</ele>
        <time>2018-06-23T16:02:06Z</time>
      </trkpt>
      <trkpt lat="45.2445" lon="6.72974">
        <ele>1979.49</ele>
        <time>2018-06-23T16:02:24Z</time>
      </trkpt>
      <trkpt lat="45.24444" lon="6.73006">
        <ele>1976.61</ele>
        <time>2018-06-23T16:02:44Z</time>
      </trkpt>
      <trkpt lat="45.24433" lon="6.73033">
        <ele>1974.2</ele>
        <time>2018-06-23T16:03:03Z</time>
      </trkpt>
      <trkpt lat="45.2442" lon="6.73069">
        <ele>1971.32</ele>
        <time>2018-06-23T16:03:25Z</time>
      </trkpt>
      <trkpt lat="45.24412" lon="6.73106">
        <ele>1968.92</ele>
        <time>2018-06-23T16:03:47Z</time>
      </trkpt>
      <trkpt lat="45.24401" lon="6.73134">
        <ele>1966.51</ele>
        <time>2018-06-23T16:04:07Z</time>
      </trkpt>
      <trkpt lat="45.24391" lon="6.73146">
        <ele>1965.07</ele>
        <time>2018-06-23T16:04:26Z</time>
      </trkpt>
      <trkpt lat="45.24369" lon="6.73157">
        <ele>1962.67</ele>
        <time>2018-06-23T16:04:44Z</time>
      </trkpt>
      <trkpt lat="45.24349" lon="6.73175">
        <ele>1960.27</ele>
        <time>2018-06-23T16:05:04Z</time>
      </trkpt>
      <trkpt lat="45.24338" lon="6.73193">
        <ele>1958.34</ele>
        <time>2018-06-23T16:05:24Z</time>
      </trkpt>
      <trkpt lat="45.24337" lon="6.73194">
        <ele>1958.34</ele>
        <time>2018-06-23T16:05:25Z</time>
      </trkpt>
      <trkpt lat="45.24322" lon="6.73209">
        <ele>1956.42</ele>
        <time>2018-06-23T16:05:41Z</time>
      </trkpt>
      <trkpt lat="45.24298" lon="6.73229">
        <ele>1954.5</ele>
        <time>2018-06-23T16:06:01Z</time>
      </trkpt>
      <trkpt lat="45.24292" lon="6.73247">
        <ele>1953.06</ele>
        <time>2018-06-23T16:06:17Z</time>
      </trkpt>
      <trkpt lat="45.24282" lon="6.73267">
        <ele>1950.17</ele>
        <time>2018-06-23T16:06:31Z</time>
      </trkpt>
      <trkpt lat="45.24266" lon="6.73296">
        <ele>1946.81</ele>
        <time>2018-06-23T16:06:50Z</time>
      </trkpt>
      <trkpt lat="45.24255" lon="6.73304">
        <ele>1946.33</ele>
        <time>2018-06-23T16:06:59Z</time>
      </trkpt>
      <trkpt lat="45.24249" lon="6.73308">
        <ele>1946.33</ele>
        <time>2018-06-23T16:07:04Z</time>
      </trkpt>
      <trkpt lat="45.24248" lon="6.73309">
        <ele>1946.33</ele>
        <time>2018-06-23T16:07:05Z</time>
      </trkpt>
      <trkpt lat="45.24233" lon="6.73322">
        <ele>1943.92</ele>
        <time>2018-06-23T16:07:21Z</time>
      </trkpt>
      <trkpt lat="45.24231" lon="6.73324">
        <ele>1943.92</ele>
        <time>2018-06-23T16:07:23Z</time>
      </trkpt>
      <trkpt lat="45.24219" lon="6.73332">
        <ele>1942</ele>
        <time>2018-06-23T16:07:33Z</time>
      </trkpt>
      <trkpt lat="45.24215" lon="6.73333">
        <ele>1942</ele>
        <time>2018-06-23T16:07:42Z</time>
      </trkpt>
      <trkpt lat="45.24215" lon="6.73334">
        <ele>1942</ele>
        <time>2018-06-23T16:07:43Z</time>
      </trkpt>
      <trkpt lat="45.24212" lon="6.73338">
        <ele>1941.52</ele>
        <time>2018-06-23T16:07:47Z</time>
      </trkpt>
      <trkpt lat="45.24201" lon="6.7335">
        <ele>1939.6</ele>
        <time>2018-06-23T16:08:02Z</time>
      </trkpt>
      <trkpt lat="45.24181" lon="6.73364">
        <ele>1938.16</ele>
        <time>2018-06-23T16:08:16Z</time>
      </trkpt>
      <trkpt lat="45.2417" lon="6.73375">
        <ele>1935.75</ele>
        <time>2018-06-23T16:08:29Z</time>
      </trkpt>
      <trkpt lat="45.24167" lon="6.73377">
        <ele>1935.27</ele>
        <time>2018-06-23T16:08:42Z</time>
      </trkpt>
      <trkpt lat="45.24165" lon="6.73375">
        <ele>1935.27</ele>
        <time>2018-06-23T16:08:54Z</time>
      </trkpt>
      <trkpt lat="45.24168" lon="6.73368">
        <ele>1932.39</ele>
        <time>2018-06-23T16:09:02Z</time>
      </trkpt>
      <trkpt lat="45.24169" lon="6.73362">
        <ele>1931.43</ele>
        <time>2018-06-23T16:09:05Z</time>
      </trkpt>
      <trkpt lat="45.2417" lon="6.73353">
        <ele>1928.54</ele>
        <time>2018-06-23T16:09:13Z</time>
      </trkpt>
      <trkpt lat="45.24171" lon="6.73338">
        <ele>1924.7</ele>
        <time>2018-06-23T16:09:22Z</time>
      </trkpt>
      <trkpt lat="45.24171" lon="6.73333">
        <ele>1923.74</ele>
        <time>2018-06-23T16:09:25Z</time>
      </trkpt>
      <trkpt lat="45.2418" lon="6.73315">
        <ele>1921.33</ele>
        <time>2018-06-23T16:09:40Z</time>
      </trkpt>
      <trkpt lat="45.24184" lon="6.73303">
        <ele>1918.45</ele>
        <time>2018-06-23T16:09:54Z</time>
      </trkpt>
      <trkpt lat="45.2419" lon="6.73287">
        <ele>1915.56</ele>
        <time>2018-06-23T16:10:01Z</time>
      </trkpt>
      <trkpt lat="45.24194" lon="6.73282">
        <ele>1914.12</ele>
        <time>2018-06-23T16:10:14Z</time>
      </trkpt>
      <trkpt lat="45.24194" lon="6.73268">
        <ele>1911.72</ele>
        <time>2018-06-23T16:10:23Z</time>
      </trkpt>
      <trkpt lat="45.24197" lon="6.73256">
        <ele>1910.76</ele>
        <time>2018-06-23T16:10:30Z</time>
      </trkpt>
      <trkpt lat="45.24197" lon="6.73254">
        <ele>1909.8</ele>
        <time>2018-06-23T16:10:32Z</time>
      </trkpt>
      <trkpt lat="45.24198" lon="6.73246">
        <ele>1908.83</ele>
        <time>2018-06-23T16:10:34Z</time>
      </trkpt>
      <trkpt lat="45.24199" lon="6.73234">
        <ele>1907.39</ele>
        <time>2018-06-23T16:10:38Z</time>
      </trkpt>
      <trkpt lat="45.24202" lon="6.73225">
        <ele>1905.95</ele>
        <time>2018-06-23T16:10:44Z</time>
      </trkpt>
      <trkpt lat="45.24204" lon="6.73209">
        <ele>1903.07</ele>
        <time>2018-06-23T16:10:56Z</time>
      </trkpt>
      <trkpt lat="45.24209" lon="6.732">
        <ele>1900.18</ele>
        <time>2018-06-23T16:11:05Z</time>
      </trkpt>
      <trkpt lat="45.2421" lon="6.73196">
        <ele>1898.74</ele>
        <time>2018-06-23T16:11:08Z</time>
      </trkpt>
      <trkpt lat="45.24213" lon="6.73181">
        <ele>1897.3</ele>
        <time>2018-06-23T16:11:16Z</time>
      </trkpt>
      <trkpt lat="45.24214" lon="6.73164">
        <ele>1893.93</ele>
        <time>2018-06-23T16:11:23Z</time>
      </trkpt>
      <trkpt lat="45.24213" lon="6.73152">
        <ele>1892.97</ele>
        <time>2018-06-23T16:11:32Z</time>
      </trkpt>
      <trkpt lat="45.24212" lon="6.73147">
        <ele>1892.01</ele>
        <time>2018-06-23T16:11:42Z</time>
      </trkpt>
      <trkpt lat="45.24207" lon="6.7314">
        <ele>1891.05</ele>
        <time>2018-06-23T16:11:55Z</time>
      </trkpt>
      <trkpt lat="45.2421" lon="6.73138">
        <ele>1891.53</ele>
        <time>2018-06-23T16:12:07Z</time>
      </trkpt>
      <trkpt lat="45.24211" lon="6.73129">
        <ele>1891.53</ele>
        <time>2018-06-23T16:12:32Z</time>
      </trkpt>
      <trkpt lat="45.24209" lon="6.73146">
        <ele>1891.05</ele>
        <time>2018-06-23T16:12:46Z</time>
      </trkpt>
      <trkpt lat="45.24206" lon="6.73147">
        <ele>1889.13</ele>
        <time>2018-06-23T16:12:47Z</time>
      </trkpt>
      <trkpt lat="45.242" lon="6.73149">
        <ele>1890.57</ele>
        <time>2018-06-23T16:12:51Z</time>
      </trkpt>
      <trkpt lat="45.24199" lon="6.7315">
        <ele>1889.13</ele>
        <time>2018-06-23T16:12:52Z</time>
      </trkpt>
      <trkpt lat="45.24195" lon="6.73152">
        <ele>1888.17</ele>
        <time>2018-06-23T16:12:54Z</time>
      </trkpt>
      <trkpt lat="45.24187" lon="6.73154">
        <ele>1888.17</ele>
        <time>2018-06-23T16:12:58Z</time>
      </trkpt>
      <trkpt lat="45.24181" lon="6.73154">
        <ele>1886.72</ele>
        <time>2018-06-23T16:13:01Z</time>
      </trkpt>
      <trkpt lat="45.24174" lon="6.73153">
        <ele>1885.28</ele>
        <time>2018-06-23T16:13:04Z</time>
      </trkpt>
      <trkpt lat="45.24169" lon="6.73154">
        <ele>1883.84</ele>
        <time>2018-06-23T16:13:06Z</time>
      </trkpt>
      <trkpt lat="45.24159" lon="6.73157">
        <ele>1880.48</ele>
        <time>2018-06-23T16:13:10Z</time>
      </trkpt>
      <trkpt lat="45.24157" lon="6.73159">
        <ele>1880.48</ele>
        <time>2018-06-23T16:13:11Z</time>
      </trkpt>
      <trkpt lat="45.24152" lon="6.73161">
        <ele>1876.63</ele>
        <time>2018-06-23T16:13:13Z</time>
      </trkpt>
      <trkpt lat="45.24149" lon="6.73163">
        <ele>1877.59</ele>
        <time>2018-06-23T16:13:14Z</time>
      </trkpt>
      <trkpt lat="45.24136" lon="6.73173">
        <ele>1874.23</ele>
        <time>2018-06-23T16:13:20Z</time>
      </trkpt>
      <trkpt lat="45.24114" lon="6.73171">
        <ele>1870.86</ele>
        <time>2018-06-23T16:13:39Z</time>
      </trkpt>
      <trkpt lat="45.24108" lon="6.73176">
        <ele>1867.5</ele>
        <time>2018-06-23T16:13:50Z</time>
      </trkpt>
      <trkpt lat="45.24107" lon="6.73178">
        <ele>1867.02</ele>
        <time>2018-06-23T16:13:51Z</time>
      </trkpt>
      <trkpt lat="45.24105" lon="6.73179">
        <ele>1868.46</ele>
        <time>2018-06-23T16:13:52Z</time>
      </trkpt>
      <trkpt lat="45.24096" lon="6.73188">
        <ele>1865.58</ele>
        <time>2018-06-23T16:14:00Z</time>
      </trkpt>
      <trkpt lat="45.24092" lon="6.73191">
        <ele>1862.69</ele>
        <time>2018-06-23T16:14:16Z</time>
      </trkpt>
      <trkpt lat="45.24087" lon="6.73195">
        <ele>1860.77</ele>
        <time>2018-06-23T16:14:22Z</time>
      </trkpt>
      <trkpt lat="45.24078" lon="6.73199">
        <ele>1859.33</ele>
        <time>2018-06-23T16:14:29Z</time>
      </trkpt>
      <trkpt lat="45.24075" lon="6.732">
        <ele>1857.89</ele>
        <time>2018-06-23T16:14:32Z</time>
      </trkpt>
      <trkpt lat="45.24066" lon="6.73203">
        <ele>1856.92</ele>
        <time>2018-06-23T16:14:41Z</time>
      </trkpt>
      <trkpt lat="45.24062" lon="6.73205">
        <ele>1855</ele>
        <time>2018-06-23T16:14:46Z</time>
      </trkpt>
      <trkpt lat="45.24055" lon="6.73206">
        <ele>1852.12</ele>
        <time>2018-06-23T16:14:54Z</time>
      </trkpt>
      <trkpt lat="45.2405" lon="6.73207">
        <ele>1850.68</ele>
        <time>2018-06-23T16:14:58Z</time>
      </trkpt>
      <trkpt lat="45.24038" lon="6.73212">
        <ele>1847.31</ele>
        <time>2018-06-23T16:15:11Z</time>
      </trkpt>
      <trkpt lat="45.24031" lon="6.73218">
        <ele>1845.39</ele>
        <time>2018-06-23T16:15:20Z</time>
      </trkpt>
      <trkpt lat="45.24021" lon="6.73227">
        <ele>1843.47</ele>
        <time>2018-06-23T16:15:31Z</time>
      </trkpt>
      <trkpt lat="45.24006" lon="6.73233">
        <ele>1840.1</ele>
        <time>2018-06-23T16:15:53Z</time>
      </trkpt>
      <trkpt lat="45.24005" lon="6.73229">
        <ele>1839.14</ele>
        <time>2018-06-23T16:16:20Z</time>
      </trkpt>
      <trkpt lat="45.23997" lon="6.73229">
        <ele>1836.74</ele>
        <time>2018-06-23T16:16:40Z</time>
      </trkpt>
      <trkpt lat="45.23995" lon="6.73229">
        <ele>1834.33</ele>
        <time>2018-06-23T16:17:08Z</time>
      </trkpt>
      <trkpt lat="45.23985" lon="6.73229">
        <ele>1831.45</ele>
        <time>2018-06-23T16:17:17Z</time>
      </trkpt>
      <trkpt lat="45.23973" lon="6.73233">
        <ele>1829.53</ele>
        <time>2018-06-23T16:17:27Z</time>
      </trkpt>
      <trkpt lat="45.23962" lon="6.73243">
        <ele>1826.64</ele>
        <time>2018-06-23T16:17:43Z</time>
      </trkpt>
      <trkpt lat="45.23958" lon="6.73252">
        <ele>1825.68</ele>
        <time>2018-06-23T16:17:48Z</time>
      </trkpt>
      <trkpt lat="45.23952" lon="6.73257">
        <ele>1823.76</ele>
        <time>2018-06-23T16:17:57Z</time>
      </trkpt>
      <trkpt lat="45.23951" lon="6.73259">
        <ele>1823.28</ele>
        <time>2018-06-23T16:17:58Z</time>
      </trkpt>
      <trkpt lat="45.23941" lon="6.73279">
        <ele>1820.39</ele>
        <time>2018-06-23T16:18:21Z</time>
      </trkpt>
      <trkpt lat="45.2394" lon="6.7328">
        <ele>1821.84</ele>
        <time>2018-06-23T16:18:25Z</time>
      </trkpt>
      <trkpt lat="45.23938" lon="6.73281">
        <ele>1819.91</ele>
        <time>2018-06-23T16:18:27Z</time>
      </trkpt>
      <trkpt lat="45.23934" lon="6.73284">
        <ele>1818.47</ele>
        <time>2018-06-23T16:18:32Z</time>
      </trkpt>
      <trkpt lat="45.23928" lon="6.73289">
        <ele>1818.47</ele>
        <time>2018-06-23T16:18:53Z</time>
      </trkpt>
      <trkpt lat="45.23922" lon="6.73287">
        <ele>1817.03</ele>
        <time>2018-06-23T16:19:16Z</time>
      </trkpt>
      <trkpt lat="45.23921" lon="6.7329">
        <ele>1815.59</ele>
        <time>2018-06-23T16:19:33Z</time>
      </trkpt>
      <trkpt lat="45.23916" lon="6.73291">
        <ele>1813.18</ele>
        <time>2018-06-23T16:19:38Z</time>
      </trkpt>
      <trkpt lat="45.23901" lon="6.73298">
        <ele>1809.82</ele>
        <time>2018-06-23T16:19:53Z</time>
      </trkpt>
      <trkpt lat="45.2389" lon="6.73293">
        <ele>1806.94</ele>
        <time>2018-06-23T16:20:04Z</time>
      </trkpt>
      <trkpt lat="45.23884" lon="6.73287">
        <ele>1804.53</ele>
        <time>2018-06-23T16:20:11Z</time>
      </trkpt>
      <trkpt lat="45.23876" lon="6.73282">
        <ele>1802.13</ele>
        <time>2018-06-23T16:20:22Z</time>
      </trkpt>
      <trkpt lat="45.23867" lon="6.73277">
        <ele>1798.76</ele>
        <time>2018-06-23T16:20:33Z</time>
      </trkpt>
      <trkpt lat="45.23856" lon="6.73268">
        <ele>1795.88</ele>
        <time>2018-06-23T16:20:46Z</time>
      </trkpt>
      <trkpt lat="45.23856" lon="6.73267">
        <ele>1795.88</ele>
        <time>2018-06-23T16:20:47Z</time>
      </trkpt>
      <trkpt lat="45.23848" lon="6.73246">
        <ele>1792.52</ele>
        <time>2018-06-23T16:21:00Z</time>
      </trkpt>
      <trkpt lat="45.23847" lon="6.73245">
        <ele>1792.52</ele>
        <time>2018-06-23T16:21:01Z</time>
      </trkpt>
      <trkpt lat="45.2383" lon="6.7322">
        <ele>1789.15</ele>
        <time>2018-06-23T16:21:22Z</time>
      </trkpt>
      <trkpt lat="45.23827" lon="6.73214">
        <ele>1786.27</ele>
        <time>2018-06-23T16:21:33Z</time>
      </trkpt>
      <trkpt lat="45.23834" lon="6.73235">
        <ele>1782.9</ele>
        <time>2018-06-23T16:21:49Z</time>
      </trkpt>
      <trkpt lat="45.23835" lon="6.73246">
        <ele>1782.42</ele>
        <time>2018-06-23T16:21:56Z</time>
      </trkpt>
      <trkpt lat="45.23835" lon="6.73252">
        <ele>1781.46</ele>
        <time>2018-06-23T16:22:00Z</time>
      </trkpt>
      <trkpt lat="45.23835" lon="6.73259">
        <ele>1779.54</ele>
        <time>2018-06-23T16:22:04Z</time>
      </trkpt>
      <trkpt lat="45.23835" lon="6.73263">
        <ele>1780.02</ele>
        <time>2018-06-23T16:22:06Z</time>
      </trkpt>
      <trkpt lat="45.23834" lon="6.73272">
        <ele>1780.5</ele>
        <time>2018-06-23T16:22:11Z</time>
      </trkpt>
      <trkpt lat="45.23831" lon="6.73283">
        <ele>1777.61</ele>
        <time>2018-06-23T16:22:19Z</time>
      </trkpt>
      <trkpt lat="45.23829" lon="6.7329">
        <ele>1779.06</ele>
        <time>2018-06-23T16:22:25Z</time>
      </trkpt>
      <trkpt lat="45.23828" lon="6.73292">
        <ele>1777.13</ele>
        <time>2018-06-23T16:22:28Z</time>
      </trkpt>
      <trkpt lat="45.23823" lon="6.73303">
        <ele>1777.13</ele>
        <time>2018-06-23T16:22:50Z</time>
      </trkpt>
      <trkpt lat="45.23825" lon="6.73301">
        <ele>1776.17</ele>
        <time>2018-06-23T16:23:16Z</time>
      </trkpt>
      <trkpt lat="45.23818" lon="6.73306">
        <ele>1776.17</ele>
        <time>2018-06-23T16:23:41Z</time>
      </trkpt>
      <trkpt lat="45.2382" lon="6.73295">
        <ele>1775.69</ele>
        <time>2018-06-23T16:24:10Z</time>
      </trkpt>
      <trkpt lat="45.23815" lon="6.73302">
        <ele>1776.17</ele>
        <time>2018-06-23T16:24:46Z</time>
      </trkpt>
      <trkpt lat="45.23812" lon="6.73302">
        <ele>1774.73</ele>
        <time>2018-06-23T16:24:52Z</time>
      </trkpt>
      <trkpt lat="45.23805" lon="6.73302">
        <ele>1772.33</ele>
        <time>2018-06-23T16:25:13Z</time>
      </trkpt>
      <trkpt lat="45.23791" lon="6.73306">
        <ele>1768.48</ele>
        <time>2018-06-23T16:25:32Z</time>
      </trkpt>
      <trkpt lat="45.2379" lon="6.73307">
        <ele>1768.48</ele>
        <time>2018-06-23T16:25:33Z</time>
      </trkpt>
      <trkpt lat="45.23786" lon="6.73308">
        <ele>1767.04</ele>
        <time>2018-06-23T16:25:38Z</time>
      </trkpt>
      <trkpt lat="45.23771" lon="6.73318">
        <ele>1763.2</ele>
        <time>2018-06-23T16:25:54Z</time>
      </trkpt>
      <trkpt lat="45.23764" lon="6.73327">
        <ele>1762.23</ele>
        <time>2018-06-23T16:26:02Z</time>
      </trkpt>
      <trkpt lat="45.23761" lon="6.73329">
        <ele>1760.79</ele>
        <time>2018-06-23T16:26:04Z</time>
      </trkpt>
      <trkpt lat="45.23758" lon="6.73332">
        <ele>1762.71</ele>
        <time>2018-06-23T16:26:07Z</time>
      </trkpt>
      <trkpt lat="45.23757" lon="6.73335">
        <ele>1760.79</ele>
        <time>2018-06-23T16:26:09Z</time>
      </trkpt>
      <trkpt lat="45.23759" lon="6.73351">
        <ele>1758.87</ele>
        <time>2018-06-23T16:26:20Z</time>
      </trkpt>
      <trkpt lat="45.23759" lon="6.73362">
        <ele>1758.87</ele>
        <time>2018-06-23T16:26:27Z</time>
      </trkpt>
      <trkpt lat="45.23758" lon="6.73364">
        <ele>1758.39</ele>
        <time>2018-06-23T16:26:28Z</time>
      </trkpt>
      <trkpt lat="45.23758" lon="6.7338">
        <ele>1757.91</ele>
        <time>2018-06-23T16:26:37Z</time>
      </trkpt>
      <trkpt lat="45.23759" lon="6.73383">
        <ele>1756.47</ele>
        <time>2018-06-23T16:26:39Z</time>
      </trkpt>
      <trkpt lat="45.23764" lon="6.73406">
        <ele>1753.58</ele>
        <time>2018-06-23T16:26:57Z</time>
      </trkpt>
      <trkpt lat="45.23766" lon="6.73409">
        <ele>1755.02</ele>
        <time>2018-06-23T16:26:59Z</time>
      </trkpt>
      <trkpt lat="45.23771" lon="6.73411">
        <ele>1753.58</ele>
        <time>2018-06-23T16:27:03Z</time>
      </trkpt>
      <trkpt lat="45.2378" lon="6.7342">
        <ele>1751.66</ele>
        <time>2018-06-23T16:27:09Z</time>
      </trkpt>
      <trkpt lat="45.23783" lon="6.73426">
        <ele>1752.62</ele>
        <time>2018-06-23T16:27:13Z</time>
      </trkpt>
      <trkpt lat="45.23787" lon="6.73431">
        <ele>1751.18</ele>
        <time>2018-06-23T16:27:16Z</time>
      </trkpt>
      <trkpt lat="45.23777" lon="6.7344">
        <ele>1750.22</ele>
        <time>2018-06-23T16:27:29Z</time>
      </trkpt>
      <trkpt lat="45.23772" lon="6.73449">
        <ele>1749.26</ele>
        <time>2018-06-23T16:27:34Z</time>
      </trkpt>
      <trkpt lat="45.2377" lon="6.73455">
        <ele>1747.81</ele>
        <time>2018-06-23T16:27:36Z</time>
      </trkpt>
      <trkpt lat="45.23769" lon="6.73458">
        <ele>1743.97</ele>
        <time>2018-06-23T16:27:37Z</time>
      </trkpt>
      <trkpt lat="45.23753" lon="6.73483">
        <ele>1743.01</ele>
        <time>2018-06-23T16:27:47Z</time>
      </trkpt>
      <trkpt lat="45.23746" lon="6.73485">
        <ele>1742.05</ele>
        <time>2018-06-23T16:27:52Z</time>
      </trkpt>
      <trkpt lat="45.23744" lon="6.73485">
        <ele>1743.49</ele>
        <time>2018-06-23T16:27:55Z</time>
      </trkpt>
      <trkpt lat="45.23741" lon="6.73485">
        <ele>1742.05</ele>
        <time>2018-06-23T16:27:58Z</time>
      </trkpt>
      <trkpt lat="45.23739" lon="6.73506">
        <ele>1741.57</ele>
        <time>2018-06-23T16:28:18Z</time>
      </trkpt>
      <trkpt lat="45.2374" lon="6.73509">
        <ele>1740.12</ele>
        <time>2018-06-23T16:28:21Z</time>
      </trkpt>
      <trkpt lat="45.23744" lon="6.73523">
        <ele>1737.24</ele>
        <time>2018-06-23T16:28:36Z</time>
      </trkpt>
      <trkpt lat="45.23747" lon="6.73529">
        <ele>1737.24</ele>
        <time>2018-06-23T16:28:39Z</time>
      </trkpt>
      <trkpt lat="45.2375" lon="6.73537">
        <ele>1736.28</ele>
        <time>2018-06-23T16:28:45Z</time>
      </trkpt>
      <trkpt lat="45.2375" lon="6.73551">
        <ele>1734.36</ele>
        <time>2018-06-23T16:28:56Z</time>
      </trkpt>
      <trkpt lat="45.23745" lon="6.73554">
        <ele>1733.88</ele>
        <time>2018-06-23T16:29:00Z</time>
      </trkpt>
      <trkpt lat="45.23743" lon="6.73554">
        <ele>1733.88</ele>
        <time>2018-06-23T16:29:01Z</time>
      </trkpt>
      <trkpt lat="45.23741" lon="6.73554">
        <ele>1733.88</ele>
        <time>2018-06-23T16:29:02Z</time>
      </trkpt>
      <trkpt lat="45.23733" lon="6.73551">
        <ele>1731.95</ele>
        <time>2018-06-23T16:29:08Z</time>
      </trkpt>
      <trkpt lat="45.23724" lon="6.73543">
        <ele>1733.39</ele>
        <time>2018-06-23T16:29:22Z</time>
      </trkpt>
      <trkpt lat="45.23722" lon="6.73544">
        <ele>1730.99</ele>
        <time>2018-06-23T16:29:24Z</time>
      </trkpt>
      <trkpt lat="45.23717" lon="6.73543">
        <ele>1728.59</ele>
        <time>2018-06-23T16:29:31Z</time>
      </trkpt>
      <trkpt lat="45.23716" lon="6.73541">
        <ele>1725.7</ele>
        <time>2018-06-23T16:29:32Z</time>
      </trkpt>
      <trkpt lat="45.23716" lon="6.73539">
        <ele>1727.63</ele>
        <time>2018-06-23T16:29:33Z</time>
      </trkpt>
      <trkpt lat="45.23715" lon="6.73531">
        <ele>1728.59</ele>
        <time>2018-06-23T16:29:35Z</time>
      </trkpt>
      <trkpt lat="45.23711" lon="6.73528">
        <ele>1728.11</ele>
        <time>2018-06-23T16:29:43Z</time>
      </trkpt>
      <trkpt lat="45.23709" lon="6.73529">
        <ele>1724.74</ele>
        <time>2018-06-23T16:29:44Z</time>
      </trkpt>
      <trkpt lat="45.23693" lon="6.73554">
        <ele>1719.46</ele>
        <time>2018-06-23T16:29:52Z</time>
      </trkpt>
      <trkpt lat="45.2369" lon="6.73557">
        <ele>1721.38</ele>
        <time>2018-06-23T16:29:53Z</time>
      </trkpt>
      <trkpt lat="45.23679" lon="6.73562">
        <ele>1718.49</ele>
        <time>2018-06-23T16:29:57Z</time>
      </trkpt>
      <trkpt lat="45.23654" lon="6.73578">
        <ele>1717.05</ele>
        <time>2018-06-23T16:30:14Z</time>
      </trkpt>
      <trkpt lat="45.23644" lon="6.7358">
        <ele>1716.09</ele>
        <time>2018-06-23T16:30:21Z</time>
      </trkpt>
      <trkpt lat="45.23627" lon="6.73589">
        <ele>1712.73</ele>
        <time>2018-06-23T16:30:34Z</time>
      </trkpt>
      <trkpt lat="45.2362" lon="6.73609">
        <ele>1711.28</ele>
        <time>2018-06-23T16:30:49Z</time>
      </trkpt>
      <trkpt lat="45.23621" lon="6.73616">
        <ele>1710.32</ele>
        <time>2018-06-23T16:30:52Z</time>
      </trkpt>
      <trkpt lat="45.23622" lon="6.73618">
        <ele>1709.84</ele>
        <time>2018-06-23T16:30:53Z</time>
      </trkpt>
      <trkpt lat="45.23631" lon="6.73629">
        <ele>1708.4</ele>
        <time>2018-06-23T16:31:04Z</time>
      </trkpt>
      <trkpt lat="45.23646" lon="6.73646">
        <ele>1705.04</ele>
        <time>2018-06-23T16:31:18Z</time>
      </trkpt>
      <trkpt lat="45.23648" lon="6.73663">
        <ele>1703.59</ele>
        <time>2018-06-23T16:31:40Z</time>
      </trkpt>
      <trkpt lat="45.23649" lon="6.73668">
        <ele>1703.11</ele>
        <time>2018-06-23T16:31:42Z</time>
      </trkpt>
      <trkpt lat="45.23649" lon="6.73671">
        <ele>1703.11</ele>
        <time>2018-06-23T16:31:43Z</time>
      </trkpt>
      <trkpt lat="45.23644" lon="6.73698">
        <ele>1699.75</ele>
        <time>2018-06-23T16:31:58Z</time>
      </trkpt>
      <trkpt lat="45.23643" lon="6.73697">
        <ele>1699.75</ele>
        <time>2018-06-23T16:31:59Z</time>
      </trkpt>
      <trkpt lat="45.23621" lon="6.73708">
        <ele>1696.86</ele>
        <time>2018-06-23T16:32:21Z</time>
      </trkpt>
      <trkpt lat="45.23613" lon="6.73722">
        <ele>1693.5</ele>
        <time>2018-06-23T16:32:32Z</time>
      </trkpt>
      <trkpt lat="45.23613" lon="6.73723">
        <ele>1693.5</ele>
        <time>2018-06-23T16:32:33Z</time>
      </trkpt>
      <trkpt lat="45.23612" lon="6.73726">
        <ele>1695.9</ele>
        <time>2018-06-23T16:32:36Z</time>
      </trkpt>
      <trkpt lat="45.23611" lon="6.73728">
        <ele>1693.02</ele>
        <time>2018-06-23T16:32:38Z</time>
      </trkpt>
      <trkpt lat="45.23608" lon="6.73746">
        <ele>1692.06</ele>
        <time>2018-06-23T16:32:51Z</time>
      </trkpt>
      <trkpt lat="45.23605" lon="6.73774">
        <ele>1688.69</ele>
        <time>2018-06-23T16:33:08Z</time>
      </trkpt>
      <trkpt lat="45.23604" lon="6.73777">
        <ele>1688.21</ele>
        <time>2018-06-23T16:33:28Z</time>
      </trkpt>
      <trkpt lat="45.23613" lon="6.738">
        <ele>1684.85</ele>
        <time>2018-06-23T16:33:48Z</time>
      </trkpt>
      <trkpt lat="45.2361" lon="6.73824">
        <ele>1682.93</ele>
        <time>2018-06-23T16:34:07Z</time>
      </trkpt>
      <trkpt lat="45.23615" lon="6.73836">
        <ele>1682.44</ele>
        <time>2018-06-23T16:34:16Z</time>
      </trkpt>
      <trkpt lat="45.23617" lon="6.73842">
        <ele>1682.44</ele>
        <time>2018-06-23T16:34:21Z</time>
      </trkpt>
      <trkpt lat="45.23617" lon="6.73842">
        <ele>1682.44</ele>
        <time>2018-06-23T16:34:22Z</time>
      </trkpt>
      <trkpt lat="45.23618" lon="6.73843">
        <ele>1682.44</ele>
        <time>2018-06-23T16:34:23Z</time>
      </trkpt>
      <trkpt lat="45.23627" lon="6.73862">
        <ele>1680.52</ele>
        <time>2018-06-23T16:34:38Z</time>
      </trkpt>
      <trkpt lat="45.23628" lon="6.73869">
        <ele>1678.6</ele>
        <time>2018-06-23T16:34:53Z</time>
      </trkpt>
      <trkpt lat="45.23629" lon="6.73873">
        <ele>1678.12</ele>
        <time>2018-06-23T16:34:56Z</time>
      </trkpt>
      <trkpt lat="45.23632" lon="6.73891">
        <ele>1676.68</ele>
        <time>2018-06-23T16:35:11Z</time>
      </trkpt>
      <trkpt lat="45.2363" lon="6.73898">
        <ele>1675.72</ele>
        <time>2018-06-23T16:35:17Z</time>
      </trkpt>
      <trkpt lat="45.23625" lon="6.73919">
        <ele>1674.75</ele>
        <time>2018-06-23T16:35:31Z</time>
      </trkpt>
      <trkpt lat="45.23624" lon="6.73922">
        <ele>1674.75</ele>
        <time>2018-06-23T16:35:33Z</time>
      </trkpt>
      <trkpt lat="45.23624" lon="6.73924">
        <ele>1674.75</ele>
        <time>2018-06-23T16:35:34Z</time>
      </trkpt>
      <trkpt lat="45.23624" lon="6.73927">
        <ele>1674.27</ele>
        <time>2018-06-23T16:35:35Z</time>
      </trkpt>
      <trkpt lat="45.23625" lon="6.73929">
        <ele>1674.75</ele>
        <time>2018-06-23T16:35:36Z</time>
      </trkpt>
      <trkpt lat="45.23625" lon="6.73931">
        <ele>1674.27</ele>
        <time>2018-06-23T16:35:37Z</time>
      </trkpt>
      <trkpt lat="45.2363" lon="6.7395">
        <ele>1673.31</ele>
        <time>2018-06-23T16:35:49Z</time>
      </trkpt>
      <trkpt lat="45.23634" lon="6.73965">
        <ele>1672.35</ele>
        <time>2018-06-23T16:36:01Z</time>
      </trkpt>
      <trkpt lat="45.23635" lon="6.74003">
        <ele>1670.43</ele>
        <time>2018-06-23T16:36:25Z</time>
      </trkpt>
      <trkpt lat="45.23635" lon="6.74009">
        <ele>1670.43</ele>
        <time>2018-06-23T16:36:28Z</time>
      </trkpt>
      <trkpt lat="45.23635" lon="6.7401">
        <ele>1670.43</ele>
        <time>2018-06-23T16:36:29Z</time>
      </trkpt>
      <trkpt lat="45.23636" lon="6.74036">
        <ele>1668.02</ele>
        <time>2018-06-23T16:36:47Z</time>
      </trkpt>
      <trkpt lat="45.23627" lon="6.74065">
        <ele>1667.06</ele>
        <time>2018-06-23T16:37:02Z</time>
      </trkpt>
      <trkpt lat="45.23624" lon="6.74075">
        <ele>1665.62</ele>
        <time>2018-06-23T16:37:13Z</time>
      </trkpt>
      <trkpt lat="45.23625" lon="6.74078">
        <ele>1665.62</ele>
        <time>2018-06-23T16:37:14Z</time>
      </trkpt>
      <trkpt lat="45.23633" lon="6.74101">
        <ele>1663.22</ele>
        <time>2018-06-23T16:37:31Z</time>
      </trkpt>
      <trkpt lat="45.23636" lon="6.74125">
        <ele>1661.3</ele>
        <time>2018-06-23T16:37:43Z</time>
      </trkpt>
      <trkpt lat="45.23635" lon="6.74126">
        <ele>1661.3</ele>
        <time>2018-06-23T16:37:44Z</time>
      </trkpt>
      <trkpt lat="45.23626" lon="6.74123">
        <ele>1659.85</ele>
        <time>2018-06-23T16:37:57Z</time>
      </trkpt>
      <trkpt lat="45.2362" lon="6.74103">
        <ele>1657.93</ele>
        <time>2018-06-23T16:38:09Z</time>
      </trkpt>
      <trkpt lat="45.23618" lon="6.74101">
        <ele>1657.45</ele>
        <time>2018-06-23T16:38:10Z</time>
      </trkpt>
      <trkpt lat="45.236" lon="6.74081">
        <ele>1655.53</ele>
        <time>2018-06-23T16:38:28Z</time>
      </trkpt>
      <trkpt lat="45.23594" lon="6.74054">
        <ele>1653.12</ele>
        <time>2018-06-23T16:38:48Z</time>
      </trkpt>
      <trkpt lat="45.2359" lon="6.74035">
        <ele>1652.16</ele>
        <time>2018-06-23T16:38:58Z</time>
      </trkpt>
      <trkpt lat="45.23589" lon="6.74032">
        <ele>1652.16</ele>
        <time>2018-06-23T16:38:59Z</time>
      </trkpt>
      <trkpt lat="45.23588" lon="6.7403">
        <ele>1652.16</ele>
        <time>2018-06-23T16:39:00Z</time>
      </trkpt>
      <trkpt lat="45.23586" lon="6.74017">
        <ele>1650.24</ele>
        <time>2018-06-23T16:39:05Z</time>
      </trkpt>
      <trkpt lat="45.23587" lon="6.74015">
        <ele>1650.24</ele>
        <time>2018-06-23T16:39:06Z</time>
      </trkpt>
      <trkpt lat="45.23591" lon="6.73987">
        <ele>1647.36</ele>
        <time>2018-06-23T16:39:19Z</time>
      </trkpt>
      <trkpt lat="45.23587" lon="6.73957">
        <ele>1645.91</ele>
        <time>2018-06-23T16:39:35Z</time>
      </trkpt>
      <trkpt lat="45.23583" lon="6.73954">
        <ele>1644.95</ele>
        <time>2018-06-23T16:39:45Z</time>
      </trkpt>
      <trkpt lat="45.23582" lon="6.73953">
        <ele>1644.95</ele>
        <time>2018-06-23T16:39:46Z</time>
      </trkpt>
      <trkpt lat="45.23574" lon="6.73942">
        <ele>1644.47</ele>
        <time>2018-06-23T16:39:58Z</time>
      </trkpt>
      <trkpt lat="45.23565" lon="6.73918">
        <ele>1642.55</ele>
        <time>2018-06-23T16:40:12Z</time>
      </trkpt>
      <trkpt lat="45.23564" lon="6.73919">
        <ele>1641.59</ele>
        <time>2018-06-23T16:40:16Z</time>
      </trkpt>
      <trkpt lat="45.23563" lon="6.73917">
        <ele>1641.59</ele>
        <time>2018-06-23T16:40:18Z</time>
      </trkpt>
      <trkpt lat="45.23563" lon="6.73915">
        <ele>1641.59</ele>
        <time>2018-06-23T16:40:19Z</time>
      </trkpt>
      <trkpt lat="45.23559" lon="6.73901">
        <ele>1640.63</ele>
        <time>2018-06-23T16:40:34Z</time>
      </trkpt>
      <trkpt lat="45.23543" lon="6.73883">
        <ele>1639.67</ele>
        <time>2018-06-23T16:40:47Z</time>
      </trkpt>
      <trkpt lat="45.23538" lon="6.73892">
        <ele>1638.22</ele>
        <time>2018-06-23T16:40:58Z</time>
      </trkpt>
      <trkpt lat="45.23537" lon="6.73893">
        <ele>1637.74</ele>
        <time>2018-06-23T16:40:59Z</time>
      </trkpt>
      <trkpt lat="45.23536" lon="6.73896">
        <ele>1637.74</ele>
        <time>2018-06-23T16:41:01Z</time>
      </trkpt>
      <trkpt lat="45.23538" lon="6.73908">
        <ele>1636.78</ele>
        <time>2018-06-23T16:41:13Z</time>
      </trkpt>
      <trkpt lat="45.23547" lon="6.73931">
        <ele>1634.38</ele>
        <time>2018-06-23T16:41:30Z</time>
      </trkpt>
      <trkpt lat="45.23546" lon="6.7393">
        <ele>1633.9</ele>
        <time>2018-06-23T16:41:47Z</time>
      </trkpt>
      <trkpt lat="45.23551" lon="6.73941">
        <ele>1633.42</ele>
        <time>2018-06-23T16:42:00Z</time>
      </trkpt>
      <trkpt lat="45.23553" lon="6.73952">
        <ele>1631.98</ele>
        <time>2018-06-23T16:42:13Z</time>
      </trkpt>
      <trkpt lat="45.23553" lon="6.73955">
        <ele>1631.98</ele>
        <time>2018-06-23T16:42:14Z</time>
      </trkpt>
      <trkpt lat="45.23553" lon="6.73957">
        <ele>1631.98</ele>
        <time>2018-06-23T16:42:15Z</time>
      </trkpt>
      <trkpt lat="45.23553" lon="6.73959">
        <ele>1631.98</ele>
        <time>2018-06-23T16:42:16Z</time>
      </trkpt>
      <trkpt lat="45.23553" lon="6.73968">
        <ele>1631.98</ele>
        <time>2018-06-23T16:42:23Z</time>
      </trkpt>
      <trkpt lat="45.23553" lon="6.7397">
        <ele>1631.98</ele>
        <time>2018-06-23T16:42:24Z</time>
      </trkpt>
      <trkpt lat="45.23552" lon="6.73972">
        <ele>1631.98</ele>
        <time>2018-06-23T16:42:25Z</time>
      </trkpt>
      <trkpt lat="45.23551" lon="6.73974">
        <ele>1631.98</ele>
        <time>2018-06-23T16:42:26Z</time>
      </trkpt>
      <trkpt lat="45.23551" lon="6.73976">
        <ele>1631.98</ele>
        <time>2018-06-23T16:42:27Z</time>
      </trkpt>
      <trkpt lat="45.2355" lon="6.73978">
        <ele>1631.49</ele>
        <time>2018-06-23T16:42:28Z</time>
      </trkpt>
      <trkpt lat="45.23546" lon="6.74">
        <ele>1630.05</ele>
        <time>2018-06-23T16:42:46Z</time>
      </trkpt>
      <trkpt lat="45.23538" lon="6.74021">
        <ele>1628.13</ele>
        <time>2018-06-23T16:43:02Z</time>
      </trkpt>
      <trkpt lat="45.23539" lon="6.74028">
        <ele>1628.13</ele>
        <time>2018-06-23T16:43:15Z</time>
      </trkpt>
      <trkpt lat="45.23539" lon="6.74029">
        <ele>1627.65</ele>
        <time>2018-06-23T16:43:16Z</time>
      </trkpt>
      <trkpt lat="45.2354" lon="6.74047">
        <ele>1626.21</ele>
        <time>2018-06-23T16:43:31Z</time>
      </trkpt>
      <trkpt lat="45.23542" lon="6.7407">
        <ele>1624.28</ele>
        <time>2018-06-23T16:43:46Z</time>
      </trkpt>
      <trkpt lat="45.23547" lon="6.741">
        <ele>1621.88</ele>
        <time>2018-06-23T16:44:01Z</time>
      </trkpt>
      <trkpt lat="45.23547" lon="6.74127">
        <ele>1619.48</ele>
        <time>2018-06-23T16:44:20Z</time>
      </trkpt>
      <trkpt lat="45.23543" lon="6.74157">
        <ele>1616.59</ele>
        <time>2018-06-23T16:44:38Z</time>
      </trkpt>
      <trkpt lat="45.23544" lon="6.74183">
        <ele>1615.63</ele>
        <time>2018-06-23T16:44:54Z</time>
      </trkpt>
      <trkpt lat="45.23543" lon="6.74218">
        <ele>1613.23</ele>
        <time>2018-06-23T16:45:15Z</time>
      </trkpt>
      <trkpt lat="45.23544" lon="6.74257">
        <ele>1610.35</ele>
        <time>2018-06-23T16:45:37Z</time>
      </trkpt>
      <trkpt lat="45.23543" lon="6.74299">
        <ele>1606.98</ele>
        <time>2018-06-23T16:46:02Z</time>
      </trkpt>
      <trkpt lat="45.23543" lon="6.74341">
        <ele>1603.62</ele>
        <time>2018-06-23T16:46:29Z</time>
      </trkpt>
      <trkpt lat="45.2354" lon="6.74378">
        <ele>1600.73</ele>
        <time>2018-06-23T16:46:49Z</time>
      </trkpt>
      <trkpt lat="45.23534" lon="6.74407">
        <ele>1598.33</ele>
        <time>2018-06-23T16:47:07Z</time>
      </trkpt>
      <trkpt lat="45.23522" lon="6.74448">
        <ele>1594.96</ele>
        <time>2018-06-23T16:47:35Z</time>
      </trkpt>
      <trkpt lat="45.23515" lon="6.74477">
        <ele>1592.08</ele>
        <time>2018-06-23T16:47:53Z</time>
      </trkpt>
      <trkpt lat="45.23513" lon="6.74484">
        <ele>1592.08</ele>
        <time>2018-06-23T16:48:05Z</time>
      </trkpt>
      <trkpt lat="45.23507" lon="6.74509">
        <ele>1590.16</ele>
        <time>2018-06-23T16:48:20Z</time>
      </trkpt>
      <trkpt lat="45.23502" lon="6.74512">
        <ele>1589.2</ele>
        <time>2018-06-23T16:48:38Z</time>
      </trkpt>
      <trkpt lat="45.23476" lon="6.74523">
        <ele>1587.27</ele>
        <time>2018-06-23T16:48:58Z</time>
      </trkpt>
      <trkpt lat="45.23459" lon="6.74488">
        <ele>1583.91</ele>
        <time>2018-06-23T16:49:19Z</time>
      </trkpt>
      <trkpt lat="45.2345" lon="6.74454">
        <ele>1581.51</ele>
        <time>2018-06-23T16:49:38Z</time>
      </trkpt>
      <trkpt lat="45.23438" lon="6.74418">
        <ele>1578.62</ele>
        <time>2018-06-23T16:49:56Z</time>
      </trkpt>
      <trkpt lat="45.23427" lon="6.74395">
        <ele>1577.18</ele>
        <time>2018-06-23T16:50:11Z</time>
      </trkpt>
      <trkpt lat="45.23416" lon="6.74371">
        <ele>1573.82</ele>
        <time>2018-06-23T16:50:31Z</time>
      </trkpt>
      <trkpt lat="45.23415" lon="6.74369">
        <ele>1575.26</ele>
        <time>2018-06-23T16:50:34Z</time>
      </trkpt>
      <trkpt lat="45.23413" lon="6.74367">
        <ele>1574.3</ele>
        <time>2018-06-23T16:50:36Z</time>
      </trkpt>
      <trkpt lat="45.23399" lon="6.74342">
        <ele>1571.89</ele>
        <time>2018-06-23T16:50:52Z</time>
      </trkpt>
      <trkpt lat="45.23396" lon="6.74337">
        <ele>1570.93</ele>
        <time>2018-06-23T16:50:55Z</time>
      </trkpt>
      <trkpt lat="45.23381" lon="6.74309">
        <ele>1569.01</ele>
        <time>2018-06-23T16:51:14Z</time>
      </trkpt>
      <trkpt lat="45.23381" lon="6.74307">
        <ele>1568.05</ele>
        <time>2018-06-23T16:51:16Z</time>
      </trkpt>
      <trkpt lat="45.23363" lon="6.74282">
        <ele>1565.16</ele>
        <time>2018-06-23T16:51:36Z</time>
      </trkpt>
      <trkpt lat="45.23345" lon="6.74252">
        <ele>1562.28</ele>
        <time>2018-06-23T16:51:57Z</time>
      </trkpt>
      <trkpt lat="45.23322" lon="6.7422">
        <ele>1559.4</ele>
        <time>2018-06-23T16:52:19Z</time>
      </trkpt>
      <trkpt lat="45.23303" lon="6.74191">
        <ele>1556.03</ele>
        <time>2018-06-23T16:52:39Z</time>
      </trkpt>
      <trkpt lat="45.23303" lon="6.7419">
        <ele>1556.03</ele>
        <time>2018-06-23T16:52:40Z</time>
      </trkpt>
      <trkpt lat="45.2328" lon="6.74167">
        <ele>1552.67</ele>
        <time>2018-06-23T16:53:05Z</time>
      </trkpt>
      <trkpt lat="45.23267" lon="6.74155">
        <ele>1551.71</ele>
        <time>2018-06-23T16:53:23Z</time>
      </trkpt>
      <trkpt lat="45.2326" lon="6.74142">
        <ele>1550.74</ele>
        <time>2018-06-23T16:53:36Z</time>
      </trkpt>
      <trkpt lat="45.23259" lon="6.74136">
        <ele>1550.26</ele>
        <time>2018-06-23T16:53:42Z</time>
      </trkpt>
      <trkpt lat="45.23258" lon="6.74136">
        <ele>1549.78</ele>
        <time>2018-06-23T16:53:47Z</time>
      </trkpt>
      <trkpt lat="45.23257" lon="6.74136">
        <ele>1549.78</ele>
        <time>2018-06-23T16:53:48Z</time>
      </trkpt>
      <trkpt lat="45.23256" lon="6.74136">
        <ele>1549.78</ele>
        <time>2018-06-23T16:53:49Z</time>
      </trkpt>
      <trkpt lat="45.23246" lon="6.7413">
        <ele>1549.3</ele>
        <time>2018-06-23T16:54:06Z</time>
      </trkpt>
      <trkpt lat="45.23239" lon="6.74127">
        <ele>1547.86</ele>
        <time>2018-06-23T16:54:14Z</time>
      </trkpt>
      <trkpt lat="45.23237" lon="6.74126">
        <ele>1547.86</ele>
        <time>2018-06-23T16:54:15Z</time>
      </trkpt>
      <trkpt lat="45.23233" lon="6.74123">
        <ele>1547.38</ele>
        <time>2018-06-23T16:54:20Z</time>
      </trkpt>
      <trkpt lat="45.23232" lon="6.74123">
        <ele>1547.38</ele>
        <time>2018-06-23T16:54:21Z</time>
      </trkpt>
      <trkpt lat="45.23231" lon="6.74119">
        <ele>1548.82</ele>
        <time>2018-06-23T16:54:33Z</time>
      </trkpt>
      <trkpt lat="45.23228" lon="6.74116">
        <ele>1547.38</ele>
        <time>2018-06-23T16:54:38Z</time>
      </trkpt>
      <trkpt lat="45.23225" lon="6.74115">
        <ele>1547.86</ele>
        <time>2018-06-23T16:54:41Z</time>
      </trkpt>
      <trkpt lat="45.23224" lon="6.74114">
        <ele>1547.86</ele>
        <time>2018-06-23T16:54:42Z</time>
      </trkpt>
      <trkpt lat="45.23223" lon="6.74113">
        <ele>1546.42</ele>
        <time>2018-06-23T16:54:44Z</time>
      </trkpt>
      <trkpt lat="45.23223" lon="6.74113">
        <ele>1546.42</ele>
        <time>2018-06-23T16:54:45Z</time>
      </trkpt>
      <trkpt lat="45.23221" lon="6.74112">
        <ele>1546.42</ele>
        <time>2018-06-23T16:54:46Z</time>
      </trkpt>
      <trkpt lat="45.2322" lon="6.74112">
        <ele>1545.94</ele>
        <time>2018-06-23T16:54:47Z</time>
      </trkpt>
      <trkpt lat="45.23218" lon="6.74112">
        <ele>1545.94</ele>
        <time>2018-06-23T16:54:48Z</time>
      </trkpt>
      <trkpt lat="45.23217" lon="6.74112">
        <ele>1544.5</ele>
        <time>2018-06-23T16:54:49Z</time>
      </trkpt>
      <trkpt lat="45.23216" lon="6.74112">
        <ele>1544.5</ele>
        <time>2018-06-23T16:54:50Z</time>
      </trkpt>
      <trkpt lat="45.23205" lon="6.74111">
        <ele>1544.5</ele>
        <time>2018-06-23T16:55:02Z</time>
      </trkpt>
      <trkpt lat="45.23199" lon="6.74116">
        <ele>1544.5</ele>
        <time>2018-06-23T16:55:14Z</time>
      </trkpt>
      <trkpt lat="45.23195" lon="6.74113">
        <ele>1543.53</ele>
        <time>2018-06-23T16:55:26Z</time>
      </trkpt>
      <trkpt lat="45.2319" lon="6.74108">
        <ele>1543.05</ele>
        <time>2018-06-23T16:55:40Z</time>
      </trkpt>
      <trkpt lat="45.23189" lon="6.74106">
        <ele>1543.05</ele>
        <time>2018-06-23T16:55:43Z</time>
      </trkpt>
      <trkpt lat="45.23183" lon="6.74098">
        <ele>1543.05</ele>
        <time>2018-06-23T16:55:54Z</time>
      </trkpt>
      <trkpt lat="45.23183" lon="6.74098">
        <ele>1543.05</ele>
        <time>2018-06-23T16:55:55Z</time>
      </trkpt>
      <trkpt lat="45.22869" lon="6.74124">
        <ele>1504.6</ele>
        <time>2018-06-23T17:07:27Z</time>
      </trkpt>
      <trkpt lat="45.22868" lon="6.74125">
        <ele>1504.6</ele>
        <time>2018-06-23T17:07:28Z</time>
      </trkpt>
      <trkpt lat="45.22868" lon="6.7413">
        <ele>1501.24</ele>
        <time>2018-06-23T17:07:51Z</time>
      </trkpt>
      <trkpt lat="45.22869" lon="6.74131">
        <ele>1499.31</ele>
        <time>2018-06-23T17:08:13Z</time>
      </trkpt>
      <trkpt lat="45.2287" lon="6.74134">
        <ele>1499.31</ele>
        <time>2018-06-23T17:08:36Z</time>
      </trkpt>
      <trkpt lat="45.22869" lon="6.74135">
        <ele>1499.31</ele>
        <time>2018-06-23T17:09:02Z</time>
      </trkpt>
      <trkpt lat="45.22869" lon="6.74135">
        <ele>1499.31</ele>
        <time>2018-06-23T17:09:35Z</time>
      </trkpt>
      <trkpt lat="45.22869" lon="6.74135">
        <ele>1499.31</ele>
        <time>2018-06-23T17:10:04Z</time>
      </trkpt>
      <trkpt lat="45.22873" lon="6.74119">
        <ele>1499.31</ele>
        <time>2018-06-23T17:10:33Z</time>
      </trkpt>
      <trkpt lat="45.22869" lon="6.7414">
        <ele>1499.31</ele>
        <time>2018-06-23T17:11:01Z</time>
      </trkpt>
      <trkpt lat="45.22869" lon="6.74141">
        <ele>1499.31</ele>
        <time>2018-06-23T17:11:31Z</time>
      </trkpt>
      <trkpt lat="45.22868" lon="6.74141">
        <ele>1498.83</ele>
        <time>2018-06-23T17:11:49Z</time>
      </trkpt>
      <trkpt lat="45.22869" lon="6.74143">
        <ele>1499.31</ele>
        <time>2018-06-23T17:12:15Z</time>
      </trkpt>
      <trkpt lat="45.22869" lon="6.74145">
        <ele>1499.31</ele>
        <time>2018-06-23T17:12:49Z</time>
      </trkpt>
      <trkpt lat="45.22869" lon="6.74147">
        <ele>1499.31</ele>
        <time>2018-06-23T17:13:19Z</time>
      </trkpt>
      <trkpt lat="45.22869" lon="6.7414">
        <ele>1499.79</ele>
        <time>2018-06-23T17:13:48Z</time>
      </trkpt>
      <trkpt lat="45.22869" lon="6.74134">
        <ele>1499.79</ele>
        <time>2018-06-23T17:14:25Z</time>
      </trkpt>
      <trkpt lat="45.2287" lon="6.74129">
        <ele>1498.35</ele>
        <time>2018-06-23T17:14:49Z</time>
      </trkpt>
    </trkseg>
  </trk>
</gpx>